     2              OBSERVATION DATA    GPS                 RINEX VERSION / TYPE
teqc 2000Feb29 Duncan Agnew 20000517 23:38:04UTC            PGM / RUN BY / DATE
                                                            COMMENT
L2: 1 -> 1; 5 -> 5; 60 -> 9                                 COMMENT
L2: 1 -> 1; 5 -> 5; 60 -> 9                                 COMMENT
L2: 1 -> 1; 5 -> 5; 60 -> 9                                 COMMENT
L2: 1 -> 1; 5 -> 5; 60 -> 9                                 COMMENT
L2: 1 -> 1; 5 -> 5; 60 -> 9                                 COMMENT
Original Marker Name: 0801                                  COMMENT
Campaign Name: CSRC Post Hector                             COMMENT
4-Character Station Name: 0801                              COMMENT
6-Character Antenna Code: TRMCMP                            COMMENT
Vertical Measurement Point: BPA                             COMMENT
Vertical Offset to Rinex Ref. Point: 0.0000                 COMMENT
Radial Measurement Point: RRP                               COMMENT
Radial Offset to Rinex Ref. Point: 0.0000                   COMMENT
Antenna Height from Field Measurement: 1.8940 m             COMMENT
Additional Antenna Identification Info.:                    COMMENT
Model 22020.00+GP                                           COMMENT
Original XYZ: -2230788.7532 -4693204.0340 3687328.7457      COMMENT
New XYZ position is based on association with SCEC monument COMMENT
E1F4J5C7+0011. Position of that monument is believed to be  COMMENT
valid to within 1 m horizontally; vertical accuracy         COMMENT
should be no worse than 3-times this value.                 COMMENT
                                                            COMMENT
Revised Rinex header created by UCSD GPS archive for        COMMENT
GSAC on 16-Jun-2000 (2000:168) 22:58:00 GMT                 COMMENT
For assistance contact dagnew@ucsd.edu                      COMMENT
or anderson@python.ucsd.edu                                 COMMENT
                                                            COMMENT
08 01 1991                                                  MARKER NAME
0801                                                        MARKER NUMBER
-Unknown- CALIF DEPT TRANSPORTATION                         OBSERVER / AGENCY
1593 TRIMBLE 4000 SSI NP 7.29; SP 3.07                      REC # / TYPE / VERS
79190 TR GEOD L1/L2 GP                                      ANT # / TYPE
 -2230786.8555 -4693203.0360  3687325.6205                  APPROX POSITION XYZ
        1.8940        0.0000        0.0000                  ANTENNA: DELTA H/E/N
     1     1     0                                          WAVELENGTH FACT L1/2
     7    C1    L1    L2    P1    P2    S1    S2            # / TYPES OF OBSERV
     0                                                      INTERVAL
  2000     5     8    14    55   45.000000                  TIME OF FIRST OBS
  2000     5     8    20    35   45.000000                  TIME OF LAST OBS
                                                            END OF HEADER
 00  5  8 14 55 45.0000000  0  6G 2G 4G 7G 8G 9G26
  21640476.1884      38274.26758     29823.81457                  21640483.2584
        29.2504         27.0004
  22452574.2814    -135112.91057   -105283.37056                  22452581.6214
        21.2504         18.5004
  20865321.6884      37160.07058     28955.70457                  20865328.3554
        30.5004         28.7504
  23770327.4844     166060.80756    100037.38755                  23770334.2934
        12.2504         11.0004
  23068741.0474    -117252.04756    -91365.35656                  23068748.5044
        17.7504         17.0004
  23698308.2034      93285.23956     72689.94556                  23698316.9614
        12.7504         13.2504
 00  5  8 14 56  0.0000000  0  6G 2G 4G 7G 8G 9G26
  21642998.6644      51529.50948     40152.55147                  21643005.6764
        29.2504         27.0004
  22443853.4844    -180939.28847   -140992.21846                  22443860.9884
        21.5004         18.5004
  20867781.6174      50087.27248     39028.82347                  20867788.2974
        30.2504         29.0004
  23781134.0554     222850.57646    144289.07845                  23781142.7304
        12.0004         11.0004
  23061182.1724    -156972.86746   -122316.64646                  23061189.4064
        18.0004         17.5004
  23704406.8754     125333.28046     97662.39146                  23704415.7274
        13.2504         13.5004
 00  5  8 14 56 15.0000000  0  6G 2G 4G 7G 8G 9G26
  21645537.9844      64873.99148     50550.82547                  21645544.9614
        29.2504         27.0004
  22435152.4774    -226664.52047   -176622.26646                  22435160.1564
        21.2504         18.7504
  20870263.5784      63129.62148     49191.67347                  20870270.2114
        30.2504         28.5004
  23791955.2584     279716.22645    188599.88045                  23791964.2384
        11.5004         11.2504
  23053644.7584    -196584.03746   -153182.48946                  23053652.3794
        18.0004         17.5004
  23710526.1804     157490.41646    122719.83546                  23710534.8794
        13.0004         13.5004
 00  5  8 14 56 30.0000000  0  6G 2G 4G 7G 8G 9G26
  21648094.2894      78307.04348     61018.11147                  21648101.1724
        29.5004         27.0004
  22426470.3524    -272289.00047   -212173.78746                  22426477.8794
        21.5004         18.5004
  20872767.2274      76286.09248     59443.44347                  20872773.9184
        30.2504         28.7504
  23802790.4224     336656.77045    232969.06245                  23802800.8094
        11.7504         10.5004
  23046127.5634    -236085.98746   -183963.22246                  23046134.8794
        18.0004         17.2504
  23716666.0634     189755.63946    147861.49746                  23716675.0084
        12.7504         13.7504
 00  5  8 14 56 45.0000000  0  6G 2G 4G 7G 8G 9G26
  21650666.0634      91821.63548     71548.93747                  21650673.1214
        29.2504         26.7504
  22417806.4224    -317819.45547   -247652.05546                  22417814.0554
        21.5004         19.0004
  20875291.1334      89549.46448     69778.51247                  20875297.7664
        30.5004         29.0004
  23813638.8984     393664.77546    277390.80445                  23813647.3524
        12.7504         11.7504
  23038630.4064    -275485.50046   -214664.13446                  23038637.7114
        18.2504         17.7504
  23722825.1954     222121.48846    173081.58146                  23722833.9654
        13.0004         13.7504
 00  5  8 14 57  0.0000000  0  6G 2G 4G 7G 8G 9G26
  21653251.3914     105408.31048     82135.93547                  21653258.2504
        29.2504         27.0004
  22409158.2034    -363265.01847   -283064.16946                  22409165.6254
        21.5004         18.7504
  20877833.5474     102909.98448     80189.29447                  20877840.2734
        30.5004         29.0004
  23824498.5164     450730.53746    321857.56245                  23824507.4734
        12.7504         11.0004
  23031150.7344    -314791.71946   -245292.34946                  23031157.5784
        18.2504         17.2504
  23729001.5234     254578.07746    198372.38246                  23729010.5044
        13.2504         13.5004
 00  5  8 14 57 15.0000000  0  6G 2G 4G 7G 8G 9G26
  21655849.7194     119062.03248     92775.17647                  21655856.5394
        29.7504         26.7504
  22400525.3914    -408630.42447   -318413.82246                  22400532.8364
        20.7504         18.5004
  20880393.4614     116362.31048     90671.60247                  20880400.1414
        30.5004         28.7504
  23835367.2974     507848.40746    366364.93645                  23835376.3714
        12.7504         11.0004
  23023687.6024    -354009.63246   -275851.76646                  23023694.7894
        18.2504         17.2504
  23735194.0474     287119.91246    223729.60346                  23735202.9924
        13.0004         13.7504
 00  5  8 14 57 30.0000000  0  6G 2G 4G 7G 8G 9G26
  21658460.9064     132783.29148    103467.04447                  21658467.8134
        29.7504         27.0004
  22391907.9224    -453914.94847   -353700.45646                  22391915.3444
        21.0004         18.5004
  20882970.9304     129906.65548    101225.61547                  20882977.5164
        30.2504         28.7504
  23846246.6954     565018.67146    410913.12045                  23846255.1604
        12.5004         10.7504
  23016241.6804    -393138.59446   -306341.85546                  23016248.7034
        18.2504         17.2504
  23741402.7114     319747.01846    249153.26046                  23741411.5164
        12.7504         13.7504
 00  5  8 14 57 45.0000000  0  6G 2G 4G 7G 8G 9G26
  21661084.7734     146571.67448    114211.21447                  21661091.8094
        29.7504         27.0004
  22383306.0084    -499118.80347   -388924.23946                  22383313.6994
        21.0004         18.7504
  20885565.7114     143542.25648    111850.73847                  20885572.5314
        30.5004         28.7504
  23857135.8204     622240.52346    455501.50845                  23857145.2584
        12.7504         11.0004
  23008812.3984    -432178.77946   -336762.78546                  23008819.1724
        18.0004         17.5004
  23747627.2424     352458.48646    274642.65946                  23747636.0594
        12.7504         13.5004
 00  5  8 14 58  0.0000000  0  6G 2G 4G 7G 8G 9G26
  21663720.3754     160422.28448    125003.87047                  21663727.4804
        29.7504         27.2504
  22374718.5474    -544246.35347   -424088.55246                  22374726.3674
        20.5004         18.7504
  20888176.9454     157264.05948    122543.03047                  20888183.7424
        30.5004         28.7504
  23868033.5004     679508.67245    500125.98245                  23868042.2464
        11.7504         11.5004
  23001399.2734    -471134.86446   -367118.15546                  23001406.7194
        17.7504         17.2504
  23753867.4304     385249.08946    300193.71746                  23753876.4924
        12.5004         13.2504
 00  5  8 14 58 15.0000000  0  6G 2G 4G 7G 8G 9G26
  21666368.1174     174336.08948    135845.76747                  21666375.0234
        29.5004         26.7504
  22366145.6414    -589296.41147   -459192.47946                  22366153.5664
        20.7504         19.0004
  20890804.4224     171072.72848    133303.00947                  20890811.0904
        30.5004         28.7504
  23878939.6024     736823.73245    544786.97945                  23878947.9614
        11.0004         10.7504
  22994002.3134    -510005.50246   -397406.95546                  22994009.7704
        17.7504         17.5004
  23760122.7734     418119.35246    325806.85346                  23760131.8714
        12.7504         13.2504
 00  5  8 14 58 30.0000000  0  6G 2G 4G 7G 8G 9G26
  21669027.1414     188309.57148    146734.17047                  21669034.2464
        29.5004         27.5004
  22357586.9064    -634272.37047   -494238.67646                  22357595.0664
        20.2504         19.0004
  20893448.0084     184964.33848    144127.62047                  20893454.8164
        30.5004         29.2504
  23889855.2664     794181.82945    589481.50045                  23889864.3634
        11.0004         11.2504
  22986621.1564    -548794.18046   -427631.88746                  22986628.6134
        17.5004         17.5004
  23766392.3444     451065.22146    351478.90746                  23766401.2074
        12.5004         13.2504
 00  5  8 14 58 45.0000000  0  6G 2G 4G 7G 8G 9G26
  21671697.4774     202341.74348    157668.30847                  21671704.5354
        29.2504         27.5004
  22349042.2504    -679174.66547   -529227.46846                  22349050.1644
        20.5004         18.5004
  20896107.2734     198937.73848    155015.95547                  20896114.0704
        30.5004         29.2504
  23900778.1334     851581.70845    634208.60645                  23900788.2504
        11.5004         11.2504
  22979255.2344    -587501.53446   -457793.45246                  22979262.7854
        17.5004         17.2504
  23772675.6954     484085.37746    377208.83946                  23772685.2034
        12.7504         13.2504
 00  5  8 14 59  0.0000000  0  6G 2G 4G 7G 8G 9G26
  21674378.7034     216432.31648    168647.94747                  21674385.7384
        29.5004         27.5004
  22340511.5704    -724003.52547   -564159.04646                  22340519.5204
        20.5004         18.2504
  20898781.8204     212992.41748    165967.62947                  20898788.4774
        30.2504         29.0004
  23911708.6724     909022.63245    678967.69745                  23911717.0434
        11.7504         10.7504
  22971905.1094    -626127.64446   -487891.71346                  22971912.2624
        17.5004         17.2504
  23778973.2424     517179.08946    402996.08046                  23778982.3164
        12.5004         13.0004
 00  5  8 14 59 15.0000000  0  6G 2G 4G 7G 8G 9G26
  21677071.6094     230582.82048    179674.33146                  21677078.5514
        29.5004         23.2504
  22331995.2504    -768757.03447   -599031.90246                  22332002.9414
        20.2504         18.7504
  20901471.9534     227129.57548    176983.54346                  20901478.8134
        30.2504         25.5004
  23922647.2424     966505.81945    723759.69945                  23922656.5274
        11.5004         11.2504
  22964570.5784    -664670.90946   -517925.42046                  22964577.7074
        17.2504         17.0004
  23785284.9844     550347.38146    428841.45846                  23785293.5904
        12.5004         13.0004
 00  5  8 14 59 30.0000000  0  6G 2G 4G 7G 8G 9G26
  21679775.7814     244794.11248    190748.00447                  21679783.2274
        29.5004         27.5004
  22323493.5864    -813433.98747   -633845.10846                  22323501.5354
        20.5004         19.0004
  20904177.8754     241349.75948    188064.20847                  20904184.4614
        30.5004         29.2504
  23933594.5864    1024031.75745    768585.04045                  23933604.5984
        11.0004         11.0004
  22957251.8284    -703130.13046   -547893.63346                  22957259.1684
        17.2504         17.0004
  23791610.8134     583590.68746    454745.28046                  23791619.5234
        12.5004         12.7504
 00  5  8 14 59 45.0000000  0  6G 2G 4G 7G 8G 9G26
  21682491.0634     259061.90948    201865.70547                  21682498.1454
        29.2504         26.5004
  22315005.6414    -858038.39647   -668601.77946                  22315013.6024
        20.5004         19.2504
  20906899.0234     255648.50548    199206.08447                  20906905.8444
        30.5004         28.5004
  23944548.4614    1081595.78845    813440.02445                  23944557.9804
        10.5004         10.2504
  22949948.4064    -741509.27946   -577799.45646                  22949955.8524
        17.2504         17.5004
  23797950.2734     616904.37646    480703.92346                  23797959.3954
        12.5004         13.2504
 00  5  8 15  0  0.0000000  0  6G 2G 4G 7G 8G 9G26
  21685217.2974     273388.88248    213029.57047                  21685224.4844
        29.0004         27.5004
  22306532.0234    -902567.31247   -703299.63346                  22306539.7624
        21.0004         19.2504
  20909635.2734     270028.06148    210410.90347                  20909641.9534
        30.5004         28.7504
  23955510.0944    1139200.18745    858326.50245                  23955520.3634
        10.0004         10.7504
  22942661.0004    -779805.60946   -607640.74046                  22942668.1994
        17.5004         17.0004
  23804303.7974     650290.56046    506719.08746                  23804312.3674
        12.7504         13.2504
 00  5  8 15  0 15.0000000  0  6G 2G 4G 7G 8G 9G26
  21687954.2814     287770.96548    224236.35847                  21687961.6684
        29.5004         27.2504
  22298072.2584    -947024.58647   -737941.66446                  22298079.8324
        21.5004         19.2504
  20912386.1564     284484.14348    221675.36047                  20912392.8594
        30.5004         29.0004
  23966478.9144    1196840.44745    903240.89845                  23966488.7624
         9.7504         10.5004
  22935388.3754    -818022.94746   -637420.46746                  22935395.0784
        17.7504         17.2504
  23810669.8674     683744.69246    532787.18446                  23810679.1884
        12.5004         13.0004
 00  5  8 15  0 30.0000000  0  6G 2G 4G 7G 8G 9G26
  21690701.1724     302206.59748    235484.87147                  21690708.5474
        29.5004         27.2504
  22289625.6334    -991411.50247   -772528.86046                  22289633.5474
        21.7504         19.7504
  20915151.3754     299014.94648    232998.03847                  20915158.0314
        30.5004         29.0004
  23977454.0164    1254514.74545    948181.82945                  23977462.7854
        10.2504         10.5004
  22928130.7194    -856162.69446   -667139.74346                  22928137.9534
        17.7504         17.5004
  23817048.4304     717264.85446    558906.74646                  23817057.7974
        12.2504         13.2504
 00  5  8 15  0 45.0000000  0  6G 2G 4G 7G 8G 9G26
  21693459.5634     316701.32948    246779.43447                  21693466.8324
        29.7504         27.0004
  22281193.5394   -1035722.12947   -807056.62246                  22281201.3134
        21.2504         19.2504
  20917931.7734     313625.69848    244383.01947                  20917938.6334
        30.5004         28.7504
  23988436.4534    1312228.25445    993153.34345                  23988446.3834
        10.2504         10.5004
  22920888.9614    -894219.08146   -696794.07146                  22920896.4064
        17.7504         17.5004
  23823440.7194     750856.16046    585081.71646                  23823449.7114
        12.5004         13.5004
 00  5  8 15  1  0.0000000  0  6G 2G 4G 7G 8G 9G26
  21696228.6094     331252.42848    258117.92247                  21696235.8554
        29.5004         27.0004
  22272775.4534   -1079958.83547   -841526.77446                  22272783.2154
        21.7504         19.7504
  20920726.4694     328313.34848    255827.91647                  20920733.3874
        30.5004         28.7504
  23999425.9694    1369977.84245   1038152.89445                  23999436.0274
        10.5004         11.2504
  22913662.3594    -932194.51246   -726385.30346                  22913669.6644
        18.2504         17.5004
  23829845.9454     784515.47346    611309.71246                  23829854.9144
        12.7504         13.2504
 00  5  8 15  1 15.0000000  0  6G 2G 4G 7G 8G 9G26
  21699008.2974     345860.42248    269500.74647                  21699015.5664
        29.5004         27.2504
  22264372.1174   -1124120.86747   -875938.74746                  22264379.8324
        22.2504         19.7504
  20923536.3594     343078.32448    267333.07447                  20923543.3014
        30.5004         29.2504
  24010422.2584    1427763.75945   1083180.82445                  24010433.1604
        10.7504         11.2504
  22906451.3594    -970088.34946   -755912.95946                  22906458.6764
        18.0004         17.7504
  23836264.3594     818242.86946    637590.73346                  23836272.9534
        12.5004         13.5004
 00  5  8 15  1 30.0000000  0  6G 2G 4G 7G 8G 9G26
  21701798.2274     360521.49448    280924.93047                  21701805.4844
        29.0004         27.0004
  22255981.7504   -1168211.80947   -910295.32346                  22255989.7584
        22.0004         19.7504
  20926359.9304     357916.46148    278895.23647                  20926366.7274
        30.5004         29.0004
  24021425.5314    1485581.71245   1128233.66245                  24021435.8244
        10.7504         10.2504
  22899254.8834   -1007904.18146   -785379.82346                  22899262.2464
        17.5004         17.5004
  23842694.1254     852034.05146    663921.48346                  23842702.4494
        12.0004         12.7504
 00  5  8 15  1 45.0000000  0  6G 2G 4G 7G 8G 9G26
  21704599.5634     375241.66948    292395.16247                  21704606.7854
        29.2504         27.0004
  22247606.0234   -1212225.23147   -944591.48846                  22247613.7504
        22.0004         19.7504
  20929198.5394     372833.36348    290518.77747                  20929205.4104
        30.2504         29.0004
  24032434.5474    1543437.58045   1173316.09545                  24032444.8164
        10.2504         10.5004
  22892075.0164   -1045635.84046   -814781.11746                  22892082.2154
        17.7504         17.5004
  23849138.0314     885894.64146    690306.28546                  23849147.2114
        12.5004         13.5004
 00  5  8 15  2  0.0000000  0  6G 2G 4G 7G 8G 9G26
  21707411.3444     390018.60748    303909.63247                  21707418.4494
        28.7504         26.7504
  22239245.2114   -1256163.26447   -978828.91646                  22239252.8674
        21.7504         19.7504
  20932051.5004     387826.63548    302201.81947                  20932058.3954
        30.0004         29.0004
  24043451.0084    1601328.51645   1218425.82945                  24043461.6644
        10.5004         10.2504
  22884910.6414   -1083285.38246   -844118.40946                  22884917.5824
        18.2504         17.7504
  23855594.3054     919821.78446    716742.97146                  23855603.5784
        12.0004         12.7504
 00  5  8 15  2 15.0000000  0  6G 2G 4G 7G 8G 9G26
  21710234.4144     404854.42248    315469.97247                  21710241.7894
        28.7504         27.0004
  22230898.5314   -1300023.49047  -1013005.70746                  22230906.5864
        21.5004         20.0004
  20934919.4534     402898.00948    313945.73347                  20934926.5594
        30.0004         28.7504
  24054474.4774    1659256.30245   1263564.27145                  24054484.8874
        10.0004         10.2504
  22877762.2814   -1120850.46446   -873389.90346                  22877769.0554
        18.2504         17.7504
  23862063.2974     953817.26246    743232.89246                  23862072.3244
        12.2504         12.7504
 00  5  8 15  2 30.0000000  0  6G 2G 4G 7G 8G 9G26
  21713068.1724     419744.55748    327072.64847                  21713075.5704
        28.7504         26.7504
  22222566.2974   -1343810.05647  -1047125.10246                  22222574.1644
        22.0004         20.0004
  20937801.5164     418042.59548    325746.68947                  20937808.4104
        30.0004         28.7504
  24065503.4924    1717215.97145   1308727.56145                  24065513.6214
        10.2504         10.0004
  22870629.0864   -1158335.49346   -902599.00446                  22870636.1564
        18.5004         18.0004
  23868544.6024     987876.02046    769772.13346                  23868554.3794
        12.2504         12.7504
 00  5  8 15  2 45.0010000  0  6G 2G 4G 7G 8G 9G26
  21715911.8884     434689.10348    338717.72147                  21715919.3104
        29.0004         26.7504
  22214247.3564   -1387526.69247  -1081190.00746                  22214255.3644
        22.0004         20.0004
  20940697.2714     433260.34848    337604.65947                  20940704.2474
        29.7504         28.7504
  24076539.9744    1775210.13945   1353917.75745                  24076549.5174
        10.7504         10.0004
  22863510.4114   -1195743.61046   -931748.17346                  22863517.5284
        18.7504         18.0004
  23875037.7944    1021998.99745    796361.37946                  23875046.6694
        11.7504         12.7504
 00  5  8 15  3  0.0010000  0  6G 2G 4G 7G 8G 9G26
  21718766.5524     449689.84148    350406.58147                  21718773.9504
        28.5004         27.0004
  22205943.5994   -1431163.36347  -1115192.60646                  22205951.3254
        22.0004         20.0004
  20943607.3174     448552.62348    349520.70147                  20943614.2474
        29.7504         29.0004
  24087580.8414    1833234.40445   1399131.38245                  24087589.3994
        10.7504          9.7504
  22856408.5444   -1233065.88346   -960830.46046                  22856415.9194
        18.7504         18.2504
  23881543.3644    1056184.91846    822999.72046                  23881552.0054
        12.0004         12.2504
 00  5  8 15  3 15.0010000  0  6G 2G 4G 7G 8G 9G26
  21721631.5364     464744.94048    362137.79447                  21721638.9934
        28.7504         26.7504
  22197653.9034   -1474725.74547  -1149137.31146                  22197661.6654
        22.2504         20.2504
  20946531.1224     463917.31948    361493.17347                  20946537.9814
        30.2504         28.7504
  24098628.6224    1891289.45845   1444369.00445                  24098638.4234
        10.5004         10.7504
  22849321.6224   -1270307.52946   -989849.92446                  22849328.7984
        19.2504         18.2504
  23888060.3254    1090432.76246    849686.28246                  23888069.7284
        12.2504         12.7504
 00  5  8 15  3 30.0010000  0  6G 2G 4G 7G 8G 9G26
  21724507.3884     479858.48248    373914.55647                  21724514.8684
        28.2504         26.5004
  22189379.3804   -1518209.13947  -1183020.46646                  22189387.0484
        22.7504         20.5004
  20949469.6614     479358.32648    373525.11047                  20949476.4814
        30.2504         28.5004
  24109683.7394    1949379.19545   1489633.63645                  24109693.7744
        10.2504          9.7504
  22842250.9354   -1307464.07746  -1018803.07146                  22842258.1924
        19.2504         18.7504
  23894590.0214    1124746.31246    876424.05846                  23894599.3414
        12.0004         12.5004
 00  5  8 15  3 45.0010000  0  6G 2G 4G 7G 8G 9G26
  21727394.4974     495029.79648    385736.32747                  21727402.0714
        28.2504         26.7504
  22181119.5604   -1561614.13047  -1216842.53346                  22181127.2744
        23.2504         20.2504
  20952422.2784     494874.66848    385615.75047                  20952428.9814
        30.2504         28.5004
  24120742.8494    2007502.44245   1534924.41045                  24120751.7244
         9.5004          9.0004
  22835196.2314   -1344536.00346  -1047690.28046                  22835203.6654
        19.2504         18.5004
  23901132.3334    1159124.34445    903212.06946                  23901142.0404
        11.7504         12.5004
 00  5  8 15  4  0.0010000  0  6G 2G 4G 7G 8G 9G26
  21730293.3334     510262.01048    397605.55747                  21730300.6964
        28.7504         27.0004
  22172875.6614   -1604937.20247  -1250600.77146                  22172883.2474
        23.7504         20.5004
  20955389.8804     510469.18548    397767.30647                  20955396.4424
        30.5004         28.5004
  24131810.9814    2065662.06445   1580243.50545                  24131822.8564
         9.7504          9.5004
  22828158.4744   -1381520.05246  -1076509.01546                  22828166.1304
        19.2504         18.7504
  23907687.1924    1193569.57645    930052.45146                  23907696.1494
        11.7504         12.5004
 00  5  8 15  4 15.0010000  0  6G 2G 4G 7G 8G 9G26
  21733201.2004     525543.84948    409513.45247                  21733208.6814
        28.2504         26.7504
  22164645.0054   -1648189.39947  -1284303.77946                  22164652.4974
        23.5004         20.7504
  20958370.0364     526130.36948    409970.80647                  20958376.5524
        30.5004         28.7504
  24142883.0754    2123846.25445   1625581.71745                  24142894.5524
         9.2504          9.2504
  22821135.3414   -1418427.15246  -1105267.78346                  22821142.6814
        19.5004         18.5004
  23914252.2634    1228070.30346    956936.07646                  23914261.2554
        12.2504         12.5004
 00  5  8 15  4 30.0010000  0  6G 2G 4G 7G 8G 9G26
  21736119.7244     540880.97348    421464.42647                  21736127.3684
        28.2504         26.5004
  22156428.8724   -1691364.66747  -1317946.83746                  22156436.4114
        23.7504         20.5004
  20961364.1064     541863.60948    422230.45847                  20961370.7044
        30.2504         28.5004
  24153960.3334    2182060.41045   1670943.35045                  24153970.4384
         9.0004          9.2504
  22814127.7634   -1455251.47746  -1133962.05946                  22814135.1034
        19.7504         18.7504
  23920829.1774    1262631.76445    983867.00546                  23920838.0874
        11.7504         12.5004
 00  5  8 15  4 45.0010000  0  6G 2G 4G 7G 8G 9G26
  21739048.9744     556273.57048    433458.61547                  21739056.5134
        28.0004         26.7504
  22148227.5674   -1734462.49847  -1351529.56546                  22148235.3884
        23.7504         20.7504
  20964371.6064     557668.88148    434546.24147                  20964378.1814
        30.2504         28.7504
  24165044.2084    2240304.46645   1716328.22445                  24165054.7474
         8.7504         10.0004
  22807136.0754   -1491992.51246  -1162591.43046                  22807143.4384
        19.7504         18.7504
  23927417.9034    1297253.70445   1010845.08746                  23927427.1064
        11.7504         13.0004
 00  5  8 15  5  0.0010000  0  6G 2G 4G 7G 8G 9G26
  21741988.3644     571720.60947    445495.23647                  21741996.0674
        27.7504         26.7504
  22140041.0914   -1777483.81547  -1385052.66346                  22140048.5014
        24.0004         20.7504
  20967392.9114     573544.70048    446916.99747                  20967399.5674
        30.0004         28.5004
  24176133.4504    2298576.85145   1761735.20845                  24176143.7784
         8.2504          8.7504
  22800160.1534   -1528651.23046  -1191156.65946                  22800167.7164
        19.7504         19.0004
  23934016.8964    1331934.60546   1037869.10746                  23934025.8294
        12.2504         12.5004
 00  5  8 15  5 15.0010000  0  6G 2G 4G 7G 8G 9G26
  21744938.2554     587222.25448    457574.39947                  21744945.8644
        28.2504         26.5004
  22131869.2864   -1820428.07647  -1418515.72546                  22131876.8844
        23.7504         21.0004
  20970427.1534     589491.08348    459342.73947                  20970433.8684
        30.0004         28.5004
  24187228.2084    2356877.44545   1807164.11045                  24187237.3994
         9.0004          9.0004
  22793200.0914   -1565227.18246  -1219657.39346                  22793207.4194
        19.7504         19.0004
  23940627.6464    1366674.21046   1064938.86546                  23940637.0714
        12.5004         12.2504
 00  5  8 15  5 30.0010000  0  6G 2G 4G 7G 8G 9G26
  21747899.1694     602781.26648    469698.26547                  21747906.8024
        28.5004         26.5004
  22123712.4504   -1863292.22847  -1451916.36246                  22123720.0014
        23.5004         20.7504
  20973475.6144     605510.44148    471825.34447                  20973482.4974
        30.0004         28.7504
  24198327.4424    2415208.61545   1852616.93145                  24198336.4464
         8.7504          9.0004
  22786256.1774   -1601717.48546  -1248091.38746                  22786263.5994
        19.7504         19.2504
  23947250.3644    1401474.87446   1092056.20246                  23947259.7084
        12.5004         12.7504
 00  5  8 15  5 45.0010000  0  6G 2G 4G 7G 8G 9G26
  21750870.1924     618394.15548    481864.11447                  21750877.7084
        28.2504         26.7504
  22115570.0524   -1906079.63647  -1485257.19746                  22115577.8494
        23.0004         20.5004
  20976537.2714     621598.94348    484361.82847                  20976544.2714
        30.0004         28.7504
  24209432.5284    2473566.59845   1898090.59345                  24209441.0754
         9.0004          9.2504
  22779328.0604   -1638125.45047  -1276461.22446                  22779335.2474
        20.0004         19.2504
  23953883.8884    1436332.53746   1119217.95046                  23953892.9974
        12.7504         13.0004
 00  5  8 15  6  0.0010000  0  6G 2G 4G 7G 8G 9G26
  21753852.2394     634064.68848    494074.88547                  21753859.6494
        28.7504         26.7504
  22107443.2554   -1948786.08447  -1518534.93946                  22107451.0174
        22.7504         20.7504
  20979612.6304     637760.16248    496954.97547                  20979619.6064
        30.0004         29.0004
  24220544.0674    2531954.66145   1943587.70345                  24220553.0954
         8.7504          9.2504
  22772416.4194   -1674447.07747  -1304763.78646                  22772423.7474
        20.2504         19.2504
  23960528.4194    1471250.49646   1146426.68346                  23960537.9974
        12.7504         12.7504
 00  5  8 15  6 15.0010000  0  6G 2G 4G 7G 8G 9G26
  21756844.8334     649790.51348    506328.74047                  21756852.2784
        28.2504         26.5004
  22099331.4034   -1991413.66947  -1551751.23446                  22099339.0834
        23.0004         20.7504
  20982701.4114     653991.45148    509602.72447                  20982708.5174
        30.0004         28.7504
  24231660.1384    2590370.08645   1989106.09445                  24231670.0794
         9.0004          8.5004
  22765520.4194   -1710684.47247  -1333000.70346                  22765527.5834
        20.0004         19.2504
  23967184.0994    1506226.07046   1173680.32546                  23967193.7824
        12.7504         12.7504
 00  5  8 15  6 30.0010000  0  6G 2G 4G 7G 8G 9G26
  21759848.2314     665573.98648    518627.52147                  21759855.8294
        28.2504         26.5004
  22091235.0134   -2033959.79147  -1584904.04446                  22091242.9504
        22.7504         20.2504
  20985803.9114     670294.82448    522306.64547                  20985811.0754
        30.2504         29.0004
  24242781.5994    2648814.93645   2034647.45845                  24242791.4704
         8.2504          9.0004
  22758641.3724   -1746835.02647  -1361169.95746                  22758648.6884
        20.0004         19.2504
  23973850.7864    1541261.18246   1200980.34446                  23973860.4234
        12.5004         12.7504
 00  5  8 15  6 45.0010000  0  6G 2G 4G 7G 8G 9G26
  21762862.1924     681412.39548    530969.10047                  21762869.9424
        28.2504         26.2504
  22083153.8964   -2076426.70147  -1617995.13646                  22083161.6464
        22.2504         20.7504
  20988919.4354     686667.46348    535064.53447                  20988926.5404
        30.2504         29.2504
  24253908.8644    2707286.18645   2080209.34845                  24253919.8724
         9.0004          9.0004
  22751778.1534   -1782901.23647  -1389273.49246                  22751785.2594
        20.0004         19.5004
  23980528.2474    1576352.68046   1228324.31446                  23980537.9194
        12.2504         12.5004
 00  5  8 15  7  0.0010000  0  6G 2G 4G 7G 8G 9G26
  21765886.9274     697306.50248    543354.08147                  21765894.5714
        28.0004         26.2504
  22075088.1224   -2118813.51747  -1651023.81246                  22075095.4624
        22.5004         20.5004
  20992048.3334     703109.72448    547876.67147                  20992055.3334
        30.2504         29.2504
  24265040.3564    2765784.24345   2125792.17145                  24265052.3604
         9.5004          9.7504
  22744931.3024   -1818882.10147  -1417310.52546                  22744938.5714
        20.0004         19.5004
  23987217.4424    1611500.86745   1255712.42946                  23987226.7984
        11.7504         12.5004
 00  5  8 15  7 15.0010000  0  6G 2G 4G 7G 8G 9G26
  21768921.6144     713255.21747    555781.61947                  21768929.1304
        27.7504         26.0004
  22067037.2394   -2161121.03347  -1683990.69946                  22067045.1884
        22.7504         20.7504
  20995190.0674     719620.22548    560741.98947                  20995196.9114
        30.5004         29.2504
  24276177.5994    2824307.39445   2171394.54345                  24276188.3844
         9.5004          9.7504
  22738100.3644   -1854778.56547  -1445281.78646                  22738107.7394
        20.0004         19.2504
  23993916.3724    1646704.12746   1283143.48846                  23993925.8454
        12.2504         12.0004
 00  5  8 15  7 30.0010000  0  6G 2G 4G 7G 8G 9G26
  21771967.1064     729260.09747    568252.91947                  21771974.5754
        27.7504         26.0004
  22059001.6924   -2203347.40547  -1716894.35246                  22059009.4194
        22.7504         20.7504
  20998345.1614     736200.27848    573661.50047                  20998352.1854
        30.2504         29.0004
  24287319.2314    2882856.96945   2217017.48145                  24287329.3844
        10.0004         10.0004
  22731285.8494   -1890588.89847  -1473185.92546                  22731293.1304
        20.2504         19.5004
  24000625.5054    1681963.54945   1310618.29746                  24000634.8604
        11.7504         12.2504
 00  5  8 15  7 45.0010000  0  6G 2G 4G 7G 8G 9G26
  21775024.3884     745324.80047    580770.84047                  21775031.9624
        27.2504         25.7504
  22050982.3254   -2245488.68047  -1749731.70246                  22050990.1224
        23.5004         20.7504
  21001514.0284     752853.32048    586637.88147                  21001520.9704
        30.5004         29.0004
  24298466.6924    2941436.39545   2262663.71945                  24298477.3844
         9.5004          9.5004
  22724488.4424   -1926309.21947  -1501019.94046                  22724495.6424
        20.2504         19.5004
  24007346.9034    1717282.49146   1338139.48546                  24007357.0214
        12.2504         12.5004
 00  5  8 15  8  0.0010000  0  6G 2G 4G 7G 8G 9G26
  21778092.0214     761445.59547    593332.46247                  21778099.6774
        27.7504         26.0004
  22042978.7164   -2287548.22547  -1782505.36446                  22042986.1384
        23.7504         20.7504
  21004696.2944     769575.22548    599667.92347                  21004703.1034
        30.2504         29.0004
  24309618.5914    3000041.46945   2308329.89945                  24309630.0094
        10.0004          9.5004
  22717707.4194   -1961942.99647  -1528786.50846                  22717714.7594
        20.2504         19.5004
  24014078.4664    1752656.64246   1365703.70246                  24014088.7004
        12.2504         12.5004
 00  5  8 15  8 15.0010000  0  6G 2G 4G 7G 8G 9G26
  21781169.7244     777617.87747    605934.20447                  21781177.4744
        27.7504         26.0004
  22034989.7944   -2329530.44447  -1815218.76846                  22034997.3454
        23.7504         21.0004
  21007890.4814     786361.22948    612747.91147                  21007897.1264
        30.5004         28.7504
  24320774.5134    3058667.32745   2354012.28745                  24320785.3804
         9.7504          9.7504
  22710942.1694   -1997494.61247  -1556489.05846                  22710949.4624
        20.5004         19.5004
  24020819.5674    1788081.06845   1393307.07346                  24020829.1814
        11.7504         12.2504
 00  5  8 15  8 30.0010000  0  6G 2G 4G 7G 8G 9G26
  21784257.7864     793846.35247    618579.73947                  21784265.4544
        27.2504         26.0004
  22027016.6924   -2371430.23847  -1847867.94446                  22027024.0794
        23.7504         21.2504
  21011097.9274     803215.80148    625881.33047                  21011104.4894
        30.5004         28.7504
  24331936.0914    3117318.32245   2399714.26645                  24331946.4894
        10.2504          9.5004
  22704193.6064   -2032959.22447  -1584123.81446                  22704201.1574
        20.5004         19.5004
  24027571.3804    1823560.08345   1420953.01346                  24027580.8994
        11.7504         12.5004
 00  5  8 15  8 45.0010000  0  6G 2G 4G 7G 8G 9G26
  21787356.7784     810131.53847    631269.46247                  21787364.5524
        27.5004         26.0004
  22019059.1384   -2413246.84747  -1880452.29846                  22019066.8644
        23.7504         21.5004
  21014318.3964     820139.10948    639068.31247                  21014325.0634
        30.5004         29.0004
  24343101.3334    3175994.52645   2445435.92445                  24343111.5794
         9.7504          9.7504
  22697461.5754   -2068336.07147  -1611690.17946                  22697468.8454
        21.0004         19.7504
  24034332.7714    1859093.59646   1448641.38746                  24034342.2084
        12.2504         12.0004
 00  5  8 15  9  0.0010000  0  6G 2G 4G 7G 8G 9G26
  21790466.6224     826472.75247    644002.84147                  21790474.2674
        27.5004         25.7504
  22011117.6924   -2454980.63147  -1912972.11246                  22011125.4314
        23.7504         21.7504
  21017551.6464     837130.25548    652308.15547                  21017558.3024
        30.5004         29.0004
  24354272.2634    3234694.93845   2491176.40345                  24354282.2514
        10.0004          9.5004
  22690746.1304   -2103625.51647  -1639188.43546                  22690753.5404
        20.7504         19.7504
  24041105.3494    1894680.59046   1476371.46646                  24041114.5634
        12.2504         12.2504
 00  5  8 15  9 15.0010000  0  6G 2G 4G 7G 8G 9G26
  21793587.1144     842871.75247    656781.25347                  21793594.8064
        27.2504         25.7504
  22003191.8174   -2496629.59447  -1945425.83746                  22003199.1814
        23.5004         21.2504
  21020798.0214     854190.66048    665601.96547                  21020804.7594
        30.2504         28.7504
  24365447.4504    3293420.97545   2536936.87445                  24365458.6344
        10.5004         10.5004
  22684047.8724   -2138825.66147  -1666617.11246                  22684055.6344
        20.5004         19.7504
  24047887.4664    1930322.27146   1504144.14946                  24047896.7394
        12.0004         12.0004
 00  5  8 15  9 30.0010000  0  6G 2G 4G 7G 8G 9G26
  21796718.3964     859327.15147    669603.60747                  21796725.9704
        27.7504         26.0004
  21995282.2244   -2538194.85747  -1977814.33946                  21995289.7984
        23.7504         21.5004
  21024057.4744     871318.67748    678948.45847                  21024064.2354
        30.5004         29.0004
  24376627.3644    3352170.71345   2582715.80545                  24376636.8134
        10.7504          9.5004
  22677366.0524   -2173937.77647  -1693977.19746                  22677373.7904
        20.2504         19.7504
  24054679.8964    1966016.97745   1531958.14945                  24054689.5094
        11.7504         11.7504
 00  5  8 15  9 45.0010000  0  6G 2G 4G 7G 8G 9G26
  21799860.5054     875838.18748    682469.32047                  21799868.1614
        28.0004         26.0004
  21987388.5214   -2579677.00147  -2010138.05946                  21987396.2004
        24.2504         21.5004
  21027329.4814     888513.18348    692346.76847                  21027336.1964
        30.5004         29.0004
  24387811.2084    3410943.09545   2628512.35945                  24387821.2204
        10.0004          9.5004
  22670701.3884   -2208962.39447  -1721269.09246                  22670708.6574
        20.7504         19.7504
  24061482.0914    2001763.25045   1559812.31945                  24061491.9624
        11.7504         11.5004
 00  5  8 15 10  0.0010000  0  7G 2G 4G 7G 8G 9G24G26
  21803013.0054     892405.05647    695378.53147                  21803020.6034
        27.2504         26.0004
  21979510.4664   -2621075.54747  -2042396.65246                  21979518.1814
        24.2504         22.0004
  21030614.1534     905774.13548    705796.84347                  21030620.9744
        30.7504         29.5004
  24398999.9274    3469738.01245   2674326.51345                  24399009.5174
        10.2504          9.0004
  22664053.0604   -2243899.15047  -1748492.53246                  22664060.3644
        21.0004         20.0004
  24569722.7164     -38858.93854
         6.2504
  24068294.2554    2037560.96445   1587706.57745                  24068303.4704
        11.5004         11.5004
 00  5  8 15 10 15.0010000  0  7G 2G 4G 7G 8G 9G24G26
  21806176.7394     909030.05247    708333.04247                  21806184.4424
        27.7504         25.7504
  21971648.9194   -2662387.83047  -2074588.01646                  21971656.5634
        24.5004         22.0004
  21033911.7784     923103.50848    719300.24047                  21033918.6734
        30.5004         29.2504
  24410193.0524    3528557.27645   2720159.58745                  24410201.5754
        10.2504          8.7504
  22657422.0364   -2278745.50647  -1775645.52946                  22657429.4814
        21.0004         20.0004
  24559640.1144     -91852.18444
         6.5004
  24075116.6854    2073411.97045   1615642.36945                  24075125.7714
        11.0004         11.2504
 00  5  8 15 10 30.0010000  0  7G 2G 4G 7G 8G 9G24G26
  21809350.9114     925710.32947    721330.62447                  21809358.4504
        27.7504         25.7504
  21963803.4274   -2703616.48247  -2106714.21646                  21963811.1304
        24.5004         22.2504
  21037221.9354     940498.22948    732854.55747                  21037228.7314
        30.7504         29.5004
  24421389.7714    3587397.75845   2766009.21245                  24421398.8454
         9.5004          9.0004
  22650807.7394   -2313504.05747  -1802730.11346                  22650815.4074
        21.0004         20.2504
  24549554.3724    -144849.54245
         7.5004
  24081948.0994    2109312.91245   1643617.07145                  24081957.7594
        11.0004         11.2504
 00  5  8 15 10 45.0010000  0  7G 2G 4G 7G 8G 9G24G26
  21812536.4274     942449.28947    734373.94347                  21812543.9784
        27.7504         25.7504
  21955974.5674   -2744757.76647  -2138772.33146                  21955982.1884
        24.7504         22.2504
  21040545.1224     957961.41748    746462.23147                  21040552.0994
        30.5004         29.2504
  24432591.3254    3646262.45445   2811877.76345                  24432600.3644
         9.0004          8.2504
  22644210.6534   -2348171.29147  -1829743.52946                  22644218.2394
        21.2504         20.2504
  24539469.6534    -197847.35645
         8.0004
  24088790.0214    2145266.78945   1671632.99645                  24088799.3644
        11.0004         11.7504
 00  5  8 15 11  0.0010000  0  7G 2G 4G 7G 8G 9G24G26
  21815732.2244     959244.13648    747460.79847                  21815739.6924
        28.0004         25.7504
  21948161.9664   -2785814.17947  -2170764.31946                  21948169.5754
        25.2504         22.2504
  21043880.6694     975489.90448    760120.77747                  21043887.8334
        30.5004         29.2504
  24443796.7084    3705148.25645   2857762.68045                  24443808.0444
         8.2504          8.0004
  22637630.6144   -2382749.74047  -1856687.76346                  22637638.2124
        21.2504         20.2504
  24529383.8334    -250848.23245    -35791.14455                  24529396.6224
         8.5004          8.0004
  24095641.3254    2181270.28845   1699687.62045                  24095651.3024
        11.0004         11.5004
 00  5  8 15 11 15.0010000  0  7G 2G 4G 7G 8G 9G24G26
  21818938.5834     976093.89248    760590.45147                  21818946.0404
        28.2504         25.7504
  21940365.2784   -2826786.55247  -2202690.82246                  21940372.8174
        25.2504         22.7504
  21047228.3724     993082.58648    773829.34447                  21047235.5604
        30.5004         29.2504
  24455006.2714    3764053.90645   2903663.10045                  24455017.4784
         7.5004          8.5004
  22631067.2554   -2417240.11347  -1883563.38146                  22631074.7124
        21.5004         20.2504
  24519297.1694    -303852.86945    -77093.45145                  24519308.5754
         8.7504          8.7504
  24102502.1064    2217322.06745   1727779.83945                  24102512.4584
        10.7504         11.2504
 00  5  8 15 11 30.0010000  0  7G 2G 4G 7G 8G 9G24G26
  21822155.6384     992999.11248    773763.31146                  21822163.0954
        28.5004         25.5004
  21932584.4974   -2867673.86747  -2234551.04446                  21932591.9424
        25.5004         22.7504
  21050588.4894    1010739.67448    787588.10547                  21050595.5014
        30.5004         29.2504
  24466219.2864    3822979.42144   2949578.94845                  24466229.1694
         7.2504          7.7504
  22624520.9504   -2451641.71547  -1910369.80846                  22624528.3254
        21.5004         20.2504
  24509210.1064    -356860.32845   -118397.96645                  24509222.4034
         8.5004          9.7504
  24109371.7784    2253422.24545   1755909.78945                  24109382.7284
        11.0004         11.5004
 00  5  8 15 11 45.0010000  0  7G 2G 4G 7G 8G 9G24G26
  21825383.6774    1009962.85948    786981.78247                  21825391.1344
        28.2504         25.7504
  21924820.7864   -2908472.85647  -2266342.43946                  21924828.3494
        25.7504         23.0004
  21053961.2634    1028464.01448    801399.26547                  21053968.2514
        30.5004         29.2504
  24477436.8334    3881927.61644   2995512.50945                  24477445.6264
         7.0004          7.7504
  22617992.2084   -2485951.20447  -1937104.47046                  22617999.4544
        21.7504         20.5004
  24499123.4034    -409867.48645   -159702.24045                  24499134.8684
         8.0004          9.2504
  24116250.9274    2289573.42645   1784079.48745                  24116260.6104
        11.0004         11.2504
 00  5  8 15 12  0.0010000  0  7G 2G 4G 7G 8G 9G24G26
  21828622.4664    1026981.69248    800243.18946                  21828629.8644
        28.0004         25.5004
  21917072.9504   -2949186.72447  -2298067.50346                  21917080.4894
        26.0004         23.0004
  21057346.2244    1046251.81548    815259.88047                  21057353.0324
        30.2504         29.5004
  24488658.1224    3940894.66344   3041460.74245                  24488669.0364
         7.0004          7.0004
  22611480.0524   -2520171.88047  -1963769.93146                  22611487.4504
        21.7504         20.5004
  24489035.8564    -462877.46545   -201008.70345                  24489046.9814
         8.0004          8.7504
  24123139.4424    2325771.71645   1812285.87546                  24123149.1264
        11.5004         12.0004
 00  5  8 15 12 15.0010000  0  7G 2G 4G 7G 8G 9G24G26
  21831871.3564    1044055.08448    813547.09847                  21831878.8964
        28.5004         25.7504
  21909341.6774   -2989815.64547  -2329726.37746                  21909349.2394
        26.0004         23.0004
  21060743.0054    1064102.38248    829169.40247                  21060750.0524
        30.2504         29.2504
  24499882.4424    3999879.73644   3087422.98145                  24499892.8764
         7.2504          7.5004
  22604985.0524   -2554304.04247  -1990366.40946                  22604992.1464
        22.0004         20.7504
  24478947.5914    -515890.51145   -242317.57745                  24478958.7044
         8.0004          9.2504
  24130036.5674    2362016.14345   1840528.22545                  24130045.5014
        11.5004         11.7504
 00  5  8 15 12 30.0010000  0  7G 2G 4G 7G 8G 9G24G26
  21835131.1464    1061185.70048    826895.59846                  21835138.6384
        28.0004         25.5004
  21901626.9504   -3030356.57047  -2361316.68646                  21901634.4424
        26.0004         23.0004
  21064152.2634    1082018.08648    843129.67647                  21064159.2634
        30.5004         29.2504
  24511111.4194    4058885.08045   3133401.11345                  24511122.2394
         7.7504          7.2504
  22598506.9274   -2588344.78947  -2016891.66546                  22598514.3724
        21.7504         20.5004
  24468859.5604    -568903.71645   -283626.57345                  24468870.5794
         8.5004          9.5004
  24136942.6614    2398308.94445   1868808.25746                  24136951.9934
        11.0004         12.0004
 00  5  8 15 12 45.0010000  0  7G 2G 4G 7G 8G 9G24G26
  21838401.9354    1078373.94448    840289.00846                  21838409.3564
        28.2504         25.5004
  21893929.1774   -3070809.04847  -2392838.07446                  21893936.9854
        26.0004         23.2504
  21067573.9274    1099998.94648    857140.72347                  21067580.8334
        30.5004         29.2504
  24522344.0754    4117910.64645   3179394.92545                  24522354.7904
         8.0004          7.7504
  22592046.9194   -2622293.54747  -2043345.22946                  22592054.3174
        21.5004         20.7504
  24458771.9974    -621916.40045   -324935.15745                  24458783.0404
         8.2504          9.2504
  24143858.5214    2434649.99645   1897125.90245                  24143868.6854
        11.0004         11.7504
 00  5  8 15 13  0.0010000  0  7G 2G 4G 7G 8G 9G24G26
  21841683.3174    1095616.70148    853724.90146                  21841690.8214
        28.0004         25.5004
  21886247.5284   -3111175.82647  -2424292.68346                  21886255.2084
        26.0004         23.2504
  21071007.3884    1118041.72048    871200.01347                  21071014.2204
        30.5004         29.2504
  24533579.5834    4176953.13845   3225401.99545                  24533590.7434
         8.0004          8.2504
  22585603.8724   -2656153.20547  -2069729.37846                  22585611.0244
        22.0004         20.7504
  24448682.8564    -674931.59145   -366245.66545                  24448694.0634
         7.7504          8.7504
  24150782.1924    2471035.90145   1925478.50045                  24150791.5954
        11.0004         11.5004
 00  5  8 15 13 15.0010000  0  7G 2G 4G 7G 8G 9G24G26
  21844974.9584    1112914.81248    867203.92646                  21844982.2394
        28.2504         25.5004
  21878582.5364   -3151455.75147  -2455679.60646                  21878589.9704
        26.2504         23.2504
  21074452.7474    1136146.88048    885307.92147                  21074459.6064
        30.7504         29.2504
  24544818.0834    4236012.91644   3271422.48945                  24544829.7004
         7.2504          8.0004
  22579177.3884   -2689922.77147  -2096043.31846                  22579184.8214
        22.0004         20.2504
  24438594.8884    -727948.12045   -407557.25145                  24438605.6264
         8.0004          9.2504
  24157715.2474    2507466.85545   1953866.18445                  24157725.0834
        11.2504         11.7504
 00  5  8 15 13 30.0010000  0  7G 2G 4G 7G 8G 9G24G26
  21848278.5284    1130274.81948    880731.17646                  21848286.0324
        28.5004         25.5004
  21870935.2314   -3191642.16347  -2486993.67646                  21870942.6774
        26.0004         23.2504
  21077911.0674    1154320.65548    899469.28947                  21077917.7714
        30.7504         29.2504
  24556060.0834    4295096.22544   3317461.29745                  24556072.1104
         7.2504          8.5004
  22572769.7784   -2723595.42247  -2122281.74146                  22572777.0014
        22.0004         20.7504
  24428507.0444    -780959.24645   -448864.58545                  24428517.9814
         8.0004          9.5004
  24164657.2864    2543948.95645   1982293.72045                  24164667.1814
        11.2504         11.7504
 00  5  8 15 13 45.0010000  0  7G 2G 4G 7G 8G 9G24G26
  21851593.2784    1147693.29048    894303.98047                  21851600.7124
        28.7504         25.7504
  21863305.3024   -3231737.92447  -2518237.09246                  21863312.9354
        26.2504         23.2504
  21081381.8104    1172559.36848    913681.25547                  21081388.6184
        30.7504         29.2504
  24567307.8334    4354199.22945   3363515.47045                  24567317.0014
         7.5004          8.5004
  22566379.7004   -2757174.32347  -2148447.11246                  22566386.9354
        21.7504         20.7504
  24418419.6224    -833968.04345   -490170.12545                  24418429.1184
         8.2504          9.0004
  24171609.1614    2580478.45445   2010758.21446                  24171618.9154
        11.0004         12.0004
 00  5  8 15 14  0.0010000  0  7G 2G 4G 7G 8G 9G24G26
  21854918.7474    1165168.88948    907921.30546                  21854926.2744
        28.5004         25.5004
  21855692.2004   -3271744.37547  -2549410.93446                  21855699.7744
        26.2504         23.2504
  21084864.5134    1190861.47948    927942.62647                  21084871.4194
        30.5004         29.2504
  24578558.7474    4413320.24345   3409583.62745                  24578570.6694
         8.0004          9.2504
  22560007.7554   -2790660.66547  -2174540.36546                  22560014.7674
        22.0004         21.0004
  24408333.2554    -886975.54145   -531474.65345                  24408344.2284
         7.7504          8.5004
  24178569.2944    2617053.58645   2039258.24345                  24178579.3764
        11.5004         11.5004
 00  5  8 15 14 15.0010000  0  7G 2G 4G 7G 8G 9G24G26
  21858254.6614    1182699.15148    921581.22447                  21858262.0834
        28.7504         25.7504
  21848095.7864   -3311663.47547  -2580516.70846                  21848103.3374
        26.2504         23.2504
  21088358.9894    1209224.19548    942251.22047                  21088365.8604
        30.5004         29.5004
  24589812.1384    4472456.35245   3455663.60045                  24589822.9354
         9.0004          9.2504
  22553652.4504   -2824056.74047  -2200563.27246                  22553659.6614
        22.2504         20.7504
  24398245.5524    -939984.00945   -572779.94745                  24398256.0914
         7.5004          9.0004
  24185537.4194    2653671.34045   2067791.48845                  24185546.5404
        11.2504         10.7504
 00  5  8 15 14 30.0010000  0  7G 2G 4G 7G 8G 9G24G26
  21861601.0754    1200283.79448    935283.52046                  21861608.4974
        28.5004         25.5004
  21840516.2714   -3351495.47847  -2611554.61146                  21840523.5634
        26.2504         22.7504
  21091864.6534    1227646.96148    956606.60847                  21091871.6424
        30.5004         29.0004
  24601068.0604    4531606.96245   3501754.90245                  24601079.2084
         9.2504          9.5004
  22547314.8724   -2857362.69147  -2226515.96246                  22547322.1184
        22.2504         20.7504
  24388158.4504    -992993.59644   -614086.13445                  24388169.1304
         7.2504          8.5004
  24192513.0134    2690330.99545   2096357.38945                  24192522.0174
        11.0004         11.2504
 00  5  8 15 14 45.0010000  0  7G 2G 4G 7G 8G 9G24G26
  21864958.0754    1217925.41648    949030.21147                  21864965.5324
        28.7504         26.0004
  21832953.4114   -3391237.34047  -2642522.27146                  21832960.7864
        26.7504         23.2504
  21095382.2944    1246132.04448    971010.55347                  21095389.2944
        30.7504         29.2504
  24612327.5444    4590774.37145   3547859.25945                  24612338.0604
         9.7504         10.0004
  22540994.4354   -2890575.68847  -2252396.21446                  22541001.7044
        22.5004         21.0004
  24378071.1304   -1046001.34944   -655390.84045                  24378080.6854
         6.7504          8.7504
  24199497.7634    2727034.70245   2124957.58845                  24199508.3494
        11.2504         11.2504
 00  5  8 15 15  0.0010000  0  7G 2G 4G 7G 8G 9G24G26
  21868326.2634    1235625.05048    962822.10447                  21868333.5794
        29.0004         25.7504
  21825408.3024   -3430887.67147  -2673418.61346                  21825415.5604
        27.0004         23.5004
  21098911.7714    1264680.31648    985463.73547                  21098918.8764
        30.7504         29.5004
  24623590.1304    4649959.26745   3593977.25845                  24623602.4854
         9.2504          9.7504
  22534692.3104   -2923694.50347  -2278203.08346                  22534699.5674
        22.0004         21.2504
  24367984.1064   -1099006.02344   -696693.15045                  24367994.3644
         7.0004          8.7504
  24206490.3104    2763783.13645   2153592.70245                  24206500.0754
        10.7504         11.0004
 00  5  8 15 15 15.0010000  0  7G 2G 4G 7G 8G 9G24G26
  21871705.0834    1253381.46348    976658.24847                  21871712.3414
        28.7504         25.7504
  21817880.3644   -3470447.57547  -2704244.49546                  21817887.6814
        27.2504         23.5004
  21102453.1384    1283290.18548    999964.91847                  21102460.0794
        30.7504         29.5004
  24634855.3414    4709159.96845   3640107.54145                  24634866.7004
         8.5004          9.5004
  22528407.6304   -2956720.15247  -2303937.34346                  22528414.6884
        22.0004         21.2504
  24357898.2634   -1152008.47544   -737993.75945                  24357911.2164
         7.0004          8.2504
  24213492.2554    2800574.54345   2182261.25945                  24213502.7244
        11.0004         11.2504
 00  5  8 15 15 30.0010000  0  7G 2G 4G 7G 8G 9G24G26
  21875094.9424    1271194.66148    990538.63447                  21875102.5874
        28.7504         26.0004
  21810369.5214   -3509916.77447  -2734999.70346                  21810376.6494
        26.7504         23.2504
  21106006.2164    1301961.43648   1014513.93047                  21106013.2984
        30.5004         29.2504
  24646123.9034    4768376.12345   3686249.86445                  24646135.2044
         9.0004          9.5004
  22522140.7474   -2989652.40147  -2329598.83746                  22522148.2514
        22.2504         21.5004
  24347813.3884   -1205008.52844   -779292.43745                  24347826.1654
         7.2504          8.5004
  24220501.2634    2837408.41245   2210962.90445                  24220511.3454
        10.7504         11.2504
 00  5  8 15 15 45.0010000  0  7G 2G 4G 7G 8G 9G24G26
  21878495.8254    1289066.21948   1004464.49247                  21878503.4114
        29.0004         25.7504
  21802876.3724   -3549293.34647  -2765682.73346                  21802883.8294
        27.2504         23.5004
  21109571.2944    1320695.35748   1029111.77747                  21109578.2944
        30.5004         29.0004
  24657395.9664    4827608.98545   3732405.22845                  24657406.3414
         9.5004         10.0004
  22515892.1924   -3022489.52247  -2355186.19746                  22515899.6144
        22.2504         21.7504
  24337727.6614   -1258004.53444   -820588.02145                  24337739.6654
         7.2504          8.2504
  24227518.9194    2874286.01345   2239698.62145                  24227529.1064
        10.2504         10.5004
 00  5  8 15 16  0.0010000  0  7G 2G 4G 7G 8G 9G24G26
  21881907.3104    1306993.48248   1018433.76547                  21881914.8724
        28.5004         25.7504
  21795400.3964   -3588579.90547  -2796295.62646                  21795407.9234
        27.2504         23.5004
  21113147.5674    1339488.83848   1043756.03347                  21113154.3644
        30.7504         29.2504
  24668669.4744    4886855.48745   3778571.22345                  24668681.4894
         9.2504         10.0004
  22509661.1064   -3055233.95147  -2380701.32746                  22509668.6694
        22.2504         21.5004
  24327643.1464   -1310998.78145   -861882.22745                  24327652.5484
         7.5004          8.0004
  24234543.9664    2911204.04545   2268465.85145                  24234554.1184
        10.2504         11.0004
 00  5  8 15 16 15.0010000  0  7G 2G 4G 7G 8G 9G24G26
  21885329.6924    1324979.35248   1032448.69947                  21885337.5364
        28.5004         25.7504
  21787942.2784   -3627772.97847  -2826835.67346                  21787949.5954
        27.0004         23.2504
  21116735.7554    1358344.81348   1058448.98247                  21116742.5404
        30.7504         29.2504
  24679947.7004    4946118.26345   3824749.88245                  24679958.6144
         9.2504         10.0004
  22503448.2634   -3087882.47847  -2406141.73546                  22503455.6964
        22.2504         21.5004
  24317560.4504   -1363988.02845   -903172.48145                  24317570.9784
         8.0004          8.7504
  24241577.5674    2948165.09245   2297266.60945                  24241587.7314
        10.5004         11.2504
 00  5  8 15 16 30.0010000  0  7G 2G 4G 7G 8G 9G24G26
  21888764.2784    1343027.90348   1046512.47847                  21888772.0994
        28.2504         25.7504
  21780502.4274   -3666868.39547  -2857299.62346                  21780509.7314
        26.7504         23.2504
  21120336.4584    1377266.89048   1073193.44147                  21120343.1734
        31.0004         29.2504
  24691228.6224    5005400.94245   3870944.06145                  24691238.9624
         8.5004          9.7504
  22497254.4894   -3120430.84747  -2431504.09646                  22497261.9814
        22.2504         21.5004
  24307478.9894   -1416967.97145   -944455.57545                  24307488.6614
         8.7504          8.7504
  24248619.9424    2985172.77745   2326103.68245                  24248630.7044
        10.0004         10.7504
 00  5  8 15 16 45.0010000  0  7G 2G 4G 7G 8G 9G24G26
  21892208.5754    1361128.22948   1060616.60147                  21892216.3844
        28.2504         25.7504
  21773079.3414   -3705876.67947  -2887695.67946                  21773086.5174
        27.0004         23.2504
  21123947.7714    1396243.92748   1087980.72947                  21123954.3924
        30.7504         29.2504
  24702511.7164    5064692.22945   3917144.90345                  24702522.3604
         8.7504          9.0004
  22491077.8494   -3152889.82147  -2456796.79946                  22491085.4934
        22.5004         22.0004
  24297396.5914   -1469949.28745   -985739.67745                  24297406.6614
         8.7504          9.2504
  24255669.2554    3022215.81145   2354968.31245                  24255679.3844
        10.5004         10.5004
 00  5  8 15 17  0.0010000  0  7G 2G 4G 7G 8G 9G24G26
  21895664.1774    1379285.77648   1074765.31647                  21895671.9384
        28.2504         25.7504
  21765674.0914   -3744792.21647  -2918019.46146                  21765681.4894
        27.0004         23.5004
  21127570.4894    1415281.15048   1102814.91147                  21127577.1224
        31.0004         29.0004
  24713797.0444    5123997.34745   3963356.59745                  24713807.1494
         8.0004          8.2504
  22484919.1854   -3185253.76947  -2482015.45946                  22484926.9354
        22.2504         21.7504
  24287314.8104   -1522926.32645  -1027020.46445                  24287324.7864
         9.2504          9.2504
  24262725.9974    3059299.13145   2383864.35545                  24262735.7744
        10.5004         11.0004
 00  5  8 15 17 15.0010000  0  7G 2G 4G 7G 8G 9G24G26
  21899129.9664    1397498.80848   1088957.26147                  21899137.7284
        28.2504         25.7504
  21758286.1694   -3783616.33147  -2948272.00346                  21758293.6734
        27.0004         23.7504
  21131204.1774    1434376.57748   1117694.45047                  21131210.9034
        31.0004         29.0004
  24725084.6774    5183314.16045   4009577.34845                  24725096.0014
         7.7504          7.7504
  22478778.1384   -3217524.23647  -2507161.26846                  22478785.8414
        22.5004         21.7504
  24277234.3414   -1575900.37545  -1068298.94245                  24277245.1614
         9.2504          9.0004
  24269789.8564    3096420.57645   2412790.09145                  24269800.3024
        10.7504         11.0004
 00  5  8 15 17 30.0010000  0  7G 2G 4G 7G 8G 9G24G26
  21902607.2944    1415771.74848   1103195.88447                  21902614.9154
        28.2504         25.7504
  21750916.3884   -3822344.47247  -2978449.76146                  21750923.7984
        27.5004         23.7504
  21134849.8104    1453534.36748   1132622.57847                  21134856.6064
        31.2504         29.0004
  24736375.0214    5242646.77245   4055810.41045                  24736386.3924
         7.7504          8.0004
  22472655.9424   -3249696.46047  -2532230.53046                  22472663.5524
        22.2504         22.0004
  24267155.2084   -1628866.89245  -1109571.51345                  24267166.8024
        10.0004          9.5004
  24276862.0134    3133584.13245   2441748.65045                  24276871.4504
        10.7504         11.0004
 00  5  8 15 17 45.0010000  0  7G 2G 4G 7G 8G 9G24G26
  21906095.1224    1434100.88048   1117478.29046                  21906102.7674
        28.2504         25.5004
  21743564.2944   -3860980.02348  -3008555.37846                  21743571.6224
        28.0004         24.0004
  21138506.5054    1472750.44448   1147596.12647                  21138513.2784
        31.5004         29.2504
  24747668.5134    5301991.04745   4102052.58845                  24747682.4624
         8.0004          8.0004
  22466551.8804   -3281774.06847  -2557226.06446                  22466559.5014
        22.2504         22.0004
  24257076.5364   -1681829.25145  -1150840.84345                  24257088.3534
         9.7504         10.0004
  24283941.4424    3170785.65245   2470736.79545                  24283950.4584
        11.0004         11.5004
 00  5  8 15 18  0.0010000  0  7G 2G 4G 7G 8G 9G24G26
  21909593.8494    1452487.08348   1131805.17246                  21909601.4814
        28.2504         25.2504
  21736230.1614   -3899521.78848  -3038587.91846                  21736237.3964
        28.2504         24.2504
  21142174.4584    1492025.55948   1162615.67647                  21142181.1494
        31.5004         29.2504
  24758963.6694    5361347.59445   4148304.37345                  24758974.1494
         8.0004          7.5004
  22460465.7864   -3313755.96147  -2582147.02146                  22460473.2904
        22.5004         21.5004
  24246999.3254   -1734786.43545  -1192106.17845                  24247010.2284
         9.2504         10.0004
  24291028.3964    3208025.58945   2499754.84945                  24291036.8024
        11.0004         10.7504
 00  5  8 15 18 15.0010000  0  7G 2G 4G 7G 8G 9G24G26
  21913103.6774    1470930.65348   1146176.75646                  21913111.4274
        28.0004         25.5004
  21728913.7554   -3937969.08748  -3068546.84646                  21728921.0014
        28.2504         24.2504
  21145853.7944    1511359.71148   1177681.23447                  21145860.6264
        31.5004         29.2504
  24770261.5914    5420716.29745   4194565.53845                  24770271.4974
         7.5004          7.7504
  22454398.0994   -3345641.44147  -2606992.84546                  22454405.4504
        22.7504         22.0004
  24236923.3804   -1787737.74645  -1233366.89045                  24236935.0564
         9.7504          9.7504
  24298122.0284    3245303.82845   2528802.77045                  24298131.5484
        11.2504         11.2504
 00  5  8 15 18 30.0010000  0  7G 2G 4G 7G 8G 9G24G26
  21916624.9814    1489435.20447   1160595.85846                  21916632.7314
        27.7504         25.2504
  21721616.3174   -3976318.23048  -3098429.28146                  21721623.6814
        28.5004         24.5004
  21149544.7474    1530756.12348   1192795.30147                  21149551.5214
        31.5004         29.5004
  24781561.8414    5480100.43544   4240838.76545                  24781575.4154
         6.7504          6.5004
  22448349.4974   -3377426.95647  -2631760.77146                  22448357.0954
        22.7504         22.0004
  24226848.9114   -1840679.38045  -1274620.08045                  24226858.2084
        10.0004          9.5004
  24305223.7864    3282623.42045   2557882.91745                  24305234.3724
        11.0004         11.0004
 00  5  8 15 18 45.0010000  0  7G 2G 4G 7G 8G 9G24G26
  21920157.0134    1507996.26547   1175058.99646                  21920164.6574
        27.7504         25.2504
  21714336.4814   -4014573.50948  -3128238.58046                  21714343.7514
        28.5004         24.5004
  21153246.7634    1550210.08848   1207954.21747                  21153253.7044
        31.5004         29.5004
  24792863.6304    5539495.02544   4287120.17345                  24792874.8134
         6.5004          7.2504
  22442319.4274   -3409116.65147  -2656454.03746                  22442327.0134
        22.7504         21.5004
  24216775.1924   -1893615.58945  -1315869.04845                  24216785.9664
        10.5004         10.0004
  24312332.4034    3319979.44145   2586991.44845                  24312341.9704
        11.0004         10.5004
 00  5  8 15 19  0.0010000  0  7G 2G 4G 7G 8G 9G24G26
  21923700.5604    1526618.06147   1189569.45646                  21923708.0754
        27.7504         25.2504
  21707075.4194   -4052730.29548  -3157971.13846                  21707082.5954
        28.7504         24.7504
  21156960.2944    1569725.63448   1223161.11547                  21156967.3534
        31.2504         29.5004
  24804169.4584    5598904.03144   4333412.78745                  24804178.0994
         7.0004          7.5004
  22436308.1384   -3440706.09947  -2681069.18446                  22436315.7354
        22.7504         21.5004
  24206703.8254   -1946541.84945  -1357110.24445                  24206714.0714
        10.5004          9.7504
  24319448.2164    3357375.67545   2616131.28045                  24319457.9934
        10.2504         11.2504
 00  5  8 15 19 15.0010000  0  7G 2G 4G 7G 8G 9G24G26
  21927256.0134    1545301.40147   1204127.87346                  21927263.7514
        27.7504         25.2504
  21699833.3964   -4090787.50448  -3187626.10146                  21699840.7594
        28.7504         24.7504
  21160685.8724    1589303.25648   1238416.38447                  21160692.9544
        31.0004         29.5004
  24815477.7004    5658327.96444   4379716.99645                  24815485.7434
         7.0004          6.7504
  22430316.2394   -3472194.35347  -2705605.48446                  22430323.6494
        22.5004         21.7504
  24196634.3024   -1999457.12245  -1398342.86845                  24196644.6184
        10.0004         10.2504
  24326572.2314    3394812.65145   2645302.91945                  24326581.3884
        10.2504         11.0004
 00  5  8 15 19 30.0010000  0  7G 2G 4G 7G 8G 9G24G26
  21930822.0604    1564041.53547   1218730.54746                  21930829.6814
        27.5004         25.0004
  21692609.4974   -4128749.54148  -3217206.90046                  21692616.7554
        28.5004         25.0004
  21164422.2084    1608937.95448   1253716.13147                  21164429.2904
        30.7504         29.2504
  24826787.4584    5717761.64545   4426028.90745                  24826798.6654
         7.5004          5.2504
  22424342.4034   -3503585.95447  -2730066.46146                  22424349.7204
        22.7504         21.7504
  24186566.3724   -2052365.92945  -1439570.47445                  24186576.7474
         9.5004         10.2504
  24333702.8644    3432284.97145   2674502.05045                  24333712.0214
        10.0004         11.0004
 00  5  8 15 19 45.0010000  0  7G 2G 4G 7G 8G 9G24G26
  21934399.4194    1582839.83947   1233378.54546                  21934406.9584
        27.5004         25.0004
  21685403.9034   -4166614.99748  -3246712.44846                  21685411.2674
        29.0004         25.2504
  21168169.7714    1628630.73848   1269061.13947                  21168176.8764
        30.7504         29.2504
  24838099.9584    5777206.07645   4472349.11545                  24838110.3804
         7.7504          6.5004
  22418387.4354   -3534879.36247  -2754450.92846                  22418394.6344
        22.7504         21.7504
  24176499.4114   -2105266.75245  -1480791.85045                  24176510.4664
        10.7504         10.2504
  24340840.8884    3469793.58245   2703729.45545                  24340851.2164
        10.0004         10.5004
 00  5  8 15 20  0.0010000  0  7G 2G 4G 7G 8G 9G24G26
  21937988.0674    1601699.01947   1248073.97746                  21937995.7944
        27.2504         25.0004
  21678217.3104   -4204380.68848  -3276140.25546                  21678224.6034
        28.7504         25.2504
  21171928.4504    1648384.15948   1284453.39647                  21171935.5794
        30.7504         29.0004
  24849414.2944    5836663.66545   4518679.62645                  24849420.5404
         8.2504          6.5004
  22412451.7944   -3566071.61647  -2778756.57546                  22412459.1574
        23.0004         21.7504
  24166434.6064   -2158156.37045  -1522004.49545                  24166446.4934
        11.2504         10.5004
  24347986.1144    3507340.81445   2732986.97745                  24347997.5444
        10.2504         10.7504
 00  5  8 15 20 15.0010000  0  7G 2G 4G 7G 8G 9G24G26
  21941588.0214    1620616.43147   1262814.77846                  21941595.7124
        27.2504         25.0004
  21671049.1464   -4242049.19348  -3305492.32746                  21671056.6144
        28.2504         25.0004
  21175698.4664    1668195.18348   1299890.53947                  21175705.4894
        30.5004         29.2504
  24860730.3964    5896131.31045   4565017.91345                  24860740.1384
         8.7504          7.2504
  22406534.9664   -3597165.27847  -2802985.39646                  22406542.3764
        23.0004         22.0004
  24156371.9504   -2211037.27745  -1563210.35745                  24156381.5874
        11.2504         10.2504
  24355138.0284    3544923.55445   2762272.17145                  24355148.1574
         9.7504         10.2504
 00  5  8 15 20 30.0010000  0  7G 2G 4G 7G 8G 9G24G26
  21945198.7164    1639590.84947   1277600.01146                  21945206.5714
        27.0004         25.0004
  21663899.4034   -4279621.43148  -3334769.38746                  21663906.8494
        28.5004         25.2504
  21179479.0364    1688062.38848   1315371.45947                  21179486.1184
        30.5004         29.0004
  24872048.2084    5955607.54945   4611362.90245                  24872058.4074
         8.7504          7.2504
  22400636.4744   -3628161.28347  -2827138.12046                  22400643.4854
        23.5004         22.0004
  24146309.9664   -2263910.35245  -1604410.11345                  24146319.8134
        10.7504          9.7504
  24362295.9894    3582540.13745   2791583.72245                  24362306.5524
         9.5004         10.7504
 00  5  8 15 20 45.0010000  0  7G 2G 4G 7G 8G 9G24G26
  21948820.9584    1658625.70147   1292432.33546                  21948828.6734
        27.5004         25.0004
  21656768.7084   -4317093.58148  -3363968.45846                  21656776.1884
        28.7504         25.5004
  21183270.9974    1707988.97748   1330898.65247                  21183278.1734
        30.7504         29.0004
  24883368.7554    6015095.40045   4657716.96845                  24883380.3254
         8.7504          7.2504
  22394757.4584   -3659056.01947  -2851211.93346                  22394764.6104
        23.2504         22.2504
  24136250.5604   -2316772.09545  -1645601.03045                  24136262.2714
        10.7504         10.0004
  24369461.9584    3620193.54545   2820923.96245                  24369471.6654
         9.7504          9.5004
 00  5  8 15 21  0.0010000  0  7G 2G 4G 7G 8G 9G24G26
  21952454.3804    1677719.28247   1307310.42146                  21952461.8724
        27.2504         25.0004
  21649656.6534   -4354467.24748  -3393090.79146                  21649664.0284
        28.7504         25.5004
  21187073.9424    1727972.85148   1346470.48147                  21187080.8964
        30.7504         29.2504
  24894690.9194    6074592.71345   4704078.43245                  24894702.0444
         8.7504          7.2504
  22388897.4194   -3689851.03147  -2875208.04246                  22388904.4194
        23.5004         22.0004
  24126193.6144   -2369623.86245  -1686784.18945                  24126204.6224
        10.7504          9.7504
  24376634.2004    3657881.55145   2850291.16845                  24376644.3644
        10.0004          9.7504
 00  5  8 15 21 15.0010000  0  7G 2G 4G 7G 8G 9G24G26
  21956098.9424    1696871.15147   1322233.92846                  21956106.6814
        27.2504         25.2504
  21642563.3644   -4391742.38248  -3422136.33846                  21642570.7514
        28.5004         25.5004
  21190887.4194    1748013.47448   1362086.52747                  21190894.3374
        31.0004         29.0004
  24906015.1774    6134098.77045   4750446.63345                  24906025.8924
         9.0004          8.7504
  22383056.0364   -3720546.43547  -2899126.54046                  22383063.2474
        23.5004         22.2504
  24116137.9664   -2422465.75245  -1727959.62345                  24116149.0914
        10.5004          9.7504
  24383811.5754    3695603.49945   2879684.84745                  24383822.1384
         9.7504         10.2504
 00  5  8 15 21 30.0010000  0  7G 2G 4G 7G 8G 9G24G26
  21959755.3254    1716085.24147   1337205.91446                  21959763.0874
        27.2504         25.0004
  21635489.8174   -4428914.84248  -3451101.88246                  21635497.2744
        28.7504         25.2504
  21194712.6464    1768114.57448   1377749.70547                  21194719.4194
        31.2504         29.0004
  24917341.0444    6193617.36645   4796824.63245                  24917351.4894
         8.7504          7.7504
  22377234.8104   -3751138.03947  -2922964.14946                  22377241.8454
        23.7504         22.2504
  24106085.4274   -2475293.50845  -1769124.06045                  24106095.6964
        10.0004          9.5004
  24390996.4424    3733362.78845   2909107.60645                  24391005.8564
         9.7504         10.2504
 00  5  8 15 21 45.0010000  0  7G 2G 4G 7G 8G 9G24G26
  21963423.6694    1735362.48747   1352227.11546                  21963431.5244
        27.0004         25.0004
  21628435.9274   -4465983.48948  -3479986.53646                  21628443.3254
        28.7504         25.5004
  21198549.3104    1788276.75248   1393460.47447                  21198555.9314
        31.2504         29.0004
  24928669.3724    6253148.98445   4843212.79945                  24928680.7554
         9.5004          8.7504
  22371433.4114   -3781624.84147  -2946720.09746                  22371440.6104
        23.5004         22.2504
  24096035.3104   -2528106.04345  -1810276.64145                  24096045.8964
         9.7504          9.2504
  24398189.4974    3771159.87345   2938559.82445                  24398199.6384
         9.7504         10.7504
 00  5  8 15 22  0.0010000  0  7G 2G 4G 7G 8G 9G24G26
  21967103.6924    1754701.33447   1367296.31646                  21967111.7124
        26.7504         25.0004
  21621401.3964   -4502949.64548  -3508791.32647                  21621408.8064
        28.7504         25.7504
  21202397.2714    1808498.05448   1409217.31147                  21202403.9854
        31.5004         29.2504
  24940000.3494    6312691.53545   4889609.52245                  24940011.7674
         9.2504          8.7504
  22365651.6144   -3812008.14847  -2970395.39246                  22365658.6964
        23.5004         22.2504
  24085988.4114   -2580904.67645  -1851418.38045                  24085999.6304
         9.7504          9.2504
  24405388.9194    3808992.77945   2968039.92645                  24405399.6694
        10.0004         10.0004
 00  5  8 15 22 15.0010000  0  7G 2G 4G 7G 8G 9G24G26
  21970795.6854    1774102.59747   1382414.15646                  21970803.5874
        26.5004         25.0004
  21614386.8804   -4539812.19048  -3537515.38147                  21614394.4424
        28.7504         25.7504
  21206256.7474    1828779.10548   1425020.70547                  21206263.4624
        31.5004         29.2504
  24951332.8644    6372245.56145   4936015.12845                  24951345.1144
         9.5004          8.7504
  22359889.6854   -3842286.99447  -2993989.30046                  22359896.8964
        23.5004         22.7504
  24075943.6534   -2633688.26345  -1892548.39045                  24075954.8374
         9.5004          9.5004
  24412595.2554    3846861.83045   2997548.24045                  24412604.8334
        10.2504          9.7504
 00  5  8 15 22 30.0010000  0  7G 2G 4G 7G 8G 9G24G26
  21974498.8804    1793563.67847   1397578.60246                  21974506.8994
        27.0004         25.0004
  21607391.2164   -4576573.49048  -3566160.54347                  21607398.6264
        28.5004         26.0004
  21210126.9194    1849116.95248   1440868.35347                  21210133.7634
        31.5004         29.2504
  24962667.5994    6431808.08145   4982427.37545                  24962678.7824
         9.5004          9.2504
  22354147.3174   -3872463.81147  -3017503.70446                  22354154.9034
        23.5004         22.2504
  24065901.6464   -2686459.24445  -1933668.60445                  24065913.4154
         9.7504         10.0004
  24419808.2634    3884763.93545   3027082.26745                  24419818.2394
        10.2504         10.2504
 00  5  8 15 22 45.0010000  0  7G 2G 4G 7G 8G 9G24G26
  21978212.7004    1813079.12347   1412785.41646                  21978220.5564
        26.7504         24.7504
  21600414.1774   -4613238.79348  -3594730.88947                  21600421.6104
        28.5004         26.0004
  21214006.9814    1869506.05548   1456755.95147                  21214013.8414
        31.2504         29.0004
  24974002.0914    6491373.29545   5028841.75445                  24974014.0134
         9.2504          9.2504
  22348423.1384   -3902543.85447  -3040942.68946                  22348430.7124
        23.7504         22.7504
  24055861.1774   -2739222.76445  -1974782.97445                  24055871.0834
         9.5004         10.0004
  24427025.9504    3922693.29845   3056637.55745                  24427035.8214
         9.7504          9.7504
 00  5  8 15 23  0.0010000  0  6G 2G 4G 7G 9G24G26
  21981937.9894    1832655.72847   1428039.87546                  21981945.9744
        26.7504         25.0004
  21593456.4584   -4649800.92348  -3623220.84647                  21593463.9034
        28.2504         26.0004
  21217897.5994    1889952.76448   1472688.42747                  21217904.4584
        31.2504         29.2504
  22342718.8884   -3932520.13447  -3064300.83346                  22342726.1694
        23.2504         22.5004
  24045823.1614   -2791971.74245  -2015886.03045                  24045833.7474
         9.5004          9.5004
  24434249.7164    3960656.24645   3086219.01145                  24434260.2904
        10.0004         10.5004
 00  5  8 15 23 15.0010000  0  6G 2G 4G 7G 9G24G26
  21985674.9744    1852294.55847   1443342.82946                  21985682.9234
        26.7504         24.5004
  21586518.6854   -4686258.55048  -3651629.37047                  21586526.5994
        28.2504         26.2504
  21221799.7634    1910458.05048   1488666.54947                  21221806.7864
        31.0004         29.2504
  22337034.6384   -3962391.39947  -3087577.14346                  22337042.0134
        23.2504         22.5004
  24035787.9114   -2844704.83545  -2056976.70345                  24035798.9664
         9.2504          9.7504
  24441480.0214    3998653.35545   3115827.10645                  24441489.9974
        10.2504         10.7504
 00  5  8 15 23 30.0010000  0  6G 2G 4G 7G 9G24G26
  21989423.9114    1871994.98747   1458693.78146                  21989431.7904
        26.7504         24.7504
  21579600.8024   -4722612.21148  -3679956.87947                  21579608.5754
        28.2504         26.2504
  21225712.7084    1931020.93048   1504689.55047                  21225719.7434
        30.7504         29.2504
  22331369.9114   -3992158.03047  -3110771.92746                  22331377.2744
        23.5004         22.5004
  24025756.0524   -2897422.44445  -2098055.31645                  24025765.8534
         9.2504          9.7504
  24448717.3414    4036683.57545   3145460.98145                  24448727.2244
         9.7504         10.0004
 00  5  8 15 23 45.0010000  0  6G 2G 4G 7G 9G24G26
  21993184.1144    1891754.39547   1474090.68846                  21993192.1104
        26.7504         24.7504
  21572702.2084   -4758864.11748  -3708205.09247                  21572709.9814
        28.2504         26.0004
  21229636.2394    1951638.53448   1520755.19047                  21229643.3214
        30.7504         29.0004
  22325725.2474   -4021822.50547  -3133887.10146                  22325732.9384
        23.7504         22.5004
  24015726.8494   -2950126.96645  -2139123.71645                  24015737.8454
         9.5004         10.0004
  24455959.7864    4074743.92345   3175118.32645                  24455968.9894
         9.7504         10.0004
 00  5  8 15 24  0.0010000  0  6G 2G 4G 7G 9G24G26
  21996956.6144    1911577.54447   1489537.26146                  21996964.5874
        26.5004         24.7504
  21565824.0754   -4795009.25948  -3736370.11847                  21565831.7554
        28.0004         26.0004
  21233570.9194    1972315.32248   1536866.95347                  21233578.1064
        30.7504         29.2504
  22320100.6774   -4051379.82047  -3156918.77846                  22320107.9584
        23.7504         23.0004
  24005701.1614   -3002813.23145  -2180177.91945                  24005712.2044
         9.5004         10.5004
  24463209.7634    4112838.61445   3204802.43345                  24463220.1384
        10.0004         10.0004
 00  5  8 15 24 15.0010000  0  6G 2G 4G 7G 9G24G26
  22000739.4274    1931457.72447   1505028.26846                  22000747.6104
        26.5004         24.7504
  21558964.9114   -4831054.13848  -3764457.01647                  21558972.8024
        28.2504         26.2504
  21237515.5134    1993044.44248   1553019.49047                  21237522.5484
        30.7504         28.7504
  22314495.2554   -4080836.39047  -3179871.94946                  22314502.6064
        24.2504         23.2504
  23995677.3564   -3055487.80745  -2221222.97445                  23995688.5174
         9.2504          9.7504
  24470463.9814    4150960.52445   3234507.76445                  24470474.3684
         9.5004         10.2504
 00  5  8 15 24 30.0010000  0  6G 2G 4G 7G 9G24G26
  22004533.9744    1951397.40547   1520565.64746                  22004542.0404
        26.2504         24.5004
  21552125.4974   -4866996.09748  -3792463.71547                  21552133.1884
        28.2504         26.0004
  21241470.6304    2013828.03948   1569214.48247                  21241477.5954
        30.7504         29.2504
  22308909.7244   -4110189.59547  -3202744.57646                  22308917.0634
        24.5004         23.0004
  23985657.1304   -3108147.85845  -2262256.73745                  23985667.8334
        10.0004         10.2504
  24477724.0834    4189111.77045   3264235.94745                  24477734.4114
         9.7504         10.2504
 00  5  8 15 24 45.0010000  0  6G 2G 4G 7G 9G24G26
  22008339.1924    1971393.88147   1536147.27646                  22008347.4354
        26.5004         24.5004
  21545305.1694   -4902837.45948  -3820392.02647                  21545312.9544
        28.7504         26.0004
  21245435.2634    2034663.11148   1585449.57947                  21245442.3564
        30.7504         29.2504
  22303343.1534   -4139442.07047  -3225538.71746                  22303350.5994
        24.5004         23.2504
  23975638.1464   -3160795.92045  -2303281.16345                  23975648.5214
        10.5004         10.5004
  24484988.5754    4227289.18945   3293984.51945                  24484999.8994
         9.0004         10.5004
 00  5  8 15 25  0.0010000  0  6G 2G 4G 7G 9G24G26
  22012155.4894    1991449.59747   1551775.07046                  22012163.5214
        26.7504         24.7504
  21538504.3494   -4938575.65148  -3848239.94447                  21538511.9704
        29.0004         26.0004
  21249410.2314    2055551.88648   1601726.52247                  21249417.2554
        30.7504         29.0004
  22297796.0284   -4168591.28647  -3248252.39346                  22297803.3684
        24.5004         23.2504
  23965622.3414   -3213429.27545  -2344294.12045                  23965633.3494
        10.7504         11.0004
  24492259.3414    4265494.69845   3323754.98445                  24492269.8454
         9.0004         10.0004
 00  5  8 15 25 15.0010000  0  6G 2G 4G 7G 9G24G26
  22015983.2864    2011563.94547   1567448.55446                  22015991.4934
        27.0004         24.7504
  21531723.1224   -4974211.00948  -3876007.73247                  21531730.6964
        29.0004         26.0004
  21253395.3564    2076493.48848   1618044.63647                  21253402.3334
        30.7504         29.0004
  22292268.7314   -4197637.54147  -3270885.84146                  22292276.0714
        24.7504         23.2504
  23955609.1384   -3266048.11945  -2385295.78445                  23955619.7004
        10.7504         11.0004
  24499534.2314    4303727.28245   3353546.54745                  24499544.1034
         9.0004         10.2504
 00  5  8 15 25 30.0010000  0  6G 2G 4G 7G 9G24G26
  22019822.1224    2031737.45847   1583168.14146                  22019830.2124
        26.7504         24.7504
  21524961.7944   -5009742.56748  -3903694.64347                  21524969.2394
        29.0004         26.2504
  21257390.6064    2097488.21248   1634404.14247                  21257397.5364
        30.7504         29.0004
  22286761.3104   -4226580.00147  -3293438.40346                  22286768.5794
        24.7504         23.5004
  23945599.2394   -3318651.73245  -2426285.55845                  23945609.9784
        11.2504         11.0004
  24506814.8334    4341987.07045   3383359.31145                  24506824.1884
         8.7504         10.2504
 00  5  8 15 25 45.0010000  0  6G 2G 4G 7G 9G24G26
  22023671.5834    2051965.98047   1598930.59146                  22023679.7204
        27.7504         24.7504
  21518219.2084   -5045174.38248  -3931303.81947                  21518226.7944
        29.2504         26.0004
  21261394.8964    2118531.66348   1650801.61547                  21261401.7554
        30.7504         29.0004
  22281272.5914   -4255422.76347  -3315913.28446                  22281279.9894
        24.5004         23.2504
  23935591.4814   -3371244.00246  -2467266.51045                  23935601.3764
        12.0004         11.5004
  24514100.5214    4380269.50545   3413189.71545                  24514110.6144
         8.5004         10.0004
 00  5  8 15 26  0.0010000  0  6G 2G 4G 7G 9G24G26
  22027535.2784    2072268.75647   1614750.89846                  22027543.2744
        27.2504         24.5004
  21511499.5524   -5080486.85648  -3958820.02047                  21511507.0214
        29.7504         26.0004
  21265412.3334    2139642.67448   1667251.73447                  21265419.3104
        31.0004         29.0004
  22275806.8564   -4284146.37147  -3338295.31646                  22275814.1964
        24.7504         23.2504
  23925588.9114   -3423805.48445  -2508223.48645                  23925598.9114
        11.5004         11.7504
  24521392.2474    4418593.23845   3443052.30245                  24521402.1884
         8.2504         10.0004
 00  5  8 15 26 15.0010000  0  6G 2G 4G 7G 9G24G26
  22031411.1614    2092637.02747   1630622.24346                  22031419.0284
        27.2504         24.2504
  21504800.7164   -5115688.60148  -3986249.92547                  21504808.1264
        29.5004         26.2504
  21269440.7164    2160812.26148   1683747.49847                  21269447.7984
        30.7504         29.0004
  22270361.6534   -4312759.34747  -3360591.14346                  22270368.8064
        24.5004         23.5004
  23915591.0754   -3476344.62445  -2549163.01545                  23915601.1924
        11.5004         11.7504
  24528692.2634    4456949.11245   3472939.92145                  24528704.3254
         8.7504          9.7504
 00  5  8 15 26 30.0010000  0  6G 2G 4G 7G 9G24G26
  22035297.9664    2113062.04847   1646537.81046                  22035305.7984
        27.0004         24.5004
  21498121.4814   -5150788.13748  -4013600.19047                  21498128.9974
        29.5004         26.0004
  21273478.5214    2182031.48348   1700281.93647                  21273485.5564
        30.5004         29.0004
  22264936.1144   -4341270.24047  -3382807.42246                  22264943.3964
        24.5004         23.2504
  23905595.8024   -3528869.96645  -2590091.79745                  23905606.3414
        11.5004         11.7504
  24535994.8644    4495328.02145   3502845.51545                  24536004.9584
         8.7504          9.7504
 00  5  8 15 26 45.0010000  0  6G 2G 4G 7G 9G24G26
  22039196.3414    2133548.30147   1662501.09246                  22039204.2084
        27.2504         24.2504
  21491462.6534   -5185780.65848  -4040867.07547                  21491469.8764
        30.0004         26.2504
  21277526.8964    2203304.56748   1716858.34947                  21277533.9784
        30.7504         29.0004
  22259531.2554   -4369674.43747  -3404940.55946                  22259538.5604
        24.5004         23.5004
  23895604.1304   -3581376.61946  -2631006.04945                  23895614.1304
        12.0004         11.5004
  24543304.1064    4533733.94945   3532772.15445                  24543314.9974
         9.0004          9.7504
 00  5  8 15 27  0.0010000  0  6G 2G 4G 7G 9G24G26
  22043102.9354    2154076.64447   1678497.16646                  22043110.9544
        26.5004         24.2504
  21484820.5754   -5220685.16848  -4068065.37147                  21484827.5874
        30.0004         26.2504
  21281581.5444    2224612.13048   1733461.62347                  21281588.6614
        30.5004         29.0004
  22254142.5914   -4397990.87447  -3427005.31646                  22254150.0134
        24.5004         23.5004
  23885612.3964   -3633883.49945  -2671920.44746                  23885622.7244
        11.7504         12.0004
  24550613.5994    4572147.31145   3562704.59145                  24550625.6854
         8.7504          9.5004
 00  5  8 15 27 15.0010000  0  6G 2G 4G 7G 9G24G26
  22047018.8884    2174656.72247   1694533.55546                  22047026.9074
        26.7504         24.2504
  21478197.1854   -5255491.60748  -4095187.24647                  21478204.3964
        30.0004         26.5004
  21285644.6614    2245963.54748   1750099.06747                  21285651.8024
        30.5004         29.0004
  22248772.8024   -4426209.66047  -3448993.97746                  22248780.4114
        24.2504         23.2504
  23875622.1614   -3686380.73745  -2712827.33045                  23875632.3494
        11.5004         11.7504
  24557926.2244    4610577.42245   3592650.07545                  24557936.8334
         8.7504          9.2504
 00  5  8 15 27 30.0010000  0  6G 2G 4G 7G 9G24G26
  22050947.0834    2195298.45847   1710617.98946                  22050955.0794
        26.0004         23.7504
  21471594.1064   -5290189.92548  -4122224.86847                  21471601.3994
        30.2504         26.5004
  21289717.8414    2267368.44748   1766778.19447                  21289724.9814
        30.2504         29.0004
  22243423.3644   -4454320.73847  -3470898.70946                  22243430.5874
        25.0004         23.5004
  23865635.7714   -3738858.18145  -2753718.81345                  23865646.3924
        11.2504         11.5004
  24565244.1464    4649033.55445   3622615.79745                  24565254.0174
         8.7504          9.7504
 00  5  8 15 27 45.0010000  0  6G 2G 4G 7G 9G24G26
  22054886.6224    2216001.66747   1726750.32446                  22054894.7474
        26.2504         24.0004
  21465011.9354   -5324780.06748  -4149178.20847                  21465019.2164
        30.5004         26.5004
  21293801.1144    2288826.47448   1783498.71147                  21293808.3724
        30.5004         29.0004
  22238094.6774   -4482324.10247  -3492719.51346                  22238102.0634
        25.0004         23.7504
  23855653.5444   -3791315.67545  -2794594.73245                  23855664.7984
        11.5004         11.2504
  24572566.7944    4687515.30845   3652601.55145                  24572576.9704
         9.0004          9.2504
 00  5  8 15 28  0.0010000  0  6G 2G 4G 7G 9G24G26
  22058838.8644    2236768.72847   1742932.42246                  22058847.0834
        26.2504         24.0004
  21458450.8884   -5359259.27148  -4176045.09747                  21458458.0874
        30.5004         26.5004
  21297894.9894    2310339.71648   1800262.25547                  21297902.2944
        30.0004         28.7504
  22232786.7474   -4510217.04247  -3514454.27146                  22232794.1574
        25.0004         23.7504
  23845675.4974   -3843750.51446  -2835453.01245                  23845686.7514
        12.0004         11.7504
  24579895.0444    4726024.54045   3682608.67345                  24579905.8414
         9.0004          9.7504
 00  5  8 15 28 15.0010000  0  6G 2G 4G 7G 9G24G26
  22062801.7714    2257594.50747   1759160.26646                  22062810.0604
        26.7504         24.0004
  21451909.9814   -5393632.44948  -4202829.37047                  21451917.0754
        30.5004         26.5004
  21301998.1854    2331902.74648   1817064.59547                  21302005.4664
        30.0004         29.0004
  22227499.0444   -4538004.63547  -3536106.93746                  22227506.4074
        25.2504         23.7504
  23835700.9664   -3896167.65446  -2876297.46845                  23835711.6574
        12.0004         11.7504
  24587227.3644    4764555.66345   3712632.87545                  24587238.8534
         9.0004         10.0004
 00  5  8 15 28 30.0010000  0  6G 2G 4G 7G 9G24G26
  22066776.5604    2278481.71047   1775435.97346                  22066784.7314
        26.2504         24.0004
  21445389.3564   -5427896.73448  -4229528.78647                  21445396.3804
        30.0004         26.7504
  21306111.3334    2353518.07048   1833907.67947                  21306118.6964
        29.7504         29.0004
  22222231.8644   -4565684.05647  -3557675.31446                  22222239.2634
        25.0004         24.0004
  23825730.0284   -3948563.95545  -2917125.73646                  23825740.1344
        11.5004         12.0004
  24594564.6224    4803111.03745   3742675.97845                  24594574.3534
         9.7504          9.5004
 00  5  8 15 28 45.0010000  0  6G 2G 4G 7G 9G24G26
  22070763.9034    2299436.12047   1791764.03946                  22070772.2514
        26.5004         24.2504
  21438891.0834   -5462046.03948  -4256138.61447                  21438898.5284
        30.0004         26.7504
  21310235.7394    2375191.14348   1850795.76547                  21310243.1614
        29.7504         29.0004
  22216986.2084   -4593249.22347  -3579154.66746                  22216993.4424
        25.2504         23.7504
  23815764.8024   -4000933.55345  -2957933.13445                  23815775.0244
        11.7504         11.5004
  24601907.3254    4841695.91645   3772742.06845                  24601917.9464
        10.2504         10.0004
 00  5  8 15 29  0.0010000  0  6G 2G 4G 7G 9G24G26
  22074762.7784    2320449.99947   1808138.45646                  22074770.9504
        26.5004         24.0004
  21432413.0444   -5496087.91448  -4282664.72847                  21432420.3964
        30.2504         26.7504
  21314369.4584    2396914.05848   1867722.68947                  21314376.8564
        29.7504         29.0004
  22211760.9974   -4620707.73047  -3600550.89546                  22211768.3964
        25.2504         24.2504
  23805802.6774   -4053283.75645  -2998725.45145                  23805812.4074
        11.5004         11.7504
  24609253.5214    4880302.16945   3802824.83045                  24609264.1774
        10.0004         10.0004
 00  5  8 15 29 15.0010000  0  6G 2G 4G 7G 9G24G26
  22078772.9974    2341523.99147   1824559.70746                  22078780.9704
        26.5004         24.2504
  21425955.6854   -5530021.50348  -4309106.46347                  21425963.0134
        30.2504         26.7504
  21318512.7634    2418687.14748   1884688.70847                  21318520.1734
        29.7504         28.7504
  22206556.2784   -4648058.78947  -3621863.40446                  22206563.6064
        25.2504         24.0004
  23795844.3644   -4105613.79945  -3039502.05246                  23795855.5604
        11.7504         12.0004
  24616604.1774    4918930.00345   3832924.37945                  24616614.3884
         9.7504          9.7504
 00  5  8 15 29 30.0010000  0  6G 2G 4G 7G 9G24G26
  22082795.6464    2362661.64347   1841030.57146                  22082803.6064
        26.5004         24.0004
  21419519.6224   -5563842.86248  -4335460.74247                  21419526.8104
        30.5004         26.7504
  21322666.2634    2440513.77948   1901696.44947                  21322673.6034
        30.0004         29.0004
  22201372.5834   -4675298.56547  -3643089.20346                  22201380.0754
        25.2504         24.0004
  23785890.9974   -4157919.67445  -3080259.84545                  23785901.1964
        11.7504         11.7504
  24623959.8644    4957582.54545   3863043.17345                  24623970.2634
        10.0004         10.2504
 00  5  8 15 29 45.0010000  0  6G 2G 4G 7G 9G24G26
  22086829.3644    2383859.58047   1857548.41046                  22086837.5834
        26.2504         24.2504
  21413104.3174   -5597555.16848  -4361730.04947                  21413111.6574
        30.2504         26.7504
  21326829.4744    2462390.25848   1918743.03147                  21326836.8134
        30.0004         29.0004
  22196209.7634   -4702430.33247  -3664230.83646                  22196217.1144
        25.5004         24.0004
  23775941.4744   -4210204.66745  -3121001.34745                  23775951.2044
        11.5004         11.5004
  24631318.4274    4996255.91145   3893178.25545                  24631329.4354
         9.7504         10.0004
 00  5  8 15 30  0.0010000  0  6G 2G 4G 7G 9G24G26
  22090875.4744    2405121.72147   1874116.27746                  22090883.6814
        26.2504         24.0004
  21406710.9034   -5631154.36848  -4387911.21447                  21406718.0794
        30.5004         27.0004
  21331002.4744    2484320.26748   1935831.32947                  21331009.7314
        30.5004         29.0004
  22191068.0834   -4729449.95547  -3685285.08646                  22191075.2824
        25.5004         24.2504
  23765996.5674   -4262464.52545  -3161723.26145                  23766006.6264
        11.5004         11.7504
  24638682.4814    5034953.72145   3923332.32045                  24638693.3024
         9.7504         10.2504
 00  5  8 15 30 15.0010000  0  6G 2G 4G 7G 9G24G26
  22094932.3494    2426440.93847   1890728.61146                  22094940.2394
        26.5004         24.0004
  21400337.0834   -5664647.20948  -4414009.51047                  21400344.2244
        30.2504         26.7504
  21335184.3724    2506296.46848   1952955.61747                  21335191.5954
        30.2504         29.0004
  22185946.5604   -4756364.26147  -3706257.27346                  22185953.9354
        26.0004         24.2504
  23756055.1534   -4314706.04545  -3202430.88145                  23756066.1264
        11.2504         11.5004
  24646050.3494    5073668.36445   3953499.52045                  24646060.5364
         9.5004         10.2504
 00  5  8 15 30 30.0010000  0  6G 2G 4G 7G 9G24G26
  22099001.9354    2447826.32447   1907392.51246                  22099009.8254
        26.7504         23.7504
  21393985.5834   -5698024.41248  -4440017.69147                  21393992.6304
        30.2504         26.7504
  21339376.8804    2528327.68148   1970122.77447                  21339383.9974
        30.5004         29.0004
  22180846.6854   -4783163.99447  -3727140.17846                  22180853.9894
        25.7504         24.7504
  23746119.3804   -4366919.88145  -3243116.95945                  23746129.4974
        11.2504         11.7504
  24653422.6924    5112408.50345   3983686.60545                  24653433.5014
         9.7504          9.7504
 00  5  8 15 30 45.0010000  0  6G 2G 4G 7G 9G24G26
  22103082.6924    2469270.91347   1924102.54446                  22103090.7474
        26.5004         23.7504
  21387654.8724   -5731292.76348  -4465941.06047                  21387661.9894
        30.2504         27.0004
  21343578.3964    2550406.69148   1987327.17047                  21343585.7004
        30.5004         29.2504
  22175767.4194   -4809856.00947  -3747939.15046                  22175774.6884
        25.7504         24.5004
  23736187.3494   -4419112.72845  -3283786.64745                  23736198.2044
        11.2504         11.2504
  24660797.2864    5151166.76545   4013887.79945                  24660809.1734
         9.5004         10.0004
 00  5  8 15 31  0.0010000  0  6G 2G 4G 7G 9G24G26
  22107174.8884    2490775.83947   1940859.59346                  22107183.0604
        26.2504         24.0004
  21381345.0214   -5764450.86348  -4491778.51147                  21381352.2554
        30.0004         27.0004
  21347789.2554    2572534.38048   2004569.50147                  21347796.5604
        30.5004         29.2504
  22170708.7474   -4836439.11847  -3768653.26246                  22170716.0054
        26.2504         24.5004
  23726259.5834   -4471283.23845  -3324438.94145                  23726269.5134
        11.0004         11.2504
  24668176.9814    5189943.71845   4044103.57045                  24668189.1034
         9.5004          9.7504
 00  5  8 15 31 15.0010000  0  6G 2G 4G 7G 9G24G26
  22111278.4504    2512339.59847   1957662.48746                  22111286.2474
        26.5004         23.5004
  21375056.0134   -5797499.92448  -4517531.00047                  21375063.2124
        29.7504         27.2504
  21352009.0444    2594708.97748   2021848.38447                  21352016.1964
        30.7504         29.0004
  22165670.7394   -4862914.47847  -3789283.41146                  22165678.1034
        26.2504         24.7504
  23716336.0524   -4523432.55245  -3365074.75045                  23716346.4154
        11.2504         10.7504
  24675558.8964    5228737.47045   4074332.37645                  24675569.7984
         9.2504          9.5004
 00  5  8 15 31 30.0010000  0  6G 2G 4G 7G 9G24G26
  22115393.6534    2533965.58547   1974513.87946                  22115401.6734
        26.2504         23.5004
  21368788.2554   -5830436.25948  -4543195.64747                  21368795.3494
        29.7504         26.7504
  21356238.2084    2616933.67348   2039166.30747                  21356245.4074
        31.0004         29.2504
  22160654.0284   -4889278.52547  -3809826.82246                  22160661.3684
        26.5004         25.0004
  23706416.6694   -4575556.92045  -3405691.10745                  23706426.7284
        11.5004         11.2504
  24682944.5284    5267551.19545   4104576.80645                  24682954.3064
         8.5004          9.2504
 00  5  8 15 31 45.0010000  0  6G 2G 4G 7G 9G24G26
  22119521.3104    2555656.10847   1991415.55246                  22119529.3534
        26.2504         23.5004
  21362542.6774   -5863257.48448  -4568770.59447                  21362549.7354
        30.0004         27.0004
  21360477.2084    2639210.46048   2056524.81547                  21360484.2904
        30.7504         29.2504
  22155658.5994   -4915528.85147  -3830281.62246                  22155665.8684
        26.2504         24.7504
  23696503.3174   -4627653.96145  -3446286.14945                  23696513.6224
        11.0004         11.5004
  24690335.4974    5306386.51045   4134838.04345                  24690345.5214
         8.7504          9.5004
 00  5  8 15 32  0.0010000  0  6G 2G 4G 7G 9G24G26
  22123660.5364    2577408.65747   2008365.54946                  22123668.5794
        26.0004         23.7504
  21356318.4034   -5895965.80748  -4594257.57647                  21356325.7434
        29.7504         27.2504
  21364725.8174    2661536.60348   2073921.78147                  21364733.1464
        30.7504         29.0004
  22150684.6534   -4941667.72947  -3850649.58246                  22150691.8994
        26.2504         24.7504
  23686594.0364   -4679725.79845  -3486861.58645                  23686604.6694
        11.2504         11.5004
  24697729.2164    5345240.54045   4165113.84445                  24697740.6924
         8.7504          9.7504
 00  5  8 15 32 15.0010000  0  6G 2G 4G 7G 9G24G26
  22127811.6464    2599221.18847   2025362.28446                  22127819.6774
        26.0004         23.5004
  21350115.1614   -5928563.02548  -4619657.97747                  21350122.6064
        29.7504         27.0004
  21368983.4194    2683909.85948   2091355.46447                  21368990.6534
        30.7504         29.0004
  22145731.1854   -4967697.04447  -3870932.16246                  22145738.4784
        26.5004         24.7504
  23676689.5054   -4731774.20745  -3527418.72745                  23676699.6104
        11.5004         11.5004
  24705125.6224    5384110.85045   4195402.34145                  24705138.9154
         8.7504          9.7504
 00  5  8 15 32 30.0010000  0  6G 2G 4G 7G 9G24G26
  22131974.1614    2621094.79347   2042406.61746                  22131982.4744
        26.2504         23.7504
  21343933.8494   -5961047.84248  -4644970.79447                  21343941.3414
        29.7504         27.5004
  21373249.7944    2706331.00648   2108826.46347                  21373257.0994
        30.5004         29.0004
  22140799.2314   -4993615.45347  -3891128.32146                  22140806.5244
        26.7504         24.7504
  23666789.5994   -4783797.79445  -3567956.58645                  23666800.3494
        11.5004         11.2504
  24712525.9584    5422998.09345   4225704.02245                  24712537.3534
         8.7504          9.5004
 00  5  8 15 32 45.0010000  0  6G 2G 4G 7G 9G24G26
  22136147.5364    2643026.89647   2059496.52546                  22136155.5444
        26.2504         23.2504
  21337773.0364   -5993422.55748  -4670197.82047                  21337780.5404
        29.5004         27.5004
  21377525.0914    2728797.29748   2126332.64047                  21377532.5014
        30.2504         29.2504
  22135887.6854   -5019425.28347  -3911239.87746                  22135894.9314
        26.5004         25.0004
  23656894.9814   -4835798.86745  -3608476.86445                  23656904.9114
        11.7504         11.2504
  24719928.8104    5461899.22445   4256016.54545                  24719940.1694
         9.0004          9.2504
 00  5  8 15 33  0.0010000  0  6G 2G 4G 7G 9G24G26
  22140333.7714    2665025.24247   2076638.06246                  22140341.8254
        26.2504         23.5004
  21331634.6774   -6025679.15348  -4695332.80347                  21331642.2634
        29.5004         27.7504
  21381810.3564    2751316.24548   2143879.84347                  21381817.6384
        30.0004         29.2504
  22130998.3804   -5045118.83247  -3931260.82246                  22131005.6384
        26.7504         25.0004
  23647004.8964   -4887769.48445  -3648973.43245                  23647015.1654
        11.5004         11.2504
  24727335.0674    5500821.68645   4286345.66145                  24727346.1924
         9.2504          9.7504
 00  5  8 15 33 15.0010000  0  6G 2G 4G 7G 9G24G26
  22144532.3174    2687088.60847   2093830.25146                  22144540.5244
        26.0004         23.2504
  21325518.7244   -6057818.65248  -4720376.54047                  21325526.1464
        30.0004         28.0004
  21386105.3644    2773886.30348   2161466.87847                  21386112.8214
        30.2504         29.0004
  22126131.2004   -5070697.11047  -3951191.95046                  22126138.4354
        26.7504         24.7504
  23637120.8494   -4939710.43046  -3689446.86845                  23637131.7984
        12.0004         11.5004
  24734745.7634    5539763.76245   4316690.09045                  24734756.4544
         9.0004          9.2504
 00  5  8 15 33 30.0010000  0  6G 2G 4G 7G 9G24G26
  22148742.2394    2709211.93447   2111069.16346                  22148750.3884
        26.0004         23.5004
  21319424.0214   -6089845.97548  -4745332.87247                  21319431.3254
        30.0004         27.7504
  21390408.8884    2796502.16748   2179089.59947                  21390416.3334
        29.7504         28.7504
  22121284.6224   -5096164.88447  -3971036.96746                  22121292.0094
        26.7504         25.0004
  23627241.4354   -4991626.62146  -3729901.03545                  23627251.7744
        12.5004         11.7504
  24742159.0754    5578719.96045   4347045.53945                  24742168.7004
         9.2504          9.0004
 00  5  8 15 33 45.0010000  0  6G 2G 4G 7G 9G24G26
  22152963.8334    2731396.40347   2128355.72946                  22152971.9354
        26.0004         23.2504
  21313351.2004   -6121759.59348  -4770200.60247                  21313358.5054
        30.2504         27.7504
  21394721.6144    2819164.82548   2196748.78647                  21394729.1424
        29.7504         29.0004
  22116459.4894   -5121520.92647  -3990794.92246                  22116466.7474
        26.5004         25.0004
  23617366.9744   -5043516.54346  -3770334.71245                  23617376.4704
        12.5004         11.5004
  24749574.5054    5617690.94345   4377412.49045                  24749585.3494
         8.7504          9.2504
 00  5  8 15 34  0.0010000  0  6G 2G 4G 7G 9G24G26
  22157197.8024    2753646.26347   2145693.24146                  22157206.1384
        25.7504         23.2504
  21307300.6534   -6153555.04248  -4794976.25147                  21307307.9584
        30.2504         27.7504
  21399043.7634    2841878.30148   2214447.57147                  21399051.1734
        29.7504         28.7504
  22111656.4894   -5146760.78747  -4010462.34446                  22111663.9114
        26.5004         25.0004
  23607498.3564   -5095375.61646  -3810744.39146                  23607508.3104
        12.7504         12.0004
  24756993.7004    5656680.66645   4407794.03145                  24757005.2354
         8.2504          9.2504
 00  5  8 15 34 15.0010000  0  6G 2G 4G 7G 9G24G26
  22161443.4664    2775956.86747   2163078.09346                  22161451.8494
        25.5004         23.5004
  21301271.9744   -6185236.85448  -4819663.35647                  21301279.3724
        30.5004         27.7504
  21403374.6464    2864637.58848   2232182.04847                  21403382.1614
        30.0004         28.7504
  22106874.7634   -5171888.83247  -4030042.63846                  22106882.4314
        26.2504         24.7504
  23597634.9274   -5147208.33346  -3851133.48346                  23597644.9154
        13.0004         12.0004
  24764416.2394    5695683.96845   4438186.16045                  24764427.9384
         8.5004          9.0004
 00  5  8 15 34 30.0010000  0  6G 2G 4G 7G 9G24G26
  22165700.7554    2798328.95047   2180510.84346                  22165708.9854
        25.5004         23.5004
  21295264.8254   -6216803.87748  -4844261.01147                  21295272.0714
        30.5004         28.0004
  21407714.4354    2887443.33448   2249952.74047                  21407721.9034
        30.0004         29.0004
  22102114.3494   -5196904.08647  -4049535.03846                  22102121.8414
        26.2504         24.7504
  23587776.7554   -5199013.58446  -3891501.20146                  23587787.8214
        12.7504         13.0004
  24771841.3334    5734701.34045   4468589.27245                  24771852.9974
         8.7504          8.5004
 00  5  8 15 34 45.0010000  0  6G 2G 4G 7G 9G24G26
  22169969.9744    2820762.80547   2197991.72746                  22169978.2514
        25.7504         23.2504
  21289279.7864   -6248255.59748  -4868768.82347                  21289286.9274
        30.7504         28.0004
  21412063.1064    2910295.58548   2267759.66547                  21412070.4704
        29.7504         28.5004
  22097375.7244   -5221806.12947  -4068939.22346                  22097383.1104
        26.2504         24.7504
  23577923.8964   -5250790.72046  -3931846.98346                  23577934.6344
        12.7504         13.0004
  24779269.2714    5773732.45645   4499003.07345                  24779281.9074
         9.0004          9.5004
 00  5  8 15 35  0.0010000  0  6G 2G 4G 7G 9G24G26
  22174251.1144    2843261.02647   2215522.76946                  22174259.5444
        25.5004         23.2504
  21283317.1384   -6279589.29148  -4893184.66947                  21283324.1734
        30.7504         28.0004
  21416421.2784    2933196.61748   2285604.60247                  21416428.6064
        30.2504         28.7504
  22092659.1854   -5246592.27147  -4088253.10146                  22092666.5364
        26.5004         24.7504
  23568077.0754   -5302537.02446  -3972168.78846                  23568087.7554
        13.0004         12.2504
  24786698.9814    5812779.55945   4529429.34545                  24786709.1694
         9.0004          9.2504
 00  5  8 15 35 15.0010000  0  6G 2G 4G 7G 9G24G26
  22178544.7004    2865823.46447   2233103.84246                  22178553.1424
        25.5004         23.2504
  21277377.0914   -6310804.83648  -4917508.45747                  21277384.3724
        30.7504         28.2504
  21420788.1614    2956146.04548   2303487.24447                  21420795.5014
        30.0004         28.7504
  22087964.5994   -5271262.50447  -4107476.66046                  22087972.1034
        26.2504         24.7504
  23558235.8804   -5354252.16446  -4012466.27146                  23558245.6814
        13.2504         12.7504
  24794132.8254    5851842.04945   4559867.62845                  24794144.4424
         9.5004          9.5004
 00  5  8 15 35 30.0010000  0  6G 2G 4G 7G 9G24G26
  22182850.1774    2888448.69847   2250733.84746                  22182858.3844
        25.7504         23.2504
  21271458.9974   -6341903.42848  -4941741.10447                  21271466.1734
        30.7504         28.2504
  21425164.2944    2979142.21648   2321406.31447                  21425171.6694
        29.7504         28.5004
  22083291.9034   -5295818.08347  -4126610.87646                  22083299.3494
        26.2504         24.7504
  23548400.6534   -5405937.38046  -4052740.47246                  23548410.4074
        13.5004         12.7504
  24801568.3564    5890918.12845   4590316.44245                  24801579.1184
         9.2504          9.0004
 00  5  8 15 35 45.0010000  0  6G 2G 4G 7G 9G24G26
  22187167.1224    2911134.10247   2268410.74746                  22187175.3884
        25.2504         23.0004
  21265563.0524   -6372887.40648  -4965884.45047                  21265570.2744
        31.2504         28.5004
  21429548.8334    3002182.39648   2339359.67547                  21429556.2674
        30.0004         28.5004
  22078640.5914   -5320261.34947  -4145657.57946                  22078648.0834
        26.5004         25.0004
  23538570.2314   -5457595.04446  -4092993.17846                  23538580.3604
        13.5004         12.7504
  24809006.2164    5930004.73945   4620773.51245                  24809017.2244
         8.2504          8.0004
 00  5  8 15 36  0.0010000  0  6G 2G 4G 7G 9G24G26
  22191495.0834    2933877.65547   2286132.96146                  22191503.2204
        25.5004         23.2504
  21259688.4664   -6403758.60848  -4989939.91447                  21259695.6654
        30.7504         28.5004
  21433941.0214    3025264.23448   2357345.49447                  21433948.3494
        30.0004         28.7504
  22074010.1064   -5344594.16447  -4164618.20946                  22074017.3534
        27.0004         25.0004
  23528745.2314   -5509226.80046  -4133225.70146                  23528755.3604
        13.5004         13.2504
  24816445.9504    5969099.52845   4651236.95345                  24816457.1694
         8.2504          7.5004
 00  5  8 15 36 15.0010000  0  6G 2G 4G 7G 9G24G26
  22195834.9664    2956684.05147   2303904.14046                  22195843.2204
        25.0004         22.7504
  21253836.3024   -6434512.17948  -5013903.71947                  21253843.4314
        30.7504         28.2504
  21438342.2554    3048392.21648   2375367.27247                  21438349.6654
        30.0004         28.7504
  22069401.7314   -5368811.74047  -4183489.04746                  22069409.0484
        27.0004         25.2504
  23518925.7864   -5560827.72046  -4173434.18846                  23518935.7284
        14.0004         13.2504
  24823887.4584    6008206.66445   4681710.03645                  24823896.2164
         7.5004          7.0004
 00  5  8 15 36 30.0010000  0  6G 2G 4G 7G 9G24G26
  22200187.2244    2979556.51447   2321726.80046                  22200195.5244
        25.0004         22.7504
  21248007.0754   -6465144.62648  -5037773.14347                  21248014.1574
        31.5004         28.5004
  21442752.6774    3071569.19748   2393427.22947                  21442760.0874
        30.0004         28.5004
  22064815.7554   -5392910.67447  -4202267.43946                  22064823.0014
        27.5004         25.2504
  23509113.0674   -5612394.27546  -4213615.91446                  23509123.0564
        14.0004         13.2504
  24831332.6224    6047328.95245   4712194.90245                  24831343.6064
         7.5004          7.7504
 00  5  8 15 36 45.0010000  0  6G 2G 4G 7G 9G24G26
  22204551.5054    3002489.57947   2339596.68646                  22204559.9114
        25.0004         22.7504
  21242200.1304   -6495661.21948  -5061552.29147                  21242207.3764
        31.2504         28.5004
  21447171.4034    3094789.65848   2411521.07047                  21447178.7434
        30.0004         28.7504
  22060251.4744   -5416896.31447  -4220957.54246                  22060258.6384
        27.7504         25.2504
  23499305.8494   -5663931.75446  -4253774.96746                  23499316.2244
        13.5004         13.2504
  24838779.3024    6086460.49944   4742686.95845                  24838789.8994
         7.0004          8.0004
 00  5  8 15 37  0.0010000  0  7G 2G 4G 7G 5G 9G24G26
  22208927.8104    3025487.43047   2357517.05146                  22208936.2744
        25.0004         23.0004
  21236415.8564   -6526057.52048  -5085237.70447                  21236423.0214
        31.2504         28.7504
  21451599.2244    3118057.38648   2429651.73547                  21451606.6104
        29.7504         28.7504
  24905897.7474     -30789.35055
         8.2504
  22055709.6774   -5440764.29348  -4239555.96746                  22055716.6534
        28.0004         25.5004
  23489504.9114   -5715435.70046  -4293907.88346                  23489515.0284
        13.2504         13.0004
  24846227.5994    6125605.01544   4773189.11845                  24846239.5564
         6.7504          7.7504
 00  5  8 15 37 15.0010000  0  7G 2G 4G 7G 5G 9G24G26
  22213316.7634    3048549.73447   2375487.63446                  22213325.2514
        25.0004         23.0004
  21230654.3964   -6556333.65548  -5108829.48347                  21230661.5604
        31.5004         28.5004
  21456035.7084    3141371.85148   2447818.82747                  21456043.1774
        29.7504         28.5004
  24897906.7164     -72787.91945
         7.7504
  22051190.1464   -5464514.71348  -4258062.78446                  22051197.1924
        28.2504         25.5004
  23479710.5054   -5766906.07546  -4334014.64346                  23479720.3884
        13.5004         13.2504
  24853678.7554    6164761.80444   4803700.86945                  24853689.3294
         6.5004          7.5004
 00  5  8 15 37 30.0010000  0  7G 2G 4G 7G 5G 9G24G26
  22217716.9974    3071674.01747   2393506.51246                  22217725.3334
        25.0004         23.0004
  21224915.5214   -6586491.96748  -5132329.45947                  21224922.3414
        31.7504         28.5004
  21460480.5444    3164730.28848   2466020.18247                  21460488.0714
        29.7504         28.7504
  24889911.6774    -114800.06745
         7.5004
  22046692.5834   -5488149.81748  -4276479.75047                  22046699.5954
        28.2504         25.7504
  23469921.9194   -5818345.03446  -4374096.92246                  23469932.3294
        13.5004         13.2504
  24861131.9894    6203928.00943   4834219.95245                  24861143.3254
         5.7504          7.2504
 00  5  8 15 37 45.0010000  0  7G 2G 4G 7G 5G 9G24G26
  22222129.4584    3094860.46347   2411573.82746                  22222137.8534
        25.0004         23.0004
  21219199.1614   -6616531.92748  -5155737.20747                  21219206.0674
        31.7504         28.7504
  21464934.1304    3188132.82748   2484255.90347                  21464941.6814
        29.5004         28.7504
  24881913.8024    -156825.54845
         7.5004
  22042216.8724   -5511669.34148  -4294806.64046                  22042224.0954
        28.2504         25.5004
  23460139.5054   -5869752.13346  -4414154.35146                  23460148.8844
        13.2504         12.7504
  24868587.2864    6243103.35143   4864746.13745                  24868598.7044
         5.5004          6.7504
 00  5  8 15 38  0.0010000  0  7G 2G 4G 7G 5G 9G24G26
  22226554.1064    3118113.40147   2429692.95746                  22226562.7244
        25.0004         23.0004
  21213505.9664   -6646448.99148  -5179049.20047                  21213512.9424
        31.7504         28.5004
  21469396.7634    3211583.54548   2502529.17047                  21469404.3844
        29.7504         28.7504
  24873916.1854    -198859.84145
         7.7504
  22037764.0364   -5535068.63548  -4313039.85447                  22037771.1534
        28.0004         25.7504
  23450364.0364   -5921122.70146  -4454183.33246                  23450374.5994
        13.2504         13.0004
  24876045.0134    6282291.87543   4895282.61145                  24876056.3374
         5.5004          7.0004
 00  5  8 15 38 15.0010000  0  7G 2G 4G 7G 5G 9G24G26
  22230991.4664    3141431.86747   2447863.14046                  22230999.8844
        25.2504         23.2504
  21207836.2784   -6676243.80648  -5202265.93347                  21207843.0404
        32.0004         28.5004
  21473868.0284    3235081.13648   2520838.95247                  21473875.5324
        29.7504         28.7504
  24865914.1924    -240904.03845    -21840.40155                  24865924.7554
         8.2504          7.5004
  22033333.9744   -5558348.53748  -4331180.03547                  22033341.0324
        28.2504         25.7504
  23440595.3644   -5972457.54646  -4494184.47146                  23440605.2004
        13.2504         13.2504
  24883504.9744    6321492.07643   4925828.19845                  24883513.3214
         5.5004          6.2504
 00  5  8 15 38 30.0010000  0  7G 2G 4G 7G 5G 9G24G26
  22235440.7394    3164811.71347   2466081.16046                  22235448.9354
        25.0004         22.5004
  21202188.9584   -6705920.56248  -5225390.67247                  21202195.7554
        32.0004         28.0004
  21478347.7944    3258621.25948   2539181.88847                  21478355.2864
        29.7504         28.5004
  24857911.0834    -282962.33145    -54613.12845                  24857922.4314
         8.2504          7.5004
  22028925.9894   -5581513.07048  -4349230.31747                  22028933.0134
        28.0004         25.7504
  23430832.5444   -6023760.36746  -4534160.66346                  23430842.4034
        13.5004         13.2504
  24890964.3724    6360699.36843   4956379.28045                  24890977.2674
         5.5004          7.2504
 00  5  8 15 38 45.0010000  0  7G 2G 4G 7G 5G 9G24G26
  22239902.0444    3188255.76047   2484349.20646                  22239910.4974
        25.5004         22.7504
  21196564.7314   -6735476.10348  -5248420.96347                  21196571.6964
        31.5004         28.5004
  21482835.6144    3282206.48048   2557559.95947                  21482843.0954
        30.0004         28.5004
  24849905.2554    -325031.71945    -87394.42545                  24849917.4934
         8.2504          7.5004
  22024540.4504   -5604559.26548  -4367188.38946                  22024547.5324
        28.2504         25.5004
  23421077.0054   -6075028.15046  -4574109.54646                  23421087.3104
        13.0004         13.0004
  24898427.2864    6399916.19143   4986937.75745                  24898438.3534
         5.7504          6.7504
 00  5  8 15 39  0.0010000  0  7G 2G 4G 7G 5G 9G24G26
  22244375.3024    3211763.14847   2502666.61346                  22244383.5214
        25.2504         22.7504
  21190963.4744   -6764910.92848  -5271357.18247                  21190970.3454
        31.7504         28.2504
  21487332.3884    3305835.73448   2575972.34147                  21487340.0214
        29.7504         28.5004
  24841898.0134    -367113.17045   -120185.15445                  24841907.6964
         8.2504          7.2504
  22020177.2784   -5627487.82647  -4385054.79347                  22020184.4544
        27.7504         25.7504
  23411326.8564   -6126261.43846  -4614031.54846                  23411337.0794
        13.2504         13.0004
  24905892.3334    6439141.25443   5017502.74545                  24905903.8214
         5.7504          7.0004
 00  5  8 15 39 15.0010000  0  7G 2G 4G 7G 5G 9G24G26
  22248860.4584    3235332.65147   2521032.41946                  22248868.8064
        25.2504         22.7504
  21185384.8254   -6794226.19448  -5294200.23947                  21185391.8254
        31.7504         28.0004
  21491836.8724    3329507.56248   2594417.89947                  21491844.4354
        29.7504         28.2504
  24833887.7554    -409207.83745   -152986.22245                  24833897.3454
         8.0004          6.2504
  22015836.0444   -5650299.83347  -4402830.38447                  22015843.4894
        27.7504         26.0004
  23401583.7244   -6177461.26046  -4653927.46646                  23401593.5714
        13.2504         12.7504
  24913357.7394    6478373.00543   5048072.88945                  24913369.9894
         5.5004          7.0004
 00  5  8 15 39 30.0010000  0  7G 2G 4G 7G 5G 9G24G26
  22253357.3804    3258963.56647   2539446.08146                  22253365.7164
        25.5004         23.2504
  21179829.2474   -6823422.31648  -5316950.46347                  21179835.9034
        32.0004         28.0004
  21496349.5994    3353221.15548   2612895.99747                  21496357.0674
        29.7504         28.5004
  24825875.1064    -451316.30345   -185797.99045                  24825890.4274
         7.7504          7.2504
  22011517.3804   -5672995.76648  -4420515.52247                  22011524.6964
        28.0004         26.0004
  23391847.0524   -6228627.96246  -4693797.57646                  23391856.8414
        13.5004         13.2504
  24920825.3414    6517610.32443   5078647.33545                  24920836.2314
         6.0004          7.2504
 00  5  8 15 39 45.0010000  0  7G 2G 4G 7G 5G 9G24G26
  22257867.0214    3282661.09947   2557911.65346                  22257875.3924
        25.5004         23.0004
  21174296.7784   -6852493.88548  -5339603.62947                  21174303.5874
        32.0004         28.2504
  21500870.9194    3376981.38048   2631410.43947                  21500878.4584
        29.7504         28.5004
  24817859.3644    -493433.42044   -218616.50345                  24817866.4234
         7.0004          6.2504
  22007221.4584   -5695570.20447  -4438105.98347                  22007228.8214
        27.7504         25.7504
  23382118.0754   -6279756.06946  -4733637.62346                  23382127.6064
        14.0004         13.5004
  24928293.0444    6556857.88444   5109229.83645                  24928304.6854
         6.7504          8.5004
 00  5  8 15 40  0.0010000  0  7G 2G 4G 7G 5G 9G24G26
  22262388.3494    3306421.22347   2576425.98846                  22262397.1304
        25.2504         22.5004
  21168787.8414   -6881444.83248  -5362162.79947                  21168794.6734
        32.0004         28.2504
  21505400.3024    3400783.92848   2649957.85647                  21505407.8064
        29.7504         28.0004
  24809843.2784    -535563.18844   -251444.85945                  24809853.1384
         7.2504          5.7504
  22002948.0364   -5718027.07347  -4455604.83947                  22002955.5284
        27.7504         26.0004
  23372395.5364   -6330849.19646  -4773450.41146                  23372405.4074
        14.2504         13.5004
  24935762.7864    6596111.25445   5139816.82245                  24935772.4354
         7.5004          8.7504
 00  5  8 15 40 15.0010000  0  7G 2G 4G 7G 5G 9G24G26
  22266921.9584    3330245.53047   2594990.34246                  22266931.2554
        25.5004         21.0004
  21163301.8104   -6910273.30648  -5384626.54647                  21163308.6694
        32.2504         28.5004
  21509938.3334    3424630.26548   2668539.39047                  21509945.5674
        30.0004         27.2504
  24801823.7474    -577703.87944   -284281.70045                  24801830.4624
         6.7504          6.2504
  21998697.5364   -5740364.63847  -4473010.73247                  21998704.8764
        27.7504         26.0004
  23362679.4664   -6381905.63946  -4813234.60646                  23362689.3134
        14.5004         13.5004
  24943233.7314    6635371.66945   5170409.30745                  24943245.5954
         8.0004          9.0004
 00  5  8 15 40 30.0010000  0  7G 2G 4G 7G 5G 9G24G26
  22271467.5604    3354132.81947
        25.2504
  21157839.1304   -6938980.19748  -5406995.54747                  21157846.0014
        32.0004         28.0004
  21514484.0214    3448518.89048   2687153.95047                  21514491.2084
        29.2504         28.0004
  24793803.2314    -619856.75444   -317128.12545                  24793811.4624
         6.7504          5.7504
  21994469.1384   -5762583.94148  -4490324.47247                  21994476.4314
        28.0004         26.0004
  23352970.7164   -6432926.22946  -4852990.88046                  23352980.9854
        14.2504         13.7504
  24950706.7474    6674637.56845   5201006.07245                  24950718.2474
         8.7504          9.2504
 00  5  8 15 40 45.0010000  0  7G 2G 4G 7G 5G 9G24G26
  22276025.1464    3378083.11447
        25.2504
  21152399.6144   -6967565.18248  -5429269.55747                  21152406.3414
        31.7504         28.2504
  21519037.8964    3472449.63348   2705801.16647                  21519045.2474
        29.7504         28.2504
  24785778.2944    -662021.67644   -349983.94245                  24785791.9624
         6.7504          5.0004
  21990263.5914   -5784684.75448  -4507545.87747                  21990270.8494
        28.0004         26.0004
  23343268.6464   -6483910.60946  -4892718.93846                  23343278.9154
        15.0004         13.5004
  24958179.5284    6713908.59445   5231606.82445                  24958190.8294
         9.2504         10.5004
 00  5  8 15 41  0.0010000  0  7G 2G 4G 7G 5G 9G24G26
  22280595.0284    3402098.32447      2496.41656                  22280603.7044
        25.0004         22.7504
  21146983.5994   -6996026.40348  -5451447.13047                  21146990.4934
        31.7504         28.0004
  21523600.3564    3496424.32048   2724482.73547                  21523607.6964
        29.7504         28.0004
  24777753.1534    -704196.76943   -382847.64344                  24777761.6774
         6.0004          4.2504
  21986081.0834   -5806664.99548  -4524673.33847                  21986088.3994
        28.0004         26.2504
  23333573.8804   -6534856.62546  -4932417.09446                  23333584.1034
        14.7504         13.7504
  24965653.0994    6753186.19345   5262212.71845                  24965663.7434
         9.5004         10.2504
 00  5  8 15 41 15.0010000  0  7G 2G 4G 7G 5G 9G24G26
  22285176.6924    3426173.64947     21256.39146                  22285185.2984
        24.7504         23.0004
  21141590.1774   -7024368.25548  -5473531.68647                  21141597.1064
        31.5004         28.0004
  21528169.8024    3520437.70648   2743194.43747                  21528177.2124
        29.5004         28.2504
  24769723.8884    -746386.83443   -415722.90845                  24769733.7244
         6.0004          5.7504
  21981920.3414   -5828529.29048  -4541710.44547                  21981927.4934
        28.5004         26.2504
  23323885.5914   -6585768.81646  -4972088.89446                  23323895.6034
        15.2504         14.2504
  24973127.9354    6792465.09945   5292819.62945                  24973138.4624
         9.2504         10.0004
 00  5  8 15 41 30.0010000  0  7G 2G 4G 7G 5G 9G24G26
  22289770.1064    3450313.19747     40066.38246                  22289778.9934
        24.7504         22.7504
  21136220.4664   -7052586.53348  -5495519.95047                  21136227.5604
        31.5004         28.0004
  21532747.5914    3544493.79348   2761939.41047                  21532755.0244
        29.7504         28.0004
  24761694.0754    -788587.68043   -448606.68445                  24761708.2824
         6.0004          4.7504
  21977782.5914   -5850273.34848  -4558653.86647                  21977789.5914
        28.5004         26.2504
  23314204.6534   -6636642.69746  -5011730.84446                  23314214.4664
        15.0004         14.2504
  24980603.8104    6831749.04045   5323430.46445                  24980615.6734
         9.7504         10.0004
 00  5  8 15 41 45.0010000  0  7G 2G 4G 7G 5G 9G24G26
  22294376.0214    3474517.16547     58926.57546                  22294384.7434
        24.7504         22.5004
  21130874.3254   -7080680.67848  -5517411.49447                  21130881.3024
        31.2504         28.0004
  21537333.3964    3568592.58048   2780717.66447                  21537340.8534
        29.7504         27.7504
  24753660.5914    -830798.98243   -481498.62145                  24753669.1034
         6.0004          6.2504
  21973667.9034   -5871896.82148  -4575503.32447                  21973674.9274
        28.7504         26.2504
  23304530.8564   -6687477.73746  -5051342.53246                  23304540.3294
        15.0004         14.0004
  24988079.8884    6871037.86745   5354045.09445                  24988091.7044
        10.2504         10.5004
 00  5  8 15 42  0.0010000  0  7G 2G 4G 7G 5G 9G24G26
  22298994.5364    3498787.16647     77838.22946                  22299003.2004
        25.0004         22.7504
  21125551.9744   -7108649.03748  -5539205.01647                  21125559.1034
        31.2504         28.0004
  21541927.7084    3592735.40948   2799530.23047                  21541935.0954
        30.0004         28.2504
  24745626.5674    -873019.17643   -514397.38945                  24745637.9504
         6.0004          5.7504
  21969576.1304   -5893398.06648  -4592257.53647                  21969583.1304
        28.2504         26.2504
  23294865.4424   -6738272.15646  -5090922.56946                  23294874.7984
        15.0004         14.2504
  24995557.4814    6910332.74745   5384664.45545                  24995568.8064
        10.7504         10.7504
 00  5  8 15 42 15.0010000  0  7G 2G 4G 7G 5G 9G24G26
  22303625.1224    3523121.71247     96800.17946                  22303633.9034
        24.5004         22.7504
  21120253.5444   -7136492.87348  -5560901.51347                  21120260.5794
        31.2504         28.0004
  21546530.1224    3616920.51848   2818375.74847                  21546537.6734
        30.0004         28.2504
  24737591.6924    -915249.73544   -547304.36945                  24737601.0364
         6.5004          6.0004
  21965507.6614   -5914778.37248  -4608917.51247                  21965514.9194
        28.5004         26.5004
  23285207.2244   -6789027.24046  -5130471.96146                  23285216.4034
        15.2504         14.5004
  25003036.0754    6949631.68945   5415286.98145                  25003047.1424
        11.0004         11.2504
 00  5  8 15 42 30.0010000  0  7G 2G 4G 7G 5G 9G24G26
  22308267.0674    3547515.17847    115808.03846                  22308275.8964
        24.7504         23.0004
  21114977.7634   -7164217.58248  -5582505.17747                  21114984.7284
        31.5004         28.0004
  21551139.1854    3641142.02148   2837249.62047                  21551146.8644
        30.2504         28.5004
  24729551.1694    -957496.21744   -580223.58345                  24729560.4544
         6.5004          6.7504
  21961461.1064   -5936043.18648  -4625487.49447                  21961468.4234
        28.5004         26.7504
  23275554.7474   -6839748.25946  -5169994.79346                  23275564.6304
        15.2504         13.7504
  25010513.6614    6988928.77645   5445908.05245                  25010525.0444
        11.0004         11.2504
 00  5  8 15 42 45.0010000  0  7G 2G 4G 7G 5G 9G24G26
  22312920.8104    3571970.52447    134864.11346                  22312929.5794
        24.5004         22.5004
  21109725.1614   -7191820.05848  -5604013.59447                  21109731.9234
        31.5004         28.2504
  21555756.1144    3665402.75248   2856154.05947                  21555763.6534
        30.2504         28.2504
  24721510.0444    -999755.65544   -613153.02545                  24721519.7284
         6.5004          7.2504
  21957437.1144   -5957189.43748  -4641965.08747                  21957444.5604
        28.2504         26.2504
  23265909.7164   -6890431.91046  -5209488.52846                  23265919.8564
        15.0004         14.0004
  25017990.9424    7028226.44045   5476529.59345                  25018002.8174
        11.0004         11.0004
 00  5  8 15 43  0.0010000  0  7G 2G 4G 7G 5G 9G24G26
  22317587.6064    3596493.08147    153972.57446                  22317596.2244
        24.2504         22.2504
  21104496.9814   -7219294.55748  -5625422.29047                  21104503.7784
        31.7504         28.2504
  21560381.2634    3689707.87348   2875093.09447                  21560388.7674
        30.2504         28.2504
  24713466.1464   -1042022.56944   -646088.23545                  24713478.6774
         6.7504          6.7504
  21953436.8024   -5978211.48148  -4658345.90347                  21953444.3644
        28.2504         26.7504
  23256273.2634   -6941072.48646  -5248948.67746                  23256283.4384
        14.7504         14.5004
  25025471.0834    7067529.74645   5507155.52045                  25025481.7634
        11.0004         11.0004
 00  5  8 15 43 15.0010000  0  7G 2G 4G 7G 5G 9G24G26
  22322266.3494    3621081.05547    173131.99346                  22322274.9664
        24.5004         22.2504
  21099292.8334   -7246642.78448  -5646732.58947                  21099299.8104
        32.0004         28.2504
  21565014.3024    3714055.28148   2894065.07447                  21565021.9114
        30.2504         28.5004
  24705421.0364   -1084298.82044   -679030.74945                  24705431.1424
         6.7504          7.0004
  21949459.4504   -5999110.98448  -4674631.22847                  21949466.9784
        28.5004         26.7504
  23246644.7474   -6991671.47146  -5288376.42046                  23246655.4854
        15.0004         14.5004
  25032951.5524    7106836.34945   5537784.03445                  25032963.0754
        10.7504         10.7504
 00  5  8 15 43 30.0010000  0  7G 2G 4G 7G 5G 9G24G26
  22326957.4034    3645733.16947    192341.40146                  22326966.0324
        24.5004         22.2504
  21094112.3494   -7273865.89548  -5667945.40147                  21094119.3604
        31.7504         28.5004
  21569655.2554    3738443.64348   2913068.96747                  21569662.9114
        30.2504         28.5004
  24697374.7084   -1126585.55744   -711981.42245                  24697385.3064
         6.7504          7.2504
  21945505.7714   -6019889.08448  -4690821.95247                  21945513.0754
        28.7504         26.5004
  23237023.5994   -7042229.92646  -5327772.59746                  23237033.7164
        14.7504         14.0004
  25040431.2714    7146144.86745   5568414.00245                  25040442.7594
        10.5004         10.7504
 00  5  8 15 43 45.0010000  0  7G 2G 4G 7G 5G 9G24G26
  22331660.5994    3670446.90847    211598.81546                  22331669.0054
        24.7504         22.2504
  21088955.5054   -7300966.09248  -5689062.43147                  21088962.4584
        32.0004         28.2504
  21574303.4114    3762870.10748   2932102.55447                  21574311.0674
        30.2504         28.5004
  24689324.9114   -1168885.31944   -744942.19545                  24689335.9194
         7.2504          8.0004
  21941574.3884   -6040548.21348  -4706919.97447                  21941581.6924
        28.2504         26.7504
  23227410.1304   -7092750.14646  -5367138.97746                  23227420.2124
        14.5004         14.5004
  25047911.4034    7185452.17445   5599043.07445                  25047921.7674
         9.7504         10.7504
 00  5  8 15 44  0.0010000  0  7G 2G 4G 7G 5G 9G24G26
  22336376.4194    3695228.68847    230909.25446                  22336385.0014
        24.5004         22.0004
  21083823.1854   -7327936.80648  -5710078.56547                  21083830.0794
        31.5004         28.5004
  21578960.1464    3787340.82248   2951170.62247                  21578967.7434
        30.2504         28.5004
  24681275.0214   -1211191.57844   -777908.11745                  24681285.8534
         7.2504          8.2504
  21937666.9664   -6061081.72748  -4722920.11147                  21937674.4114
        28.7504         26.7504
  23217804.6224   -7143225.30646  -5406470.24746                  23217814.5524
        14.2504         14.2504
  25055392.0604    7224764.30745   5629675.85845                  25055403.7824
         9.5004         10.2504
 00  5  8 15 44 15.0010000  0  7G 2G 4G 7G 5G 9G24G26
  22341103.3724    3720069.89247    250265.99446                  22341112.1304
        24.2504         21.7504
  21078713.6924   -7354786.40948  -5731000.32647                  21078720.4424
        31.5004         28.5004
  21583623.6694    3811847.01548   2970266.33147                  21583631.2314
        30.2504         28.2504
  24673220.5914   -1253512.96145   -810885.80045                  24673234.2124
         8.0004          8.2504
  21933781.7554   -6081498.22648  -4738829.07447                  21933789.1774
        28.7504         27.0004
  23208206.5604   -7193663.77346  -5445772.92746                  23208216.7474
        14.2504         14.2504
  25062871.5604    7264072.20745   5660305.37045                  25062882.8604
         9.0004          9.7504
 00  5  8 15 44 30.0010000  0  7G 2G 4G 7G 5G 9G24G26
  22345843.4814    3744977.51747    269674.49246                  22345852.3564
        24.2504         21.7504
  21073628.7634   -7381507.79048  -5751822.17447                  21073635.7284
        31.7504         28.5004
  21588294.8884    3836395.42248   2989394.93547                  21588302.4384
        30.0004         28.5004
  24665166.4894   -1295842.45445   -843869.74745                  24665177.6384
         8.7504          8.7504
  21929920.3334   -6101790.54348  -4754641.26447                  21929927.7314
        28.7504         27.0004
  23198617.0134   -7244058.33846  -5485041.39146                  23198627.3174
        14.5004         14.5004
  25070351.8644    7303382.45445   5690936.68145                  25070363.9034
         8.7504          9.5004
 00  5  8 15 44 45.0010000  0  7G 2G 4G 7G 5G 9G24G26
  22350595.7474    3769951.96547    289135.06946                  22350604.3764
        23.5004         21.7504
  21068568.2084   -7408100.39048  -5772543.66947                  21068575.2784
        31.2504         28.2504
  21592974.6534    3860986.31948   3008556.65147                  21592982.3334
        30.2504         28.5004
  24657109.6924   -1338179.60345   -876859.68345                  24657120.2674
         8.7504          9.2504
  21926082.8494   -6121957.99048  -4770356.15947                  21926090.2354
        29.0004         27.0004
  23189036.0604   -7294408.21446  -5524275.04046                  23189045.8254
        15.2504         14.7504
  25077833.7244    7342695.07545   5721569.88745                  25077845.9974
         8.2504          9.0004
 00  5  8 15 45  0.0010000  0  7G 2G 4G 7G 5G 9G24G26
  22355361.2554    3794994.14447    308648.42146                  22355369.9424
        23.7504         22.0004
  21063532.7164   -7434562.91048  -5793163.80147                  21063539.8214
        31.5004         28.5004
  21597662.1064    3885620.41248   3027752.02547                  21597669.6924
        30.2504         28.5004
  24649052.0444   -1380523.26945   -909854.69945                  24649061.2594
         9.0004          9.0004
  21922268.9114   -6141999.42948  -4785972.85847                  21922276.2394
        29.2504         27.0004
  23179463.3564   -7344712.08746  -5563472.85046                  23179473.1104
        15.7504         15.0004
  25085315.8254    7382010.62945   5752205.30645                  25085327.6654
         8.0004          9.0004
 00  5  8 15 45 15.0010000  0  7G 2G 4G 7G 5G 9G24G26
  22360139.2314    3820101.77647    328212.77846                  22360147.8604
        24.0004         21.7504
  21058521.4744   -7460897.48048  -5813684.23547                  21058528.5674
        31.5004         28.5004
  21602357.6304    3910295.15048   3046979.07347                  21602365.2164
        30.2504         28.7504
  24640991.7394   -1422875.76845   -942856.61745                  24641002.7004
         8.7504          9.2504
  21918478.6144   -6161917.12248  -4801493.14047                  21918485.9424
        29.0004         27.0004
  23169898.7474   -7394972.01746  -5602636.39746                  23169908.2434
        15.2504         14.5004
  25092795.4424    7421326.50344   5782841.09045                  25092808.0914
         7.2504          7.7504
 00  5  8 15 45 30.0010000  0  7G 2G 4G 7G 5G 9G24G26
  22364929.9034    3845278.02147    347830.59646                  22364938.3684
        23.7504         21.7504
  21053534.8414   -7487100.76448  -5834102.36947                  21053542.0054
        31.5004         29.0004
  21607061.4814    3935013.53948   3066240.12647                  21607069.1854
        30.2504         28.7504
  24632931.5444   -1465233.91045   -975862.94645                  24632942.3994
         8.7504          9.7504
  21914712.7164   -6181707.65648  -4816914.32847                  21914720.0564
        29.0004         27.0004
  23160343.6304   -7445184.66946  -5641763.12246                  23160353.4424
        15.7504         14.7504
  25100278.4894    7460645.43644   5813479.15945                  25100290.2944
         6.7504          7.7504
 00  5  8 15 45 45.0010000  0  7G 2G 4G 7G 5G 9G24G26
  22369732.8174    3870517.54147    367497.72146                  22369741.4584
        23.7504         21.5004
  21048572.7394   -7513177.98048  -5854422.26747                  21048579.8684
        31.5004         29.0004
  21611772.4424    3959770.09748   3085530.93147                  21611779.9704
        30.2504         28.7504
  24624868.6384   -1507602.90645  -1008877.72145                  24624878.7434
         9.0004          9.0004
  21910969.7314   -6201376.18648  -4832240.45647                  21910977.3174
        29.0004         27.2504
  23150796.6534   -7495354.85746  -5680856.75746                  23150806.7124
        16.0004         15.0004
  25107760.1384    7499961.65944   5844115.17145                  25107771.5794
         7.2504          7.0004
 00  5  8 15 46  0.0010000  0  7G 2G 4G 7G 5G 9G24G26
  22374547.9974    3895822.52447    387215.85846                  22374556.7554
        23.7504         21.5004
  21043634.8644   -7539126.63048  -5874641.97947                  21043641.9464
        32.0004         29.2504
  21616491.2944    3984566.68148   3104852.91947                  21616498.8564
        30.2504         28.5004
  24616805.0524   -1549980.74045  -1041899.36645                  24616816.9744
         9.0004          9.0004
  21907250.7084   -6220920.45348  -4847469.75147                  21907258.1064
        29.0004         27.0004
  23141258.2004   -7545480.25746  -5719915.49146                  23141267.5914
        15.7504         15.0004
  25115241.8024    7539276.96744   5874750.40245                  25115253.5484
         6.2504          7.5004
 00  5  8 15 46 15.0010000  0  7G 2G 4G 7G 5G 9G24G26
  22379375.9354    3921191.80947    406984.10846                  22379384.9744
        23.7504         21.7504
  21038721.3564   -7564947.75348  -5894762.32347                  21038728.5444
        31.7504         29.2504
  21621217.1464    4009401.95948   3124205.06247                  21621224.7084
        30.5004         28.5004
  24608738.7084   -1592368.37745  -1074928.64645                  24608749.5174
         8.5004          9.2504
  21903555.0524   -6240341.46848  -4862603.00947                  21903562.3104
        29.2504         27.2504
  23131727.8644   -7595561.60946  -5758939.89846                  23131737.7244
        16.2504         15.2504
  25122723.0914    7578589.88443   5905383.85545                  25122736.0214
         5.2504          6.5004
 00  5  8 15 46 30.0010000  0  7G 2G 4G 7G 5G 9G24G26
  22384215.8724    3946627.18647    426803.84346                  22384224.7714
        23.2504         21.7504
  21033832.2634   -7590639.29348  -5914781.68847                  21033839.3684
        32.0004         29.5004
  21625950.8334    4034277.52548   3143588.59847                  21625958.3374
        30.7504         28.5004
  24600671.3884   -1634763.97745  -1107964.15245                  24600682.3254
         8.2504          8.7504
  21899883.2244   -6259637.25648  -4877638.68847                  21899890.4814
        29.0004         27.2504
  23122206.5364   -7645596.93146  -5797928.45246                  23122216.3024
        16.0004         15.2504
  25130202.2634    7617901.68642   5936016.34545                  25130213.2124
         4.7504          6.5004
 00  5  8 15 46 45.0010000  0  7G 2G 4G 7G 5G 9G24G26
  22389068.4974    3972125.97447    446672.99346                  22389077.5014
        23.2504         21.7504
  21028967.6464   -7616203.70948  -5934702.00247                  21028974.7394
        32.2504         29.5004
  21630691.5364    4059190.43848   3163001.23547                  21630698.9934
        30.5004         28.7504
  24592601.5364   -1677170.17045  -1141007.89945                  24592611.7944
         8.2504          8.2504
  21896234.6064   -6278810.51748  -4892578.88847                  21896241.7354
        29.5004         27.2504
  23112693.3334   -7695588.66946  -5836883.02846                  23112703.3214
        16.2504         15.7504
  25137683.3414    7657209.30742   5966645.69145                  25137698.2164
         4.2504          5.7504
 00  5  8 15 47  0.0010000  0  7G 2G 4G 7G 5G 9G24G26
  22393933.1304    3997690.54547    466593.40546                  22393942.0404
        23.5004         21.7504
  21024127.6144   -7641638.52648  -5954521.32847                  21024134.7084
        32.2504         29.5004
  21635439.9974    4084142.91248   3182444.69647                  21635447.5134
        30.7504         28.7504
  24584530.4974   -1719584.49345  -1174058.01145                  24584541.7164
         8.2504          9.2504
  21892610.0054   -6297858.62348  -4907421.56447                  21892617.2514
        29.5004         27.2504
  23103189.3884   -7745533.99446  -5875801.45446                  23103199.2124
        16.2504         15.2504
  25145159.9194    7696514.75442   5997273.19845                  25145173.7164
         3.7504          5.5004
 00  5  8 15 47 15.0010000  0  7G 2G 4G 7G 5G 9G24G26
  22398811.0524    4023322.95347    486566.67746                  22398820.0914
        23.5004         21.7504
  21019312.3174   -7666941.59848  -5974237.98647                  21019319.3644
        32.2504         29.5004
  21640196.3334    4109136.85448   3201920.47647                  21640203.8844
        30.7504         28.5004
  24576457.6144   -1762004.78245  -1207112.76145                  24576469.5714
         7.7504          8.7504
  21889009.3724   -6316779.40248  -4922165.02647                  21889016.5954
        29.2504         27.0004
  23093694.0604   -7795430.65746  -5914681.95746                  23093703.8844
        16.0004         15.5004
  25152643.1384    7735819.76342   6027900.53745                  25152656.3844
         4.5004          5.5004
 00  5  8 15 47 30.0010000  0  7G 2G 4G 7G 5G 9G24G26
  22403700.9744    4049020.15747    506590.43746                  22403709.9074
        23.5004         21.7504
  21014521.9584   -7692115.66748  -5993854.12747                  21014528.8884
        32.0004         29.5004
  21644959.5994    4134168.87148   3221425.92047                  21644967.1614
        30.7504         28.7504
  24568384.2394   -1804434.08145  -1240174.53845                  24568394.7784
         8.0004          8.0004
  21885432.5834   -6335575.74348  -4936811.52347                  21885439.8174
        29.2504         27.2504
  23084207.7634   -7845281.43446  -5953526.69446                  23084217.3064
        16.0004         15.7504
  25160123.6534    7775120.78942   6058524.61545                  25160138.0604
         4.5004          5.0004
 00  5  8 15 47 45.0010000  0  7G 2G 4G 7G 5G 9G24G26
  22408603.1854    4074782.29947    526664.79746                  22408612.0484
        23.2504         21.5004
  21009756.2084   -7717160.42348  -6013369.50947                  21009763.3024
        32.2504         29.2504
  21649730.4424    4159239.06948   3240961.11547                  21649738.0754
        30.5004         28.7504
  24560308.4114   -1846872.23645  -1273243.17545                  24560321.0364
         8.0004          8.2504
  21881879.5214   -6354247.25148  -4951360.75047                  21881886.6034
        29.5004         27.0004
  23074730.3884   -7895085.74646  -5992335.23546                  23074740.4234
        16.5004         15.5004
  25167599.9274    7814417.65542   6089145.58945                  25167610.6304
         4.2504          5.0004
 00  5  8 15 48  0.0010000  0  7G 2G 4G 7G 5G 9G24G26
  22413517.7474    4100607.47547    546788.27646                  22413526.9384
        23.2504         21.5004
  21005014.3964   -7742077.65848  -6032785.51847                  21005021.4194
        32.2504         29.2504
  21654507.8254    4184345.19748   3260524.31047                  21654515.4354
        30.2504         28.7504
  24552230.7004   -1889321.04645  -1306320.15545                  24552242.5874
         8.0004          8.2504
  21878349.9194   -6372795.71248  -4965814.09347                  21878356.9664
        29.0004         27.2504
  23065261.2714   -7944845.30546  -6031108.89746                  23065271.2714
        16.2504         15.7504
  25175075.0214    7853707.95542   6119761.35045                  25175084.3884
         4.5004          5.5004
 00  5  8 15 48 15.0010000  0  7G 2G 4G 7G 5G 9G24G26
  22418444.5754    4126498.54747    566963.11246                  22418453.6384
        23.0004         21.2504
  21000297.6384   -7766864.21348  -6052099.70247                  21000304.4704
        32.2504         29.2504
  21659292.7784    4209489.95548   3280117.60447                  21659300.3994
        30.2504         28.7504
  24544150.5914   -1931777.62044  -1339403.16245                  24544162.7594
         7.0004          8.2504
  21874844.2084   -6391218.18748  -4980169.26147                  21874851.3844
        29.5004         27.2504
  23055801.5524   -7994557.01546  -6069845.26446                  23055811.4234
        16.2504         15.7504
  25182553.2244    7892994.19042   6150374.06145                  25182563.6814
         4.7504          5.7504
 00  5  8 15 48 30.0010000  0  7G 2G 4G 7G 5G 9G24G26
  22423383.7784    4152455.04447    587188.92046                  22423392.8294
        22.7504         21.2504
  20995605.8884   -7791520.47548  -6071312.35647                  20995612.6384
        32.5004         29.5004
  21664084.8884    4234672.63548   3299740.44647                  21664092.5794
        30.0004         28.5004
  24536070.1534   -1974242.34644  -1372492.52445                  24536079.9894
         7.2504          7.7504
  21871362.3804   -6409514.95048  -4994426.47947                  21871369.4504
        29.5004         27.2504
  23046350.3964   -8044220.94346  -6108544.42046                  23046360.4074
        16.0004         15.7504
  25190026.3174    7932275.48843   6180982.76045                  25190037.7354
         5.5004          6.0004
 00  5  8 15 48 45.0010000  0  7G 2G 4G 7G 5G 9G24G26
  22428335.5134    4178475.74847    607464.76146                  22428344.4464
        23.2504         21.2504
  20990938.5604   -7816047.39348  -6090424.22647                  20990945.4194
        32.5004         29.5004
  21668883.8644    4259891.86648   3319391.77447                  21668891.6034
        30.0004         28.5004
  24527988.0674   -2016716.27045  -1405589.06545                  24527998.9464
         7.5004          8.2504
  21867904.2394   -6427687.09248  -5008586.59047                  21867911.4744
        29.7504         27.5004
  23036908.9744   -8093838.03346  -6147207.07046                  23036918.7864
        16.5004         16.0004
  25197500.2554    7971550.33343   6211586.54145                  25197516.2904
         5.7504          6.2504
 00  5  8 15 49  0.0010000  0  7G 2G 4G 7G 5G 9G24G26
  22433299.9504    4204563.56847    627792.89746                  22433309.0954
        23.0004         21.2504
  20986296.4034   -7840441.82648  -6109432.86147                  20986303.3684
        32.5004         29.7504
  21673690.4814    4285150.40248   3339073.73047                  21673698.4664
        30.0004         28.5004
  24519904.3414   -2059196.39945  -1438690.42245                  24519914.3174
         7.5004          7.7504
  21864470.6384   -6445731.65348  -5022647.28447                  21864477.8254
        29.7504         27.7504
  23027476.7164   -8143404.91046  -6185830.60046                  23027486.4584
        16.5004         16.0004
  25204974.4194    8010821.29744   6242187.24145                  25204988.9664
         6.7504          6.0004
 00  5  8 15 49 15.0010000  0  7G 2G 4G 7G 5G 9G24G26
  22438276.8964    4230716.82047    648172.01546                  22438285.7594
        23.2504         21.2504
  20981679.1854   -7864705.26548  -6128339.42247                  20981686.1614
        32.2504         29.7504
  21678504.1144    4310446.40348   3358784.87347                  21678512.0284
        30.0004         28.5004
  24511819.1924   -2101684.36245  -1471797.89345                  24511830.5874
         7.5004          8.0004
  21861060.7004   -6463650.04348  -5036609.66747                  21861067.8994
        29.7504         27.5004
  23018053.6064   -8192923.05246  -6224416.15446                  23018063.1384
        16.5004         16.0004
  25212445.3024    8050086.22044   6272783.27145                  25212453.0994
         7.2504          7.5004
 00  5  8 15 49 30.0010000  0  7G 2G 4G 7G 5G 9G24G26
  22443265.4744    4256931.37147    668598.89946                  22443274.3024
        22.7504         21.0004
  20977086.2004   -7888841.78348  -6147147.08247                  20977093.1424
        30.5004         30.0004
  21683324.1614    4335775.49048   3378521.80747                  21683332.0404
        29.7504         28.5004
  24503731.9354   -2144184.33244  -1504914.71345                  24503742.5094
         7.2504          7.0004
  21857674.3254   -6481446.21148  -5050476.81347                  21857681.5604
        29.5004         27.5004
  23008639.3804   -8242396.27646  -6262966.70446                  23008649.1344
        16.7504         16.2504
  25219915.6774    8089340.59745   6303371.11845                  25219925.0794
         8.0004          7.5004
 00  5  8 15 49 45.0010000  0  7G 2G 4G 7G 5G 9G24G26
  22448266.8804    4283215.22447    689079.78246                  22448275.4154
        22.7504         21.0004
  20972518.9974   -7912843.18148  -6165849.46147                  20972525.8564
        32.0004         29.7504
  21688151.7004    4361145.36548   3398290.52347                  21688159.5444
        29.5004         28.2504
  24495643.2474   -2186688.22644  -1538034.58345                  24495653.6104
         7.2504          8.0004
  21854312.8104   -6499112.08748  -5064242.42647                  21854320.0214
        29.5004         27.2504
  22999234.7394   -8291816.49046  -6301475.95146                  22999244.7394
        16.5004         16.0004
  25227385.3254    8128592.04145   6333956.62945                  25227396.5444
         8.5004          8.2504
 00  5  8 15 50  0.0010000  0  7G 2G 4G 7G 5G 9G24G26
  22453280.0674    4309559.21647    709607.53546                  22453288.6264
        22.0004         21.0004
  20967975.5834   -7936718.37848  -6184453.49547                  20967982.4544
        31.7504         30.0004
  21692985.5364    4386546.68748   3418083.74347                  21692993.4854
        29.7504         28.2504
  24487551.7634   -2229205.24244  -1571164.70445                  24487562.7824
         7.2504          7.2504
  21850973.8964   -6516656.76848  -5077913.60547                  21850981.1064
        29.7504         27.2504
  22989839.0834   -8341192.40846  -6339950.68346                  22989848.6494
        16.7504         16.0004
  25234852.1854    8167830.99845   6364532.41845                  25234862.8414
         8.5004          8.2504
 00  5  8 15 50 15.0010000  0  7G 2G 4G 7G 5G 9G24G26
  22458305.1614    4335967.21747    730185.15146                  22458314.2714
        22.2504         21.0004
  20963457.0604   -7960463.34848  -6202956.05747                  20963464.0134
        31.7504         30.0004
  21697826.0364    4411983.23348   3437904.41247                  21697833.8924
        29.5004         28.5004
  24479459.5524   -2271731.29845  -1604301.85045                  24479469.6694
         7.5004          7.7504
  21847659.1614   -6534076.16748  -5091487.15847                  21847666.3374
        30.0004         27.5004
  22980452.4584   -8390519.83646  -6378387.61546                  22980462.1304
        17.2504         16.2504
  25242317.3024    8207061.00345   6395101.21745                  25242328.6384
         9.0004          8.5004
 00  5  8 15 50 30.0010000  0  6G 2G 4G 7G 5G 9G24
  22463342.5054    4362438.04547    750811.73446                  22463352.0714
        22.0004         20.5004
  20958963.2244   -7984079.11048  -6221357.93447                  20958970.1424
        32.5004         29.7504
  21702673.0364    4437453.65248   3457751.47147                  21702680.9624
        29.7504         28.2504
  24471364.9974   -2314267.46845  -1637446.88645                  24471374.6924
         7.5004          7.0004
  21844368.0444   -6551371.33348  -5104963.90947                  21844375.2084
        30.0004         27.5004
  22971074.8644   -8439799.61446  -6416787.43346                  22971084.9584
        17.7504         16.5004
 00  5  8 15 50 45.0010000  0  6G 2G 4G 7G 5G 9G24
  22468392.0444    4388972.87247    771488.17646                  22468401.0954
        21.7504         20.7504
  20954494.0754   -8007564.26748  -6239658.04847                  20954500.9934
        32.2504         30.0004
  21707526.3174    4462958.83448   3477625.62347                  21707534.2314
        29.5004         28.2504
  24463269.0674   -2356812.65245  -1670598.96145                  24463280.2744
         7.5004          7.5004
  21841100.7864   -6568540.92048  -5118342.80647                  21841107.7164
        29.7504         27.5004
  22961706.2944   -8489030.34046  -6455149.03046                  22961716.3414
        17.7504         16.2504
 00  5  8 15 51  0.0010000  0  6G 2G 4G 7G 5G 9G24
  22473452.7944    4415568.78647    792212.23146                  22473461.7044
        22.0004         20.7504
  20950049.2394   -8030921.57948  -6257858.54147                  20950056.1814
        32.5004         29.7504
  21712385.7634    4488495.70348   3497524.46447                  21712393.6884
        29.2504         28.2504
  24455170.5524   -2399369.52644  -1703760.10845                  24455180.4584
         7.2504          8.0004
  21837856.8804   -6585587.71148  -5131626.01647                  21837863.9854
        29.7504         27.5004
  22952346.7784   -8538214.64546  -6493474.44946                  22952356.6034
        17.7504         16.7504
 00  5  8 15 51 15.0010000  0  6G 2G 4G 7G 5G 9G24
  22478525.8804    4442226.08047    812984.11346                  22478535.0244
        22.0004         20.7504
  20945628.9194   -8054150.53448  -6275959.01447                  20945635.8844
        32.2504         29.7504
  21717251.5284    4514064.41548   3517448.12547                  21717259.5604
        29.2504         28.0004
  24447071.1534   -2441937.78045  -1736930.17245                  24447081.0134
         7.5004          7.5004
  21834636.4664   -6602511.22748  -5144813.16547                  21834643.6064
        29.7504         27.5004
  22942996.4114   -8587351.76046  -6531763.10146                  22943006.2824
        17.7504         16.5004
 00  5  8 15 51 30.0010000  0  6G 2G 4G 7G 5G 9G24
  22483610.0524    4468942.92147    833802.38346                  22483619.0444
        21.5004         20.5004
  20941232.7474   -8077252.76748  -6293960.74947                  20941239.6424
        32.2504         29.5004
  21722122.5604    4539662.89548   3537394.97247                  21722130.4274
        29.0004         28.2504
  24438966.9424   -2484519.15645  -1770110.42945                  24438976.8374
         7.7504          8.0004
  21831439.3104   -6619313.27048  -5157905.66547                  21831446.2984
        29.7504         27.2504
  22933654.5214   -8636443.36846  -6570016.29046                  22933664.5324
        18.0004         16.7504
 00  5  8 15 51 45.0010000  0  6G 2G 4G 7G 5G 9G24
  22488706.0444    4495723.81247    854670.56846                  22488715.0834
        22.0004         20.7504
  20936861.3494   -8100223.68348  -6311860.15447                  20936868.1694
        32.5004         29.5004
  21727000.4974    4565295.41848   3557368.35247                  21727008.4814
        29.0004         28.0004
  24430862.7084   -2527109.11045  -1803297.36045                  24430871.4544
         7.7504          8.5004
  21828265.8254   -6635989.13848  -5170899.84247                  21828272.8724
        29.7504         27.5004
  22924322.2784   -8685484.66846  -6608230.27846                  22924332.1384
        18.2504         16.7504
 00  5  8 15 52  0.0010000  0  6G 2G 4G 7G 5G 9G24
  22493814.2714    4522566.47647    875586.88346                  22493823.2634
        22.0004         20.5004
  20932515.0134   -8123065.39148  -6329658.88247                  20932521.9194
        32.5004         29.5004
  21731884.0914    4590959.61248   3577366.40947                  21731892.0524
        28.7504         28.0004
  24422756.6304   -2569709.78245  -1836492.66645                  24422768.2004
         7.7504          8.0004
  21825116.0444   -6652540.90448  -5183797.31947                  21825123.0564
        29.7504         27.5004
  22914999.5134   -8734477.52646  -6646406.53046                  22915008.9154
        18.2504         17.0004
 00  5  8 15 52 15.0010000  0  6G 2G 4G 7G 5G 9G24
  22498934.5364    4549473.83747    896553.60346                  22498943.9504
        22.0004         20.7504
  20928193.4424   -8145774.60548  -6347354.36847                  20928200.3134
        32.2504         29.5004
  21736774.3254    4616658.11548   3597391.20247                  21736782.3104
        29.0004         28.0004
  24414648.2474   -2612318.17045  -1869693.96445                  24414657.1814
         8.0004          8.0004
  21821990.6064   -6668965.61948  -5196595.79947                  21821997.6774
        29.7504         27.2504
  22905686.0134   -8783418.77246  -6684542.55746                  22905695.9314
        17.7504         17.0004
 00  5  8 15 52 30.0010000  0  6G 2G 4G 7G 5G 9G24
  22504066.6224    4576442.76947    917568.30046                  22504075.8964
        22.0004         20.7504
  20923896.4744   -8168354.53048  -6364949.11047                  20923903.3454
        32.5004         29.5004
  21741670.4584    4642387.74048   3617440.24047                  21741678.5834
        29.0004         27.7504
  24406538.5444   -2654937.31945  -1902903.66145                  24406549.4584
         7.7504          7.5004
  21818888.5054   -6685266.27148  -5209297.60447                  21818895.6574
        29.5004         27.2504
  22896382.1774   -8832311.20846  -6722640.54346                  22896392.3174
        18.0004         17.2504
 00  5  8 15 52 45.0010000  0  6G 2G 4G 7G 5G 9G24
  22509210.4194    4603472.98947    938630.75846                  22509219.3884
        22.0004         20.5004
  20919624.4584   -8190805.17048  -6382443.11147                  20919631.4354
        32.2504         29.2504
  21746572.5364    4668147.98448   3637513.13747                  21746580.6384
        28.7504         28.0004
  24398425.9504   -2697567.44545  -1936121.92545                  24398439.4544
         8.0004          7.2504
  21815810.0674   -6701442.97148  -5221902.82347                  21815817.2204
        29.0004         27.2504
  22887087.4504   -8881154.80346  -6760700.47046                  22887097.6144
        17.5004         17.0004
 00  5  8 15 53  0.0010000  0  6G 2G 4G 7G 5G 9G24
  22514365.9664    4630564.58547    959741.03946                  22514374.8294
        22.2504         20.5004
  20915376.8024   -8213126.25048  -6399836.15747                  20915383.7674
        32.5004         29.5004
  21751480.4194    4693938.68548   3657609.77147                  21751488.5094
        29.0004         27.7504
  24390311.7864   -2740208.38445  -1969348.60145                  24390323.0754
         8.0004          8.2504
  21812755.6224   -6717495.51748  -5234411.29747                  21812762.8804
        29.5004         27.0004
  22877802.2394   -8929949.11646  -6798722.01346                  22877812.3564
        18.0004         17.0004
 00  5  8 15 53 15.0010000  0  6G 2G 4G 7G 5G 9G24
  22519532.8804    4657717.21347    980898.87746                  22519541.9194
        22.2504         20.5004
  20911153.6774   -8235317.95248  -6417128.39047                  20911160.5484
        32.2504         29.2504
  21756393.8884    4719759.39248   3677729.77747                  21756401.9194
        28.7504         27.7504
  24382195.2084   -2782860.46445  -2002583.94845                  24382205.8174
         8.2504          8.2504
  21809724.3644   -6733424.14848  -5246823.22347                  21809731.7164
        29.2504         27.0004
  22868526.1694   -8978694.31646  -6836705.26846                  22868536.1224
        17.7504         17.2504
 00  5  8 15 53 30.0010000  0  6G 2G 4G 7G 5G 9G24
  22524712.6464    4684936.72047   1002108.83046                  22524721.9314
        22.2504         20.5004
  20906956.7004   -8257374.31648  -6434315.16447                  20906963.5444
        32.2504         29.5004
  21761314.4814    4745615.67648   3697877.51447                  21761322.5244
        28.7504         27.7504
  24374077.4034   -2825517.69945  -2035823.33945                  24374089.6184
         8.7504          8.0004
  21806718.0604   -6749222.74348  -5259133.81947                  21806725.2474
        29.0004         26.7504
  22859260.6534   -9027384.20646  -6874645.44046                  22859270.5604
        17.5004         17.0004
 00  5  8 15 53 45.0010000  0  6G 2G 4G 7G 5G 9G24
  22529904.7474    4712220.95247   1023369.21846                  22529913.7164
        22.2504         20.2504
  20902784.7784   -8279297.19748  -6451397.92547                  20902791.6494
        32.2504         29.2504
  21766241.0134    4771505.21548   3718051.16447                  21766248.9504
        29.0004         27.7504
  24365959.3724   -2868182.04245  -2069068.23045                  24365971.5404
         9.0004          9.0004
  21803736.1464   -6764893.39548  -5271344.72047                  21803743.2634
        29.5004         27.2504
  22850005.4194   -9076020.57946  -6912543.89646                  22850015.5484
        18.0004         17.5004
 00  5  8 15 54  0.0010000  0  6G 2G 4G 7G 5G 9G24
  22535109.2004    4739570.49947   1044680.50246                  22535118.3454
        22.0004         20.2504
  20898638.5054   -8301086.00648  -6468376.20747                  20898645.5634
        32.2504         29.2504
  21771173.8564    4797428.46048   3738251.08247                  21771181.7594
        28.7504         27.5004
  24357839.1304   -2910852.93245  -2102318.22345                  24357849.6224
         9.2504          9.0004
  21800778.3494   -6780435.44448  -5283455.40847                  21800785.4424
        29.7504         27.2504
  22840760.7164   -9124602.62846  -6950400.02646                  22840770.6694
        18.0004         17.7504
 00  5  8 15 54 15.0010000  0  6G 2G 4G 7G 5G 9G24
  22540326.0674    4766984.70647   1066042.16946                  22540335.1774
        21.7504         20.2504
  20894517.5604   -8322741.18448  -6485250.36747                  20894524.5014
        32.2504         29.2504
  21776113.0754    4823384.51648   3758476.55447                  21776121.2474
        28.5004         27.5004
  24349717.3174   -2953530.87145  -2135573.73345                  24349728.4314
         9.5004          8.7504
  21797845.3254   -6795849.48148  -5295466.35547                  21797852.4074
        29.7504         27.5004
  22831526.3804   -9173130.69246  -6988214.08446                  22831536.6494
        18.2504         17.5004
 00  5  8 15 54 30.0010000  0  6G 2G 4G 7G 5G 9G24
  22545554.0284    4794459.06947   1087450.72546                  22545563.3724
        22.0004         20.0004
  20890421.3564   -8344267.03548  -6502023.75447                  20890428.2864
        32.2504         29.2504
  21781057.8804    4849368.82048   3778724.04347                  21781065.9354
        28.5004         27.7504
  24341593.7554   -2996220.29545  -2168838.18045                  24341602.8994
        10.0004          8.7504
  21794935.6064   -6811139.76648  -5307380.86947                  21794942.8064
        29.5004         27.5004
  22822300.9274   -9221608.93846  -7025989.33546                  22822311.1264
        18.5004         17.7504
 00  5  8 15 54 45.0010000  0  6G 2G 4G 7G 5G 9G24
  22550795.4194    4822002.60747   1108913.16746                  22550804.5634
        21.7504         20.2504
  20886351.5134   -8365654.44148  -6518689.25747                  20886358.3564
        32.2504         29.2504
  21786009.6774    4875390.10148   3799000.34847                  21786017.8134
        28.7504         27.7504
  24333469.2004   -3038912.13445  -2202104.54445                  24333478.9194
         9.7504          9.2504
  21792051.3254   -6826297.20648  -5319191.86847                  21792058.4424
        29.7504         27.2504
  22813087.2004   -9270028.00046  -7063718.47546                  22813097.0134
        18.5004         17.5004
 00  5  8 15 55  0.0010000  0  6G 2G 4G 7G 5G 9G24
  22556048.2554    4849605.47747   1130421.85246                  22556057.1654
        21.7504         20.0004
  20882306.1064   -8386913.00848  -6535254.37047                  20882312.9154
        32.5004         29.0004
  21790966.3964    4901438.26648   3819297.59847                  21790974.4504
        28.7504         27.2504
  24325343.8724   -3081616.15145  -2235380.35645                  24325353.2394
        10.2504          9.0004
  21789190.3024   -6841331.57948  -5330906.96347                  21789197.5014
        29.5004         27.5004
  22803882.8254   -9318397.57446  -7101409.03846                  22803892.7314
        18.7504         17.7504
 00  5  8 15 55 15.0010000  0  6G 2G 4G 7G 5G 9G24
  22561313.0674    4877272.26047   1151980.33446                  22561321.9314
        22.2504         20.2504
  20878286.2474   -8408038.12448  -6551715.50047                  20878293.0444
        32.0004         29.0004
  21795929.2634    4927517.84848   3839619.32747                  21795937.2714
        28.5004         27.5004
  24317215.2784   -3124327.74545  -2268662.06545                  24317225.1964
        10.0004         10.2504
  21786353.8174   -6856238.18248  -5342522.50447                  21786361.0754
        29.2504         27.5004
  22794688.7244   -9366712.63146  -7139057.12246                  22794698.1734
        18.5004         17.7504
 00  5  8 15 55 30.0010000  0  6G 2G 4G 7G 5G 9G24
  22566589.5444    4905001.41947   1173587.42546                  22566598.6064
        21.7504         20.2504
  20874291.3564   -8429031.10248  -6568073.66047                  20874298.1534
        32.2504         28.7504
  21800897.5994    4953626.98548   3859964.09147                  21800905.5604
        28.7504         27.5004
  24309086.4974   -3167048.35845  -2301950.82645                  24309097.0014
        10.0004          9.5004
  21783541.0134   -6871018.37948  -5354039.54647                  21783548.4234
        29.5004         27.5004
  22785505.1384   -9414974.48246  -7176663.75146                  22785514.7164
        19.0004         17.5004
 00  5  8 15 55 45.0010000  0  6G 2G 4G 7G 5G 9G24
  22571878.3024    4932791.83947   1195242.24846                  22571887.4464
        22.0004         20.2504
  20870321.3804   -8449892.94448  -6584329.63147                  20870328.0834
        32.2504         29.0004
  21805871.6304    4979764.50448   3880330.97147                  21805879.6264
        28.7504         27.2504
  24300955.3964   -3209778.88045  -2335247.30345                  24300965.6654
        10.0004         10.2504
  21780752.4354   -6885673.14048  -5365458.84547                  21780759.6924
        29.5004         27.5004
  22776330.9894   -9463183.94646  -7214229.56146                  22776340.7904
        18.7504         17.7504
 00  5  8 15 56  0.0010000  0  6G 2G 4G 7G 5G 9G24
  22577177.8334    4960641.29447   1216943.06346                  22577187.0604
        22.0004         20.2504
  20866376.0754   -8470625.62948  -6600484.97247                  20866382.8844
        31.7504         28.7504
  21810850.4194    5005928.03148   3900718.11347                  21810858.4624
        29.0004         27.2504
  24292821.3644   -3252521.41945  -2368553.09145                  24292830.8494
        10.0004         10.0004
  21777987.2784   -6900204.47148  -5376781.96947                  21777994.5834
        29.5004         27.5004
  22767166.7634   -9511342.80746  -7251755.93746                  22767176.3414
        19.2504         17.7504
 00  5  8 15 56 15.0010000  0  6G 2G 4G 7G 5G 9G24
  22582489.9974    4988556.93347   1238695.45746                  22582499.3644
        21.7504         20.5004
  20862456.7714   -8491221.86148  -6616533.97947                  20862463.4974
        31.7504         28.5004
  21815835.2944    5032124.52248   3921130.94147                  21815843.2674
        29.5004         27.5004
  24284686.4034   -3295268.79045  -2401862.72045                  24284695.4784
        10.0004          9.5004
  21775246.9194   -6914605.07748  -5388003.23047                  21775254.1654
        29.7504         27.5004
  22758013.3334   -9559443.62546  -7289237.07946                  22758023.2394
        19.2504         17.7504
 00  5  8 15 56 30.0010000  0  6G 2G 4G 7G 5G 9G24
  22587813.9504    5016533.44847   1260495.27646                  22587823.0954
        22.0004         20.2504
  20858562.5284   -8511686.72248  -6632480.62247                  20858569.2784
        32.0004         28.7504
  21820825.6854    5058348.52148   3941565.20747                  21820833.5174
        29.0004         27.5004
  24276550.3414   -3338026.27645  -2435180.18945                  24276559.5094
         9.7504          9.2504
  21772530.3414   -6928880.29748  -5399126.78647                  21772537.5874
        29.7504         27.5004
  22748870.1774   -9607491.48846  -7326676.96046                  22748879.8024
        19.0004         17.5004
 00  5  8 15 56 45.0010000  0  6G 2G 4G 7G 5G 9G24
  22593149.9814    5044574.28447   1282345.21646                  22593159.4194
        21.7504         20.5004
  20854693.8724   -8532016.63248  -6648322.10047                  20854700.9424
        32.0004         28.7504
  21825821.5674    5084603.24948   3962023.41247                  21825829.5404
        29.0004         27.2504
  24268412.4194   -3380790.32145  -2468502.79145                  24268423.0634
         9.7504          9.7504
  21769838.4744   -6943026.50748  -5410149.81047                  21769845.7904
        30.0004         27.5004
  22739737.5054   -9655482.64646  -7364072.64646                  22739746.7674
        19.0004         17.5004
 00  5  8 15 57  0.0010000  0  6G 2G 4G 7G 5G 9G24
  22598497.5284    5072677.19247   1304243.53446                  22598506.9544
        21.7504         20.2504
  20850850.4894   -8552213.73248  -6664060.09447                  20850857.6184
        31.7504         29.0004
  21830823.4354    5110886.30848   3982503.69447                  21830831.4314
        29.5004         27.5004
  24260272.9744   -3423563.01245  -2501832.12245                  24260284.1344
        10.0004          9.7504
  21767170.7394   -6957045.80748  -5421073.94347                  21767177.9154
        29.7504         27.5004
  22730615.5524   -9703418.99846  -7401425.63946                  22730624.9074
        19.2504         17.5004
 00  5  8 15 57 15.0010000  0  6G 2G 4G 7G 5G 9G24
  22603856.6064    5100838.00247   1326186.95546                  22603866.3254
        21.7504         20.2504
  20847031.6064   -8572282.03948  -6679697.72747                  20847038.4894
        32.2504         28.7504
  21835829.4504    5137193.41048   4003002.71547                  21835837.2354
        29.7504         27.5004
  24252131.5754   -3466348.47245  -2535171.41245                  24252140.5444
        10.2504         10.2504
  21764526.2634   -6970942.25448  -5431902.35247                  21764533.4624
        30.0004         27.5004
  22721503.1924   -9751304.34346  -7438738.87446                  22721512.3024
        19.2504         17.5004
 00  5  8 15 57 30.0010000  0  6G 2G 4G 7G 5G 9G24
  22609227.9114    5129063.85047   1348181.06146                  22609237.4664
        21.5004         20.2504
  20843238.4274   -8592214.26248  -6695229.32547                  20843245.3214
        32.0004         29.0004
  21840841.3564    5163531.42748   4023525.82247                  21840849.2124
        29.7504         27.2504
  24243988.3884   -3509139.44545  -2568514.98645                  24243998.2824
        10.5004         10.2504
  21761906.7244   -6984708.57948  -5442629.36447                  21761913.8174
        30.2504         27.5004
  22712402.0754   -9799131.19246  -7476006.54046                  22712411.5134
        19.0004         18.0004
 00  5  8 15 57 45.0010000  0  6G 2G 4G 7G 5G 9G24
  22614610.2554    5157348.13147   1370220.70546                  22614619.6104
        21.7504         20.0004
  20839470.2004   -8612016.83648  -6710659.89347                  20839477.2004
        32.2504         29.2504
  21845857.8964    5189893.72248   4044067.84747                  21845865.7164
        29.7504         27.5004
  24235843.3254   -3551942.33945  -2601867.84145                  24235853.6774
         9.7504          9.7504
  21759310.5284   -6998351.24148  -5453260.01447                  21759317.7744
        30.2504         27.7504
  22703311.0834   -9846905.91946  -7513233.57046                  22703320.5794
        19.2504         18.0004
 00  5  8 15 58  0.0010000  0  6G 2G 4G 7G 5G 9G24
  22620003.7714    5185690.96347   1392305.97746                  22620012.9974
        21.7504         20.2504
  20835726.6224   -8631689.45848  -6725989.20347                  20835733.5404
        32.0004         29.0004
  21850879.1854    5216280.22048   4064628.73247                  21850887.0994
        29.5004         27.2504
  24227696.0134   -3594756.95445  -2635229.84445                  24227705.8844
         9.7504          9.7504
  21756738.0054   -7011870.00748  -5463794.12447                  21756745.2394
        30.2504         27.5004
  22694229.5914   -9894628.09346  -7550419.65546                  22694239.5914
        19.5004         18.0004
 00  5  8 15 58 15.0010000  0  6G 2G 4G 7G 5G 9G24
  22625409.5284    5214098.99947   1414442.04946                  22625418.8844
        21.7504         20.0004
  20832009.2314   -8651225.32148  -6741211.94847                  20832016.3024
        32.2504         29.0004
  21855906.2244    5242697.31948   4085213.46347                  21855914.2434
        29.5004         27.2504
  24219547.4814   -3637576.60945  -2668595.77045                  24219557.7744
         9.2504         10.0004
  21754190.4894   -7025258.17448  -5474226.46847                  21754197.6064
        30.2504         27.7504
  22685159.6534   -9942290.84646  -7587559.44746                  22685169.2084
        19.7504         18.0004
 00  5  8 15 58 30.0010000  0  6G 2G 4G 7G 5G 9G24
  22630828.1924    5242572.36147   1436629.03246                  22630837.5714
        21.7504         20.2504
  20828317.6854   -8670624.33948  -6756328.06347                  20828324.6854
        32.2504         29.0004
  21860939.0994    5269145.00548   4105822.02447                  21860947.1064
        29.2504         27.0004
  24211398.0364   -3680401.04545  -2701965.41145                  24211407.6494
         9.0004          9.5004
  21751667.5364   -7038515.53048  -5484556.88447                  21751674.7474
        30.2504         27.7504
  22676101.3334   -9989893.55547  -7624652.44246                  22676110.5714
        20.0004         18.2504
 00  5  8 15 58 45.0010000  0  6G 2G 4G 7G 5G 9G24
  22636257.8104    5271106.06147   1458863.02446                  22636267.2354
        21.5004         19.7504
  20824651.2554   -8689891.09748  -6771341.11847                  20824657.9234
        32.0004         29.0004
  21865976.7864    5295618.17448   4126450.44947                  21865984.5604
        29.5004         27.0004
  24203247.0284   -3723235.13445  -2735342.58145                  24203258.4464
         8.7504          9.2504
  21749168.4894   -7051646.98548  -5494789.19047                  21749175.7354
        29.7504         27.5004
  22667053.2394  -10037441.03446  -7661702.40346                  22667062.9934
        19.7504         18.5004
 00  5  8 15 59  0.0010000  0  6G 2G 4G 7G 5G 9G24
  22641699.6384    5299702.99847   1481146.29846                  22641708.6774
        21.2504         19.7504
  20821010.6854   -8709022.59148  -6786248.76547                  20821017.2354
        32.2504         28.7504
  21871019.7004    5322119.50248   4147100.80747                  21871027.4974
        29.7504         27.0004
  24195094.0524   -3766075.83345  -2768724.88445                  24195103.5014
         9.0004          9.7504
  21746694.4814   -7064649.34348  -5504920.90747                  21746701.6464
        30.0004         27.2504
  22658016.3254  -10084930.06546  -7698706.81546                  22658026.0324
        19.7504         18.7504
 00  5  8 15 59 15.0010000  0  6G 2G 4G 7G 5G 9G24
  22647153.1854    5328361.54247   1503477.58046                  22647162.2944
        21.2504         19.2504
  20817395.4894   -8728020.35148  -6801052.20347                  20817402.1924
        32.2504         29.0004
  21876067.9664    5348647.25148   4167771.76247                  21876075.8804
        29.7504         27.0004
  24186941.6464   -3808924.68645  -2802113.54745                  24186952.7354
         8.7504          9.7504
  21744244.5604   -7077524.16648  -5514953.23647                  21744251.7474
        30.0004         27.5004
  22648990.2084  -10132361.91447  -7735666.66146                  22649000.0094
        20.0004         18.7504
 00  5  8 15 59 30.0010000  0  6G 2G 4G 7G 5G 9G24
  22652618.0284    5357079.71647   1525855.32746                  22652626.9154
        21.2504         19.7504
  20813805.5604   -8746886.26348  -6815752.89947                  20813812.3214
        32.0004         29.0004
  21881120.4584    5375199.24648   4188461.60347                  21881128.2434
        29.7504         27.0004
  24178784.5604   -3851783.55445  -2835510.04845                  24178794.4424
         8.2504          9.5004
  21741818.4504   -7090273.37048  -5524887.68547                  21741825.4974
        30.0004         27.5004
  22639974.8414  -10179738.23147  -7772583.24346                  22639984.3724
        20.2504         19.2504
 00  5  8 15 59 45.0010000  0  6G 2G 4G 7G 5G 9G24
  22658094.4894    5385858.38047   1548280.20746                  22658103.6694
        21.2504         19.5004
  20810240.5364   -8765619.30548  -6830350.06147                  20810247.3214
        31.7504         29.2504
  21886177.9894    5401776.14748   4209170.85847                  21886185.5284
        29.7504         26.7504
  24170626.8104   -3894651.36145  -2868913.47745                  24170639.0604
         7.7504          9.5004
  21739416.5214   -7102895.95548  -5534723.46847                  21739423.5564
        30.0004         27.5004
  22630970.1774  -10227057.92047  -7809455.69546                  22630979.5324
        20.5004         19.5004
 00  5  8 16  0  0.0010000  0  6G 2G 4G 7G 5G 9G24
  22663583.4504    5414702.10747   1570755.78546                  22663593.1224
        21.2504         19.5004
  20806702.1224   -8784214.70848  -6844839.97247                  20806708.9544
        32.0004         29.0004
  21891240.8414    5428382.39848   4229902.98047                  21891248.6144
        29.5004         26.5004
  24162468.4424   -3937523.52945  -2902320.31645                  24162479.8494
         7.7504          9.0004
  21737039.4114   -7115387.28448  -5544456.96547                  21737046.5874
        30.5004         27.7504
  22621977.4424  -10274315.95647  -7846280.10746                  22621986.9274
        21.0004         19.5004
 00  5  8 16  0 15.0010000  0  6G 2G 4G 7G 5G 9G24
  22669083.1534    5443604.03647   1593276.71246                  22669092.6384
        21.2504         19.7504
  20803188.3414   -8802679.28148  -6859227.94047                  20803195.3174
        31.5004         29.5004
  21896308.1534    5455011.02548   4250652.53347                  21896316.0564
        29.5004         26.7504
  24154308.6924   -3980406.86145  -2935735.84845                  24154320.2514
         8.0004          9.0004
  21734686.0134   -7127754.14648  -5554093.48347                  21734693.1064
        30.2504         27.7504
  22612995.0754  -10321519.11547  -7883061.75746                  22613004.4784
        21.0004         19.7504
 00  5  8 16  0 30.0010000  0  6G 2G 4G 7G 5G 9G24
  22674595.4354    5472569.66147   1615847.26546                  22674604.9424
        21.5004         20.0004
  20799700.7394   -8821007.37648  -6873509.56047                  20799707.5834
        31.7504         29.5004
  21901380.8174    5481667.24948   4271423.59747                  21901388.5444
        29.2504         26.5004
  24146147.0134   -4023295.81145  -2969155.74845                  24146156.7904
         8.0004          8.7504
  21732357.5284   -7139990.94248  -5563628.64847                  21732364.4934
        30.2504         28.0004
  22604023.9974  -10368661.53547  -7919796.08146                  22604033.3764
        20.7504         19.5004
 00  5  8 16  0 45.0010000  0  6G 2G 4G 7G 5G 9G24
  22680119.5994    5501599.31947   1638467.72146                  22680128.6494
        21.5004         19.2504
  20796238.9664   -8839198.45348  -6887684.41847                  20796245.7744
        30.2504         29.5004
  21906458.6614    5508351.44348   4292216.45247                  21906466.5174
        29.2504         26.7504
  24137984.4034   -4066189.83145  -3002579.65945                  24137995.4584
         8.2504          9.0004
  21730053.7864   -7152097.15648  -5573062.06447                  21730060.9274
        30.2504         28.0004
  22595064.7474  -10415742.47447  -7956482.49446                  22595074.3134
        21.0004         19.2504
 00  5  8 16  1  0.0010000  0  6G 2G 4G 7G 5G 9G24
  22685654.4744    5530686.11047   1661132.69546                  22685663.5364
        21.5004         19.7504
  20792802.2944   -8857259.31448  -6901757.81147                  20792809.1034
        30.2504         29.5004
  21911540.4034    5535056.44248   4313025.51447                  21911548.2594
        29.0004         26.7504
  24129820.4194   -4109095.68045  -3036012.72745                  24129831.0994
         9.0004          9.0004
  21727773.4664   -7164079.53148  -5582398.98447                  21727780.7124
        30.2504         28.0004
  22586115.9274  -10462768.57147  -7993126.17146                  22586125.5874
        21.0004         19.2504
 00  5  8 16  1 15.0010000  0  6G 2G 4G 7G 5G 9G24
  22691201.3024    5559833.01847   1683844.50746                  22691210.5754
        21.2504         19.5004
  20789390.6464   -8875186.84148  -6915727.30147                  20789397.6344
        30.5004         29.5004
  21916626.8724    5561785.08848   4333853.00347                  21916634.7634
        29.2504         26.5004
  24121654.0604   -4152010.18145  -3069452.57145                  24121664.9974
         9.2504          9.5004
  21725517.6064   -7175934.98048  -5591636.99847                  21725524.7824
        30.2504         28.0004
  22577178.1304  -10509736.47647  -8029724.50546                  22577187.6034
        21.2504         19.2504
 00  5  8 16  1 30.0010000  0  6G 2G 4G 7G 5G 9G24
  22696759.8414    5589043.37147   1706605.76046                  22696769.3494
        21.5004         19.7504
  20786005.1924   -8892977.51148  -6929590.14747                  20786012.0014
        29.7504         29.5004
  21921718.2474    5588540.54448   4354701.39147                  21921726.2084
        29.5004         26.7504
  24113486.2554   -4194929.93245  -3102896.47645                  24113497.3214
         9.2504          9.2504
  21723286.4584   -7187660.10548  -5600773.45447                  21723293.6814
        30.5004         28.0004
  22568252.2474  -10556642.65447  -8066274.74546                  22568261.5914
        21.0004         19.5004
 00  5  8 16  1 45.0010000  0  6G 2G 4G 7G 5G 9G24
  22702330.5994    5618318.54147   1729417.51246                  22702340.2244
        21.0004         19.5004
  20782646.0604   -8910629.89348  -6943345.24247                  20782652.8924
        30.7504         29.5004
  21926815.0134    5615323.91548   4375571.52247                  21926822.8454
        29.5004         26.7504
  24105318.3564   -4237853.55245  -3136343.41445                  24105328.5794
         9.5004          9.5004
  21721080.1384   -7199253.47748  -5609807.25147                  21721087.2434
        30.5004         27.7504
  22559338.3174  -10603485.23047  -8102775.41646                  22559347.7784
        21.0004         19.2504
 00  5  8 16  2  0.0010000  0  6G 2G 4G 7G 5G 9G24
  22707913.4744    5647655.81147   1752277.66146                  22707922.6774
        20.7504         19.7504
  20779312.8964   -8928146.54248  -6956994.56847                  20779319.6694
        29.5004         29.7504
  21931916.5134    5642132.41948   4396461.23647                  21931924.5674
        29.5004         26.7504
  24097148.5604   -4280783.58245  -3169795.34745                  24097158.2204
         9.7504         10.0004
  21718898.6224   -7210717.64648  -5618740.37547                  21718905.7984
        30.2504         28.0004
  22550436.0364  -10650266.82647  -8139228.57846                  22550445.5564
        20.7504         19.5004
 00  5  8 16  2 15.0010000  0  6G 2G 4G 7G 5G 9G24
  22713506.7864    5677050.16247   1775182.29446                  22713516.6344
        21.0004         19.2504
  20776004.3564   -8945532.34448  -6970541.93347                  20776011.2004
        30.7504         29.5004
  21937021.6924    5668960.99548   4417366.59747                  21937029.7824
        29.5004         26.7504
  24088977.3104   -4323724.95845  -3203256.11145                  24088986.6774
         9.5004         10.0004
  21716740.7394   -7222057.59248  -5627576.69347                  21716747.6344
        30.2504         27.7504
  22541544.5134  -10696992.09247  -8175637.84046                  22541553.8454
        21.0004         19.2504
 00  5  8 16  2 30.0010000  0  6G 2G 4G 7G 5G 9G24
  22719112.8884    5706509.00147   1798137.17946                  22719122.8294
        20.5004         19.2504
  20772722.3334   -8962779.79348  -6983981.49447                  20772729.1774
        29.2504         29.7504
  21942132.1854    5695816.73048   4438293.11747                  21942140.1344
        29.5004         26.7504
  24080805.0284   -4366670.13045  -3236719.85545                  24080815.6034
         9.5004          9.7504
  21714607.8804   -7233265.74848  -5636310.32247                  21714614.9034
        30.2504         27.7504
  22532665.2314  -10743653.28847  -8211997.18346                  22532674.8454
        21.2504         19.5004
 00  5  8 16  2 45.0010000  0  6G 2G 4G 7G 5G 9G24
  22724731.5444    5736035.72647   1821144.96546                  22724741.2164
        21.0004         19.0004
  20769467.1464   -8979885.31948  -6997310.46747                  20769473.8134
        30.0004         29.5004
  21947248.4274    5722702.97448   4459243.40847                  21947256.4464
        29.0004         26.7504
  24072632.7714   -4409615.50045  -3270183.72345                  24072641.5634
        10.0004          9.2504
  21712500.8254   -7244338.58848  -5644938.51147                  21712508.0364
        30.0004         27.7504
  22523798.8804  -10790246.69347  -8248303.70246                  22523808.6344
        21.2504         19.7504
 00  5  8 16  3  0.0010000  0  6G 2G 4G 7G 5G 9G24
  22730362.7554    5765627.33547   1844203.31246                  22730372.1464
        21.2504         19.5004
  20766238.5444   -8996851.88048  -7010531.15247                  20766245.2824
        29.0004         29.7504
  21952370.0994    5749616.57148   4480215.01047                  21952378.2714
        28.7504         27.0004
  24064459.6464   -4452563.93945  -3303650.03145                  24064468.8374
        10.7504          9.5004
  21710418.9504   -7255279.00048  -5653463.51047                  21710426.0094
        30.2504         28.0004
  22514944.7554  -10836774.98947  -8284559.48346                  22514954.2984
        21.2504         19.2504
 00  5  8 16  3 15.0010000  0  6G 2G 4G 7G 5G 9G24
  22736005.9114    5795281.65447   1867310.52746                  22736015.4314
        21.0004         19.2504
  20763035.9274   -9013681.25148  -7023644.93347                  20763042.7714
        29.7504         30.0004
  21957496.2554    5776555.36348   4501206.25247                  21957504.4974
        28.7504         26.5004
  24056286.0994   -4495517.43245  -3337120.25245                  24056294.2714
        10.7504         10.0004
  21708361.8564   -7266089.03048  -5661886.90847                  21708368.8564
        30.5004         28.0004
  22506102.5604  -10883239.91947  -8320765.89346                  22506112.1144
        21.0004         19.5004
 00  5  8 16  3 30.0010000  0  6G 2G 4G 7G 5G 9G24
  22741660.7864    5824997.87647   1890465.97546                  22741670.4704
        20.7504         19.5004
  20759859.4584   -9030374.36848  -7036652.54447                  20759866.2554
        28.5004         29.7504
  21962627.1614    5803518.24048   4522216.25447                  21962635.4744
        28.7504         26.5004
  24048111.5994   -4538476.72645  -3370595.01845                  24048120.5914
        11.0004          9.7504
  21706329.4194   -7276769.41148  -5670209.28547                  21706336.4784
        30.5004         28.0004
  22497272.4974  -10929642.07647  -8356923.38646                  22497282.1104
        21.2504         19.7504
 00  5  8 16  3 45.0010000  0  6G 2G 4G 7G 5G 9G24
  22747327.2944    5854776.08247   1913669.72346                  22747337.2354
        20.5004         19.0004
  20756708.7864   -9046930.77248  -7049553.62347                  20756715.7284
        30.5004         30.0004
  21967762.5134    5830505.17348   4543245.00147                  21967770.6144
        28.5004         26.7504
  24039935.3494   -4581441.61445  -3404074.12645                  24039945.3844
        10.7504          9.5004
  21704321.8494   -7287319.95748  -5678430.49147                  21704328.8724
        30.7504         28.2504
  22488454.5604  -10975981.09047  -8393031.67246                  22488464.1964
        21.5004         19.7504
 00  5  8 16  4  0.0010000  0  6G 2G 4G 7G 5G 9G24
  22753005.7084    5884616.65047   1936922.06946                  22753015.5444
        21.0004         19.2504
  20753584.3024   -9063350.12348  -7062347.91147                  20753591.0874
        30.5004         29.7504
  21972902.7474    5857516.40348   4564292.68547                  21972910.9544
        28.5004         26.5004
  24031758.3334   -4624411.58345  -3437557.19145                  24031768.4974
        10.7504          9.7504
  21702338.7554   -7297740.19848  -5686550.16547                  21702346.0484
        30.5004         28.5004
  22479648.8254  -11022256.17847  -8429090.15746                  22479657.9934
        21.7504         19.7504
 00  5  8 16  4 15.0010000  0  6G 2G 4G 7G 5G 9G24
  22758696.3024    5914519.75747   1960223.14046                  22758706.0914
        20.5004         19.2504
  20750485.8414   -9079632.19348  -7075035.22747                  20750492.8414
        30.5004         30.0004
  21978047.6614    5884551.83348   4585359.22247                  21978055.8564
        28.7504         26.5004
  24023580.6924   -4667386.37645  -3471044.01745                  24023590.1884
        10.5004          9.5004
  21700380.8104   -7308029.87248  -5694568.09547                  21700388.1854
        30.2504         28.5004
  22470854.8884  -11068466.96347  -8465098.52846                  22470864.0444
        21.2504         19.7504
 00  5  8 16  4 30.0010000  0  6G 2G 4G 7G 5G 9G24
  22764398.7634    5944485.34347   1983572.89846                  22764408.2354
        21.0004         19.0004
  20747413.6304   -9095776.79548  -7087615.41847                  20747420.6304
        32.0004         30.0004
  21983196.7864    5911611.41948   4606444.58347                  21983204.8994
        28.7504         26.5004
  24015401.6924   -4710365.85045  -3504534.49645                  24015412.3964
        10.5004          9.7504
  21698447.6304   -7318188.99548  -5702484.29847                  21698455.0284
        30.5004         28.5004
  22462073.7784  -11114613.12747  -8501056.54946                  22462083.4154
        21.5004         20.0004
 00  5  8 16  4 45.0010000  0  6G 2G 4G 7G 5G 9G24
  22770113.1384    5974516.71747   2006973.91646                  22770122.9034
        20.5004         18.7504
  20744368.1144   -9111780.57848  -7100085.88447                  20744374.9354
        30.5004         30.0004
  21988351.2084    5938698.24048   4627551.16547                  21988359.3454
        28.5004         26.2504
  24007222.9664   -4753346.58345  -3538025.94145                  24007234.0794
        10.7504         10.2504
  21696539.8964   -7328214.09348  -5710296.06247                  21696547.2714
        30.2504         28.5004
  22453305.3174  -11160691.08647  -8536961.41146                  22453314.8374
        21.7504         20.2504
 00  5  8 16  5  0.0010000  0  6G 2G 4G 7G 5G 9G24
  22775840.2314    6004611.28147   2030424.17746                  22775849.6464
        20.2504         18.7504
  20741349.0444   -9127646.11748  -7112448.62647                  20741355.8534
        31.0004         29.7504
  21993510.3644    5965809.49448   4648676.78647                  21993518.4784
        28.5004         26.5004
  23999043.3644   -4796331.12245  -3571520.37145                  23999052.8374
        11.2504          9.7504
  21694657.1304   -7338107.65748  -5718005.34047                  21694664.7394
        30.2504         28.7504
  22444549.5994  -11206703.28347  -8572815.04746                  22444559.3644
        22.0004         20.2504
 00  5  8 16  5 15.0010000  0  6G 2G 4G 7G 5G 9G24
  22781579.3804    6034769.87747   2053924.32746                  22781589.0054
        20.2504         19.0004
  20738356.6224   -9143372.17447  -7124702.67847                  20738363.4934
        27.7504         30.0004
  21998674.2634    5992945.95848   4669822.04947                  21998682.5754
        28.2504         26.2504
  23990862.6224   -4839318.39545  -3605016.89545                  23990871.9314
        11.0004         10.0004
  21692799.6464   -7347868.81848  -5725611.44147                  21692807.2204
        30.0004         28.2504
  22435806.4504  -11252648.28047  -8608616.31046                  22435815.7124
        22.2504         20.7504
 00  5  8 16  5 30.0010000  0  6G 2G 4G 7G 5G 9G24
  22787329.7554    6064989.50947   2077472.04446                  22787339.2634
        20.0004         18.7504
  20735389.9664   -9158961.72348  -7136850.36747                  20735396.8374
        28.7504         30.0004
  22003842.2864    6020104.56948   4690984.56747                  22003850.5874
        28.2504         26.0004
  23982681.4274   -4882311.29245  -3638517.84345                  23982692.2714
        10.7504         10.5004
  21690966.7394   -7357500.36448  -5733116.54647                  21690974.2784
        30.2504         28.5004
  22427075.6854  -11298528.77347  -8644367.31746                  22427085.1924
        22.0004         20.7504
 00  5  8 16  5 45.0010000  0  6G 2G 4G 7G 5G 9G24
  22793092.4034    6095272.40147   2101069.05346                  22793101.8884
        20.2504         18.7504
  20732449.8804   -9174412.48848  -7148889.91347                  20732456.6654
        28.7504         30.0004
  22009015.0444    6047287.33348   4712165.90547                  22009023.3454
        28.0004         26.2504
  23974499.5364   -4925307.51845  -3672021.37545                  23974509.7124
        10.5004         10.2504
  21689159.0754   -7367000.07748  -5740518.92347                  21689166.6264
        30.0004         28.7504
  22418357.5994  -11344342.33247  -8680066.15946                  22418367.1884
        22.0004         20.7504
 00  5  8 16  6  0.0010000  0  6G 2G 4G 7G 5G 9G24
  22798867.3724    6125618.56646   2124715.36146                  22798877.2434
        19.7504         18.5004
  20729536.1614   -9189724.29248  -7160821.18047                  20729542.8294
        29.0004         30.2504
  22014192.4194    6074494.24448   4733366.06347                  22014200.7554
        28.2504         26.0004
  23966317.4354   -4968306.81345  -3705527.27545                  23966327.4234
        10.5004         10.5004
  21687376.5134   -7376367.83848  -5747818.47747                  21687383.9354
        30.2504         28.2504
  22409652.3024  -11390088.62747  -8715712.59046                  22409661.7744
        22.7504         21.0004
 00  5  8 16  6 15.0010000  0  6G 2G 4G 7G 5G 9G24
  22804653.6384    6156026.49046   2148409.79546                  22804663.4854
        19.5004         18.7504
  20726648.5754   -9204898.53847  -7172645.25347                  20726655.3024
        26.5004         30.0004
  22019373.8334    6101723.51848   4754583.64347                  22019381.9814
        28.0004         26.0004
  23958133.8494   -5011310.56945  -3739036.65845                  23958143.9544
        10.2504         10.0004
  21685618.6304   -7385605.07348  -5755016.32947                  21685625.9354
        30.5004         28.5004
  22400959.4814  -11435768.86647  -8751307.55346                  22400969.0244
        22.2504         20.7504
 00  5  8 16  6 30.0010000  0  6G 2G 4G 7G 5G 9G24
  22810452.9744    6186501.09346   2172156.18346                  22810462.8454
        19.7504         18.5004
  20723788.0674   -9219930.29748  -7184358.30047                  20723794.8644
        28.0004         30.0004
  22024560.7634    6128980.00348   4775822.42747                  22024568.8414
        28.2504         26.0004
  23949950.9274   -5054313.74845  -3772545.58245                  23949960.9384
        10.5004         10.2504
  21683886.6614   -7394706.80948  -5762108.58847                  21683894.0014
        30.2504         28.5004
  22392280.3804  -11481377.78147  -8786846.93346                  22392289.8764
        22.2504         20.7504
 00  5  8 16  6 45.0010000  0  6G 2G 4G 7G 5G 9G24
  22816264.2004    6217040.06646   2195952.72246                  22816274.0604
        19.5004         19.0004
  20720954.3564   -9234821.63548  -7195961.93547                  20720961.1424
        28.2504         30.0004
  22029752.1534    6156261.18048   4797080.44947                  22029760.2084
        28.0004         26.2504
  23941766.7944   -5097318.54245  -3806055.78545                  23941776.6774
        10.2504         10.5004
  21682180.0994   -7403675.16248  -5769096.91747                  21682187.5674
        29.7504         28.5004
  22383614.3644  -11526917.35947  -8822332.29246                  22383623.9194
        22.2504         21.0004
 00  5  8 16  7  0.0010000  0  6G 2G 4G 7G 5G 9G24
  22822087.5754    6247641.61746   2219798.02946                  22822097.2824
        19.7504         18.7504
  20718146.9744   -9249574.27648  -7207457.48747                  20718153.8174
        28.2504         30.0004
  22034948.0214    6183565.21448   4818356.28147                  22034956.1344
        28.2504         26.0004
  23933583.1064   -5140326.53645  -3839568.44245                  23933591.6424
        10.5004         10.2504
  21680498.5284   -7412511.91448  -5775982.69847                  21680505.9384
        30.2504         28.2504
  22374961.7394  -11572389.13347  -8857764.81246                  22374971.0834
        22.2504         21.0004
 00  5  8 16  7 15.0010000  0  6G 2G 4G 7G 5G 9G24
  22827922.9194    6278306.86446   2243692.96146                  22827933.0834
        19.7504         18.5004
  20715366.1224   -9264186.87548  -7218843.91947                  20715372.9424
        29.0004         30.0004
  22040148.4744    6210893.12048   4839650.72047                  22040156.6814
        28.2504         26.0004
  23925398.0754   -5183336.48945  -3873082.65445                  23925408.7314
        10.2504         10.2504
  21678842.0524   -7421215.73848  -5782764.89647                  21678849.4154
        30.0004         28.5004
  22366321.7084  -11617791.59847  -8893143.32546                  22366331.3214
        22.2504         21.0004
 00  5  8 16  7 30.0010000  0  6G 2G 4G 7G 5G 9G24
  22833771.3804    6309039.90947   2267640.72946                  22833781.3214
        20.0004         18.5004
  20712613.0444   -9278655.37547  -7230118.06347                  20712619.9624
        26.5004         30.0004
  22045354.2474    6238248.77148   4860966.77547                  22045362.3604
        28.2504         26.0004
  23917213.6854   -5226344.22145  -3906595.12545                  23917224.0714
        10.2504         10.7504
  21677211.8724   -7429782.60448  -5789440.37747                  21677219.1424
        30.0004         28.2504
  22357695.9114  -11663120.41047  -8928464.44446                  22357705.3134
        22.5004         21.0004
 00  5  8 16  7 45.0010000  0  6G 2G 4G 7G 5G 9G24
  22839632.7714    6339841.01946   2291641.53846                  22839642.5364
        19.7504         18.7504
  20709887.2084   -9292979.34448  -7241279.58447                  20709894.0794
        29.2504         30.0004
  22050564.9274    6265632.40048   4882304.63247                  22050573.0634
        28.2504         26.0004
  23909029.8644   -5269349.27145  -3940105.50545                  23909040.0404
        10.5004         10.2504
  21675607.8024   -7438212.08048  -5796008.80347                  21675615.1654
        30.2504         28.2504
  22349084.4114  -11708374.90647  -8963727.65346                  22349093.7204
        22.5004         21.0004
 00  5  8 16  8  0.0010000  0  6G 2G 4G 7G 5G 9G24
  22845506.2474    6370706.92946   2315692.82746                  22845516.3534
        19.5004         18.5004
  20707188.5364   -9307161.81648  -7252330.84747                  20707195.3214
        29.0004         30.0004
  22055780.7784    6293040.53548   4903661.58347                  22055788.7284
        28.2504         26.0004
  23900846.5754   -5312354.76845  -3973616.25145                  23900857.0794
        10.7504         10.2504
  21674029.2864   -7446507.32648  -5802472.63047                  21674036.4974
        30.0004         28.0004
  22340485.9504  -11753558.13747  -8998935.33646                  22340495.3174
        22.7504         21.0004
 00  5  8 16  8 15.0010000  0  6G 2G 4G 7G 5G 9G24
  22851392.9354    6401640.80346   2339797.07546                  22851402.9704
        19.0004         18.5004
  20704516.9354   -9321199.68948  -7263269.44047                  20704523.7084
        30.7504         30.0004
  22061001.4664    6320476.24248   4925040.02047                  22061009.4624
        28.2504         26.0004
  23892663.4814   -5355357.35745  -4007124.73345                  23892672.8134
        10.5004         10.5004
  21672476.8884   -7454665.09348  -5808829.33647                  21672484.3334
        30.2504         28.2504
  22331902.2554  -11798666.49747  -9034084.68046                  22331911.5174
        22.7504         21.0004
 00  5  8 16  8 30.0010000  0  6G 2G 4G 7G 5G 9G24
  22857291.5214    6432636.27946   2363949.32446                  22857301.4274
        19.2504         18.0004
  20701872.0214   -9335099.14548  -7274100.17947                  20701878.8174
        30.7504         30.0004
  22066226.3024    6347933.04948   4946434.90047                  22066234.4384
        28.2504         26.0004
  23884480.0054   -5398363.19245  -4040635.73945                  23884490.6494
        10.5004         11.0004
  21670949.5994   -7462691.67948  -5815083.82447                  21670956.8104
        30.5004         28.5004
  22323331.6064  -11843706.07447  -9069180.41846                  22323341.1494
        22.7504         21.2504
 00  5  8 16  8 45.0010000  0  6G 2G 4G 7G 5G 9G24
  22863202.5604    6463700.12846   2388154.85146                  22863212.5604
        19.0004         18.2504
  20699254.6534   -9348853.20348  -7284817.61447                  20699261.5714
        31.2504         30.0004
  22071456.4424    6375417.74248   4967851.50947                  22071464.6494
        28.2504         25.7504
  23876296.9194   -5441365.31645  -4074143.82245                  23876307.5174
        10.5004         10.5004
  21669448.3494   -7470580.13048  -5821230.66847                  21669455.5014
        30.5004         28.5004
  22314775.2634  -11888669.71447  -9104216.99346                  22314784.4424
        23.0004         21.2504
 00  5  8 16  9  0.0010000  0  6G 2G 4G 7G 5G 9G24
  22869126.5134    6494832.06346   2412413.43646                  22869136.9354
        19.2504         17.7504
  20696665.1384   -9362462.19748  -7295422.02047                  20696672.0564
        30.7504         29.7504
  22076692.0054    6402929.80748   4989289.44447                  22076700.2594
        28.2504         25.7504
  23868114.0214   -5484363.90045  -4107649.18045                  23868123.7984
        10.5004         11.2504
  21667973.5444   -7478330.61148  -5827270.00847                  21667980.8374
        30.2504         28.5004
  22306233.0914  -11933557.38947  -9139194.37046                  22306242.5284
        23.5004         21.2504
 00  5  8 16  9 15.0010000  0  6G 2G 4G 7G 5G 9G24
  22875063.4034    6526028.87546   2436722.58046                  22875073.6144
        19.2504         18.2504
  20694102.2244   -9375929.32948  -7305915.87747                  20694109.1184
        31.7504         30.0004
  22081931.9894    6430465.69048   5010745.94447                  22081940.1964
        28.2504         25.7504
  23859932.4114   -5527362.12445  -4141154.25045                  23859942.7164
        10.7504         11.2504
  21666524.4114   -7485946.44448  -5833204.43047                  21666531.7864
        30.5004         28.7504
  22297705.3564  -11978372.13147  -9174114.91346                  22297714.8174
        23.5004         21.5004
 00  5  8 16  9 30.0010000  0  6G 2G 4G 7G 5G 9G24
  22881012.1464    6557290.72246   2461082.38746                  22881022.1924
        18.7504         18.2504
  20691566.6384   -9389254.03848  -7316298.75947                  20691573.5214
        30.5004         29.7504
  22087176.5994    6458025.71648   5032221.25047                  22087184.6774
        28.5004         25.7504
  23851750.3174   -5570359.55145  -4174658.70345                  23851759.9894
        11.0004         11.0004
  21665100.8334   -7493427.38048  -5839033.73547                  21665108.2784
        30.5004         28.7504
  22289191.0994  -12023113.35947  -9208978.17346                  22289200.4894
        23.2504         21.5004
 00  5  8 16  9 45.0010000  0  6G 2G 4G 7G 5G 9G24
  22886973.3724    6588614.84946   2485490.73246                  22886983.3724
        19.2504         18.2504
  20689057.4274   -9402439.21048  -7326572.90647                  20689064.3104
        31.7504         29.7504
  22092425.0994    6485606.90448   5053713.05247                  22092433.3064
        28.5004         26.0004
  23843567.5754   -5613358.85645  -4208164.59445                  23843577.0834
        11.2504         11.0004
  21663702.5054   -7500775.95148  -5844759.89147                  21663709.8454
        30.5004         29.0004
  22280690.8884  -12067783.53947  -9243786.06646                  22280700.1144
        23.5004         21.5004
 00  5  8 16 10  0.0010000  0  6G 2G 4G 7G 5G 9G24
  22892946.7314    6620004.21446   2509949.91346                  22892956.7204
        19.2504         18.0004
  20686575.6384   -9415481.62048  -7336735.81247                  20686582.6144
        31.5004         29.7504
  22097678.1464    6513212.09148   5075223.55047                  22097686.3644
        28.2504         26.0004
  23835385.1854   -5656356.89145  -4241669.53345                  23835394.7864
        11.2504         10.7504
  21662329.7314   -7507989.22348  -5850380.63047                  21662337.2004
        30.5004         29.0004
  22272204.4814  -12112379.52247  -9278536.13646                  22272214.0954
        23.5004         21.7504
 00  5  8 16 10 15.0010000  0  6G 2G 4G 7G 5G 9G24
  22898933.1694    6651463.48246   2534463.56546                  22898943.0634
        19.5004         18.2504
  20684121.8104   -9428376.58948  -7346783.82847                  20684128.6924
        30.7504         30.0004
  22102936.5364    6540845.82748   5096756.29947                  22102944.9664
        28.5004         25.7504
  23827204.0444   -5699348.80445  -4275169.67445                  23827213.7284
        11.0004         11.0004
  21660983.8254   -7515062.41348  -5855892.20847                  21660991.2354
        30.5004         29.0004
  22263732.9974  -12156896.24947  -9313224.45546                  22263742.3994
        23.2504         21.5004
 00  5  8 16 10 30.0010000  0  6G 2G 4G 7G 5G 9G24
  22904932.3024    6682988.42146   2559028.38146                  22904942.3374
        19.2504         18.2504
  20681695.2554   -9441128.27448  -7356720.19747                  20681702.1384
        31.2504         29.7504
  22108199.8564    6568503.74848   5118307.88747                  22108208.2864
        28.2504         25.7504
  23819023.0994   -5742338.69945  -4308668.25245                  23819032.0564
        11.0004         11.5004
  21659663.5674   -7521999.67348  -5861297.87247                  21659670.9784
        30.7504         29.2504
  22255276.2084  -12201337.55647  -9347854.01046                  22255285.5754
        23.2504         21.7504
 00  5  8 16 10 45.0010000  0  6G 2G 4G 7G 5G 9G24
  22910943.8884    6714580.00646   2583645.13246                  22910953.8414
        19.7504         18.2504
  20679296.1464   -9453735.59848  -7366544.07847                  20679302.8964
        30.7504         29.7504
  22113467.6854    6596186.73948   5139879.01547                  22113476.0094
        28.5004         25.7504
  23810843.2784   -5785325.38945  -4342164.34345                  23810853.0324
        11.2504         11.7504
  21658369.5214   -7528799.98848  -5866596.82547                  21658376.9074
        30.2504         29.0004
  22246833.7864  -12245702.25747  -9382423.86346                  22246843.2004
        23.2504         21.7504
 00  5  8 16 11  0.0010000  0  6G 2G 4G 7G 5G 9G24
  22916967.5834    6746236.17146   2608312.23146                  22916977.5244
        19.2504         18.2504
  20676924.1774   -9466200.59448  -7376257.05147                  20676930.7744
        30.5004         29.7504
  22118740.1774    6623892.50848   5161467.88747                  22118748.5714
        28.2504         25.7504
  23802663.2714   -5828310.90545  -4375659.51745                  23802672.9424
        11.2504         11.2504
  21657101.0284   -7535465.36148  -5871790.62947                  21657108.3924
        30.5004         28.7504
  22238405.6694  -12289992.01747  -9416935.32246                  22238415.1424
        23.5004         21.5004
 00  5  8 16 11 15.0010000  0  6G 2G 4G 7G 5G 9G24
  22923004.3024    6777958.80846   2633031.10046                  22923014.4074
        19.7504         18.0004
  20674579.6924   -9478521.19248  -7385857.50647                  20674586.5244
        31.2504         29.7504
  22124017.1534    6651622.93548   5183075.97947                  22124025.3964
        28.5004         25.7504
  23794484.1224   -5871293.18345  -4409152.16845                  23794493.6654
        11.5004         11.7504
  21655858.8724   -7541993.88048  -5876877.78947                  21655866.1304
        30.5004         28.7504
  22229992.3884  -12334204.74447  -9451386.75446                  22230001.6614
        23.5004         21.7504
 00  5  8 16 11 30.0010000  0  7G 2G 4G 7G 5G 9G24G16
  22929053.5054    6809747.94546   2657801.79846                  22929063.4114
        19.2504         18.0004
  20672262.5754   -9490697.22048  -7395345.30847                  20672269.0914
        30.5004         29.7504
  22129298.7474    6679377.92348   5204703.21047                  22129306.9784
        28.7504         25.7504
  23786305.1924   -5914271.94545  -4442642.05745                  23786315.3104
        11.2504         11.5004
  21654642.6694   -7548385.35648  -5881858.16447                  21654650.1034
        30.2504         28.5004
  22221593.7084  -12378339.96847  -9485777.79446                  22221603.0284
        23.7504         22.0004
  24876619.0674      -6881.97754
         6.7504
 00  5  8 16 11 45.0010000  0  7G 2G 4G 7G 5G 9G24G16
  22935114.8884    6841599.74246   2682621.32146                  22935125.3454
        19.2504         18.0004
  20669972.3964   -9502732.48248  -7404723.43347                  20669979.1814
        30.5004         29.7504
  22134584.1854    6707153.54448   5226346.51347                  22134592.5214
        28.5004         25.7504
  23778126.5914   -5957250.88245  -4476132.13545                  23778137.5524
        11.0004         11.5004
  21653451.8724   -7554643.58348  -5886734.71247                  21653459.2354
        30.2504         28.5004
  22213208.9354  -12422401.28847  -9520111.24546                  22213218.1264
        23.7504         22.2504
  24872701.8494     -27469.75544
         7.2504
 00  5  8 16 12  0.0010000  0  7G 2G 4G 7G 5G 9G24G16
  22941188.8724    6873518.82046   2707493.26446                  22941198.8134
        19.2504         17.7504
  20667709.7554   -9514622.25748  -7413988.18447                  20667716.3994
        30.7504         29.7504
  22139874.5524    6734954.33148   5248009.42647                  22139882.7944
        28.7504         25.7504
  23769949.1144   -6000225.24445  -4509618.58645                  23769959.2314
        11.5004         11.5004
  21652287.3174   -7560763.81848  -5891503.73747                  21652294.8334
        30.5004         28.7504
  22204839.4814  -12466383.79447  -9554383.29146                  22204848.7784
        24.0004         22.0004
  24868800.5524     -47965.93144
         6.7504
 00  5  8 16 12 15.0010000  0  7G 2G 4G 7G 5G 9G24G16
  22947274.7784    6905498.44446   2732412.38746                  22947284.8254
        18.7504         17.5004
  20665473.8334   -9526373.08948  -7423144.66947                  20665480.4894
        31.5004         29.5004
  22145168.3494    6762773.45748   5269686.63646                  22145176.4274
        29.0004         25.2504
  23761770.6064   -6043201.48345  -4543106.53145                  23761781.0754
        11.5004         11.0004
  21651147.4974   -7566752.71448  -5896170.41047                  21651154.9074
        30.5004         28.7504
  22196483.5754  -12510293.63447  -9588598.70646                  22196493.0834
        24.0004         22.5004
  24864917.8564     -68376.96044
         6.7504
 00  5  8 16 12 30.0010000  0  7G 2G 4G 7G 5G 9G24G16
  22953373.0444    6937545.55146   2757384.08646                  22953383.1494
        19.2504         18.0004
  20663265.2314   -9537978.07148  -7432187.50247                  20663272.0524
        31.0004         29.7504
  22150467.0674    6790617.69448   5291383.40746                  22150475.2044
        28.7504         25.2504
  23753592.9664   -6086172.55245  -4576590.44845                  23753603.5754
        11.2504         11.5004
  21650034.2084   -7572603.30248  -5900729.31647                  21650041.3134
        30.7504         28.5004
  22188142.8724  -12554123.76347  -9622752.01346                  22188152.5794
        24.2504         22.7504
  24861050.8964     -88695.52845
         7.5004
 00  5  8 16 12 45.0010000  0  7G 2G 4G 7G 5G 9G24G16
  22959484.2634    6969659.68646   2782408.02546                  22959494.8254
        19.2504         18.0004
  20661084.6854   -9549437.56748  -7441116.97647                  20661091.5674
        28.7504         30.0004
  22155770.2474    6818486.44348   5313099.28246                  22155778.3844
        28.5004         25.2504
  23745417.3174   -6129138.85145  -4610070.62345                  23745427.1884
        11.5004         11.2504
  21648947.1924   -7578315.93348  -5905180.72247                  21648954.4154
        31.2504         28.7504
  22179817.4274  -12597874.51247  -9656843.46946                  22179826.8884
        24.2504         22.7504
  24857203.2944    -108921.74645     -4195.48355                  24857218.4974
         7.5004          6.7504
 00  5  8 16 13  0.0010000  0  7G 2G 4G 7G 5G 9G24G16
  22965607.8254    7001838.33346   2807482.22246                  22965617.7554
        19.0004         17.7504
  20658931.1064   -9560753.89548  -7449934.88447                  20658937.9034
        30.0004         29.7504
  22161077.7634    6846377.13548   5334832.25546                  22161085.8174
        28.5004         25.0004
  23737241.7164   -6172102.57446  -4643548.82446                  23737250.8724
        12.5004         12.0004
  21647885.7244   -7583893.11148  -5909526.57847                  21647893.0174
        31.0004         28.7504
  22171506.7394  -12641547.71747  -9690874.49346                  22171516.2824
        24.5004         22.7504
  24853370.1144    -129057.96944    -19885.98145                  24853383.7594
         7.0004          6.2504
 00  5  8 16 13 15.0010000  0  7G 2G 4G 7G 5G 9G24G16
  22971742.6304    7034077.13446   2832603.29946                  22971752.6774
        18.7504         17.7504
  20656804.1694   -9571931.46848  -7458644.67447                  20656811.0134
        30.5004         30.0004
  22166388.4424    6874285.32248   5356578.86446                  22166396.5674
        28.2504         25.0004
  23729065.2944   -6215067.97446  -4677028.33345                  23729075.6344
        12.7504         11.7504
  21646849.5604   -7589339.07048  -5913770.19047                  21646856.9234
        31.0004         28.7504
  22163210.0134  -12685147.69047  -9724848.45246                  22163219.5674
        24.7504         23.0004
  24849554.7004    -149108.16145    -35509.38945                  24849566.4114
         7.5004          6.2504
 00  5  8 16 13 30.0010000  0  7G 2G 4G 7G 5G 9G24G16
  22977890.8334    7066387.36646   2857780.03446                  22977901.0094
        19.0004         17.5004
  20654705.7944   -9582958.82748  -7467237.40947                  20654712.7004
        32.0004         30.0004
  22171704.7474    6902222.13348   5378347.77346                  22171713.0134
        28.5004         25.0004
  23720891.4504   -6258023.63446  -4710500.23246                  23720901.7084
        12.7504         12.0004
  21645840.2394   -7594642.40248  -5917902.66547                  21645847.4854
        30.7504         28.7504
  22154929.3964  -12728662.66047  -9758756.18846                  22154938.6464
        24.7504         23.0004
  24845757.1224    -169060.57244    -51056.71645                  24845772.8414
         7.2504          6.5004
 00  5  8 16 13 45.0010000  0  7G 2G 4G 7G 5G 9G24G16
  22984052.4744    7098765.14446   2883009.39946                  22984062.6734
        19.2504         17.5004
  20652635.1384   -9593839.86548  -7475716.12947                  20652641.9704
        31.0004         29.7504
  22177025.7244    6930183.66348   5400135.94346                  22177034.0134
        28.5004         25.0004
  23712717.9194   -6300973.20946  -4743967.39146                  23712727.9894
        12.7504         12.0004
  21644857.4274   -7599806.95048  -5921926.99347                  21644864.8844
        30.7504         29.0004
  22146663.8964  -12772096.31147  -9792600.55246                  22146673.3104
        25.0004         23.0004
  24841978.7084    -188918.88244    -66530.66445                  24841991.8134
         7.2504          7.5004
 00  5  8 16 14  0.0010000  0  7G 2G 4G 7G 5G 9G24G16
  22990225.4114    7131205.70046   2908287.67546                  22990235.5634
        18.7504         17.5004
  20650591.5284   -9604579.01448  -7484084.28347                  20650598.2314
        32.0004         29.5004
  22182350.4354    6958164.96848   5421939.52346                  22182358.6534
        28.5004         24.7504
  23704545.6464   -6343921.20146  -4777433.30746                  23704555.7284
        12.7504         12.2504
  21643900.3334   -7604837.39448  -5925846.82847                  21643907.7554
        30.7504         29.0004
  22138413.4974  -12815453.05547  -9826384.98946                  22138422.6774
        25.0004         23.2504
  24838217.4354    -208687.46245    -81934.69745                  24838230.5284
         7.7504          7.2504
 00  5  8 16 14 15.0010000  0  7G 2G 4G 7G 5G 9G24G16
  22996412.3724    7163717.77546   2933621.68446                  22996422.1494
        18.5004         17.2504
  20648576.6064   -9615167.76648  -7492335.24847                  20648583.2984
        30.7504         29.5004
  22187680.4354    6986174.60948   5443765.18846                  22187688.6884
        28.2504         24.7504
  23696374.6854   -6386858.83646  -4810891.16346                  23696383.1264
        12.7504         12.2504
  21642970.2244   -7609725.09748  -5929655.43847                  21642977.5284
        30.7504         29.0004
  22130179.3174  -12858723.83747  -9860102.44146                  22130188.4154
        25.0004         23.2504
  24834474.1774    -228357.40845    -97261.85845                  24834488.0794
         7.7504          6.7504
 00  5  8 16 14 30.0010000  0  7G 2G 4G 7G 5G 9G24G16
  23002611.6534    7196293.60746   2959005.37246                  23002621.6774
        18.7504         17.5004
  20646588.8884   -9625613.65248  -7500474.88447                  20646595.4154
        29.0004         29.5004
  22193014.4194    7014204.78548   5465606.84346                  22193022.5794
        28.0004         24.7504
  23688204.2164   -6429793.69746  -4844346.87645                  23688213.8884
        13.0004         11.7504
  21642065.9424   -7614477.70748  -5933358.77647                  21642073.4934
        31.0004         29.0004
  22121960.0284  -12901916.15347  -9893758.75046                  22121969.3134
        25.0004         23.2504
  24830747.6534    -247936.19344   -112517.99445                  24830762.6224
         6.7504          7.2504
 00  5  8 16 14 45.0010000  0  7G 2G 4G 7G 5G 9G24G16
  23008822.5994    7228932.16846   2984437.93546                  23008833.0214
        18.2504         17.2504
  20644628.1144   -9635917.63648  -7508503.95147                  20644634.6654
        28.5004         29.5004
  22198352.2944    7042254.47748   5487463.71646                  22198360.2554
        28.2504         24.2504
  23680034.7864   -6472726.55746  -4877801.01045                  23680044.4464
        13.0004         11.7504
  21641186.9744   -7619096.15948  -5936957.58347                  21641194.4314
        30.7504         29.0004
  22113755.6384  -12945030.64947  -9927354.42246                  22113764.9354
        25.2504         23.2504
  24827038.9194    -267424.52244   -127703.58245                  24827057.0874
         6.5004          6.7504
 00  5  8 16 15  0.0010000  0  7G 2G 4G 7G 5G 9G24G16
  23015046.3804    7261637.71046   3009922.69946                  23015056.7434
        18.5004         17.0004
  20642695.0834   -9646075.28848  -7516418.99747                  20642701.4234
        29.5004         29.5004
  22203694.3414    7070327.79948   5509338.99946                  22203702.1854
        28.2504         24.5004
  23671865.6924   -6515652.91246  -4911250.08345                  23671873.9234
        12.7504         11.7504
  21640334.6304   -7623576.01648  -5940448.39247                  21640341.9934
        31.0004         29.0004
  22105567.0524  -12988062.71947  -9960885.86846                  22105576.2904
        25.2504         23.2504
  24823348.5214    -286817.39444   -142814.82645                  24823362.1774
         6.2504          7.2504
 00  5  8 16 15 15.0010000  0  7G 2G 4G 7G 5G 9G24G16
  23021282.1304    7294407.17146   3035457.26646                  23021292.3174
        17.7504         17.0004
  20640789.4274   -9656089.61848  -7524222.36047                  20640795.8844
        29.7504         29.2504
  22209040.3334    7098421.59948   5531230.24346                  22209048.2004
        28.0004         24.2504
  23663697.9274   -6558575.75246
        12.5004
  21639507.6534   -7627920.34648  -5943833.59247                  21639515.1464
        31.5004         29.2504
  22097393.3414  -13031015.06647  -9994355.19446                  22097402.4274
        25.2504         23.0004
  24819675.1464    -306117.84244   -157854.07045                  24819691.8024
         6.5004          7.0004
 00  5  8 16 15 30.0010000  0  7G 2G 4G 7G 5G 9G24G16
  23027530.9744    7327243.58446   3061044.00946                  23027541.4314
        18.0004         17.5004
  20638911.5754   -9665957.57948  -7531911.66947                  20638918.0794
        30.2504         29.2504
  22214391.0054    7126538.76647   5553139.69146                  22214399.0834
        27.7504         24.2504
  23655531.4114   -6601491.79946
        12.2504
  21638707.5214   -7632126.03548  -5947110.75947                  21638714.8494
        31.5004         29.0004
  22089235.2634  -13073884.46047 -10027759.88146                  22089244.6774
        25.0004         23.7504
  24816021.7634    -325322.48344   -172818.65445                  24816039.1574
         7.0004          7.5004
 00  5  8 16 15 45.0010000  0  7G 2G 4G 7G 5G 9G24G16
  23033791.9424    7360146.14746   3086682.28746                  23033802.3294
        17.7504         17.0004
  20637061.5214   -9675679.90348  -7539487.49647                  20637068.0364
        28.5004         29.2504
  22219745.6144    7154678.38647   5575066.63446                  22219753.5994
        27.7504         24.2504
  23647365.6464   -6644401.69046
        12.2504
  21637933.5604   -7636193.83648  -5950280.48747                  21637940.9464
        31.7504         29.0004
  22081093.2714  -13116671.37047 -10061100.29446                  22081102.6384
        25.0004         23.5004
  24812385.3884    -344431.90545   -187709.01645                  24812400.9544
         7.7504          8.2504
 00  5  8 16 16  0.0010000  0  7G 2G 4G 7G 5G 9G24G16
  23040066.0754    7393116.09346   3112373.07546                  23040076.3924
        17.7504         16.7504
  20635239.2634   -9685255.27748  -7546948.82347                  20635245.8134
        31.5004         29.5004
  22225105.0284    7182841.66347   5597012.00946                  22225113.1064
        27.2504         24.0004
  23639201.7944   -6687304.06845
        11.7504
  21637186.0054   -7640122.51948  -5953341.80847                  21637193.3334
        31.7504         29.0004
  22072967.2244  -13159374.19147 -10094375.18646                  22072976.4384
        25.2504         23.5004
  24808767.4744    -363444.38445   -202523.86245                  24808781.5754
         8.0004          8.0004
 00  5  8 16 16 15.0010000  0  7G 2G 4G 7G 5G 9G24G16
  23046352.5134    7426151.71546   3138115.03446                  23046362.8174
        18.0004         16.7504
  20633444.9744   -9694685.33648  -7554296.90947                  20633451.6184
        32.2504         29.7504
  22230468.4194    7211026.78547   5618974.41346                  22230476.7084
        27.0004         23.7504
  23631038.4034   -6730200.41445    -20053.78655                  23631048.8494
        11.7504         11.7504
  21636464.3884   -7643913.72248  -5956295.99947                  21636471.6464
        31.7504         29.0004
  22064856.8494  -13201994.38847 -10127585.69346                  22064865.9704
        25.2504         23.5004
  24805168.3884    -382361.46045   -217264.37545                  24805182.5364
         8.7504          8.5004
 00  5  8 16 16 30.0010000  0  7G 2G 4G 7G 5G 9G24G16
  23052651.3414    7459251.25446   3163906.79746                  23052661.3764
        18.0004         16.5004
  20631677.6924   -9703971.83748  -7561533.13547                  20631684.3724
        31.5004         29.5004
  22235835.8104    7239231.79447   5640952.31146                  22235843.9934
        27.0004         24.0004
  23622876.5214   -6773092.32145    -53476.01545                  23622886.3564
        11.7504         11.7504
  21635768.8884   -7647569.18648  -5959144.42147                  21635776.0754
        31.5004         29.0004
  22056761.8804  -13244533.31047 -10160732.87046                  22056771.0604
        25.0004         23.5004
  24801585.6924    -401184.40945   -231931.50745                  24801598.7744
         9.0004          8.5004
 00  5  8 16 16 45.0010000  0  7G 2G 4G 7G 5G 9G24G16
  23058962.6774    7492417.12146   3189750.26846                  23058972.7354
        18.0004         16.5004
  20629938.3494   -9713112.09448  -7568655.40447                  20629945.1224
        32.2504         29.5004
  22241207.4114    7267459.12247   5662947.60446                  22241215.5954
        27.0004         23.7504
  23614715.5674   -6815977.15145    -86892.71246                  23614725.5094
        11.7504         12.0004
  21635099.5754   -7651086.32648  -5961885.05447                  21635106.6574
        32.2504         29.0004
  22048682.9584  -13286988.30847 -10193814.64546                  22048692.1034
        25.2504         23.5004
  24798022.2164    -419910.68845   -246523.33845                  24798036.4934
         9.0004          8.2504
 00  5  8 16 17  0.0010000  0  7G 2G 4G 7G 5G 9G24G16
  23065286.4664    7525650.22446   3215646.11546                  23065296.5954
        17.7504         16.7504
  20628226.9894   -9722105.27848  -7575663.06647                  20628233.8104
        32.2504         29.5004
  22246583.0134    7295709.62347   5684960.94746                  22246591.4074
        26.7504         24.0004
  23606556.4504   -6858853.82945   -120303.08146                  23606567.1064
        11.7504         12.0004
  21634456.8644   -7654464.18448  -5964517.15947                  21634464.0634
        31.7504         29.2504
  22040620.4974  -13329358.11247 -10226830.03846                  22040629.6654
        25.5004         23.7504
  24794477.9194    -438538.95245   -261038.79745                  24794492.9464
         9.0004          8.7504
 00  5  8 16 17 15.0010000  0  7G 2G 4G 7G 5G 9G24G16
  23071623.9034    7558951.53746   3241595.11246                  23071634.1144
        18.0004         16.7504
  20626543.6694   -9730950.27948  -7582555.26947                  20626550.4074
        32.2504         29.2504
  22251963.4894    7323984.00147   5706992.90146                  22251971.7784
        26.7504         24.0004
  23598399.0754   -6901721.17945   -153706.17246                  23598409.3334
        11.7504         12.0004
  21633840.6924   -7657701.75148  -5967039.94547                  21633847.9854
        31.7504         29.2504
  22032574.0444  -13371641.53647 -10259778.13546                  22032583.1774
        25.5004         23.5004
  24790951.0054    -457067.93245   -275476.90745                  24790965.2594
         9.0004          9.0004
 00  5  8 16 17 30.0010000  0  7G 2G 4G 7G 5G 9G24G16
  23077973.9974    7592321.82746   3267597.87646                  23077984.1494
        18.5004         17.0004
  20624889.0214   -9739646.30848  -7589331.38747                  20624895.5604
        32.5004         29.5004
  22257348.7864    7352283.12647   5729044.13646                  22257357.1814
        26.7504         23.5004
  23590243.5284   -6944578.25545   -187101.24546                  23590252.8134
        11.7504         12.0004
  21633251.5134   -7660798.33448  -5969452.88047                  21633258.7824
        31.5004         29.0004
  22024544.3254  -13413837.37047 -10292657.97346                  22024553.6694
        25.2504         24.0004
  24787444.0914    -475496.43845   -289836.72745                  24787459.4934
         9.2504          8.2504
 00  5  8 16 17 45.0010000  0  7G 2G 4G 7G 5G 9G24G16
  23084336.4814    7625756.43646   3293650.74746                  23084346.7744
        17.7504         16.5004
  20623261.5994   -9748198.12148  -7595995.13247                  20623268.1034
        31.2504         29.5004
  22262737.7474    7380602.14047   5751110.87446                  22262746.0134
        26.7504         23.7504
  23582088.9114   -6987429.52545   -220491.82745                  23582098.7124
        11.7504         11.7504
  21632688.0284   -7663758.53148  -5971759.53247                  21632695.5324
        31.5004         29.2504
  22016530.6384  -13455950.12247 -10325473.06646                  22016539.5604
        25.7504         24.0004
  24783954.9584    -493829.16245   -304121.91545                  24783969.3644
         8.5004          8.0004
 00  5  8 16 18  0.0010000  0  7G 2G 4G 7G 5G 9G24G16
  23090711.4424    7659255.84446   3319754.11346                  23090722.0994
        18.2504         16.7504
  20621661.8724   -9756604.79748  -7602545.78747                  20621668.3644
        30.2504         29.2504
  22268130.6854    7408941.47647   5773193.44146                  22268139.1034
        27.0004         24.0004
  23573936.3414   -7030274.24046   -253877.26645                  23573946.6694
        12.2504         11.7504
  21632150.8024   -7666581.60848  -5973959.34447                  21632158.1774
        31.5004         29.0004
  22008532.6614  -13497978.80547 -10358222.65146                  22008541.8534
        25.5004         24.0004
  24780485.5674    -512064.87645   -318331.48645                  24780498.8604
         9.2504          8.2504
 00  5  8 16 18 15.0010000  0  7G 2G 4G 7G 5G 9G24G16
  23097097.8964    7692818.77746   3345906.98946                  23097108.3414
        18.2504         16.7504
  20620089.4504   -9764867.67048  -7608984.38247                  20620095.9664
        31.7504         29.2504
  22273527.0364    7437299.77347   5795290.79346                  22273535.4074
        26.7504         23.7504
  23565783.7634   -7073113.53446   -287258.51246                  23565793.2004
        12.5004         12.2504
  21631639.5284   -7669268.94448  -5976053.38047                  21631646.9744
        31.2504         29.2504
  22000550.6534  -13539924.35247 -10390907.46646                  22000559.4234
        26.2504         24.2504
  24777033.5054    -530204.75645   -332466.40145                  24777045.8844
         8.7504          8.5004
 00  5  8 16 18 30.0010000  0  7G 2G 4G 7G 5G 9G24G16
  23103498.2004    7726450.91046   3372113.77946                  23103508.8454
        18.2504         16.7504
  20618545.6854   -9772981.08948  -7615306.52547                  20618552.0714
        30.0004         29.2504
  22278928.2944    7465682.63947   5817407.27646                  22278936.6304
        27.0004         23.7504
  23557634.6464   -7115941.55246   -320630.94246                  23557645.0214
        12.2504         12.0004
  21631154.9814   -7671814.84448  -5978037.20947                  21631162.3454
        31.2504         29.2504
  21992585.7784  -13581780.89947 -10423522.92146                  21992594.9934
        26.2504         24.2504
  24773600.4424    -548242.79845   -346521.99145                  24773614.5324
         8.0004          8.7504
 00  5  8 16 18 45.0010000  0  7G 2G 4G 7G 5G 9G24G16
  23109911.0364    7760150.25746   3398372.94046                  23109921.7044
        18.0004         16.7504
  20617029.7784   -9780947.02948  -7621513.74747                  20617036.1424
        30.5004         29.2504
  22284333.5524    7494088.02047   5839541.31646                  22284341.6884
        27.2504         24.0004
  23549485.9664   -7158760.01846   -353995.95946                  23549496.2124
        12.2504         12.2504
  21630697.1384   -7674221.08248  -5979912.21347                  21630704.4544
        31.2504         29.0004
  21984637.2944  -13623550.03447 -10456070.26946                  21984646.3804
        26.5004         24.0004
  24770186.9894    -566180.63045   -360499.44645                  24770201.5364
         8.2504          8.2504
 00  5  8 16 19  0.0010000  0  7G 2G 4G 7G 5G 9G24G16
  23116335.8804    7793913.02846   3424681.51046                  23116346.4314
        17.5004         16.5004
  20615541.3414   -9788769.06448  -7627608.83347                  20615547.8684
        30.5004         29.2504
  22289742.4814    7522511.95947   5861689.81246                  22289750.8534
        27.2504         23.7504
  23541339.0214   -7201572.54546   -387356.32346                  23541348.5174
        12.5004         12.2504
  21630265.2784   -7676491.48248  -5981681.37547                  21630272.6064
        31.2504         29.0004
  21976704.7084  -13665235.31547 -10488552.27646                  21976713.8174
        26.7504         24.2504
  24766792.3564    -584021.67845   -374401.48845                  24766808.6144
         8.5004          8.5004
 00  5  8 16 19 15.0010000  0  7G 2G 4G 7G 5G 9G24G16
  23122772.6854    7827739.79146   3451039.95546                  23122782.8494
        17.7504         16.2504
  20614080.1224   -9796446.63248  -7633591.34947                  20614086.6964
        31.2504         29.2504
  22295155.0054    7550955.04647   5883853.23046                  22295163.3644
        27.0004         24.0004
  23533193.4114   -7244378.35046   -420711.47046                  23533202.9784
        12.7504         12.5004
  21629859.0444   -7678625.40148  -5983344.17547                  21629866.3964
        31.2504         29.0004
  21968788.3564  -13706835.79547 -10520968.19846                  21968797.2674
        26.7504         24.2504
  24763416.1464    -601765.03645   -388227.40745                  24763431.5604
         9.2504          8.5004
 00  5  8 16 19 30.0010000  0  7G 2G 4G 7G 5G 9G24G16
  23129222.2634    7861631.09846   3477448.70746                  23129232.5914
        17.5004         16.5004
  20612646.9584   -9803979.07648  -7639460.78647                  20612653.6854
        32.0004         29.2504
  22300571.4034    7579417.79047   5906031.96446                  22300579.8104
        26.7504         24.0004
  23525049.2394   -7287176.67046   -454060.77946                  23525059.7084
        12.7504         12.5004
  21629479.0214   -7680622.17748  -5984900.11947                  21629486.3844
        31.0004         29.0004
  21960888.4034  -13748350.61547 -10553317.37146                  21960897.4894
        26.7504         24.2504
  24760057.6224    -619409.89245   -401976.64345                  24760073.2124
         9.2504          9.2504
 00  5  8 16 19 45.0010000  0  7G 2G 4G 7G 5G 9G24G16
  23135683.9354    7895587.68546   3503908.28946                  23135695.2714
        16.7504         16.2504
  20611241.3254   -9811365.58048  -7645216.50347                  20611247.9584
        32.2504         29.2504
  22305991.5674    7607900.74847   5928226.44446                  22306000.0564
        26.5004         23.7504
  23516906.3564   -7329966.67046   -487403.59146                  23516916.0754
        12.5004         12.5004
  21629125.1614   -7682481.14148  -5986348.68047                  21629132.4424
        31.2504         29.0004
  21953005.1064  -13789778.83947 -10585599.07546                  21953014.1224
        27.0004         24.2504
  24756719.2864    -636955.28145   -415648.31645                  24756733.5634
         9.5004          9.5004
 00  5  8 16 20  0.0010000  0  7G 2G 4G 7G 5G 9G24G16
  23142159.2314    7929613.88646   3530422.13846                  23142169.9584
        17.2504         16.0004
  20609864.2784   -9818601.87948  -7650855.17447                  20609870.8884
        32.2504         29.5004
  22311416.1694    7636408.20547   5950440.02046                  22311424.6104
        27.0004         24.0004
  23508766.5444   -7372743.73146   -520736.32746                  23508776.5914
        12.7504         12.7504
  21628798.6614   -7684197.87948  -5987686.40747                  21628805.9784
        31.2504         28.7504
  21945138.8964  -13831115.62347 -10617809.52146                  21945147.7944
        27.0004         24.2504
  24753400.7864    -654396.39845   -429238.75145                  24753415.7554
        10.0004          9.2504
 00  5  8 16 20 15.0010000  0  7G 2G 4G 7G 5G 9G24G16
  23148647.5914    7963710.89146   3556991.14746                  23148658.3994
        17.7504         15.7504
  20608516.1774   -9825686.48848  -7656375.65347                  20608522.8924
        32.2504         29.2504
  22316845.8804    7664941.32347   5972673.59246                  22316854.2164
        27.0004         23.7504
  23500628.7004   -7415506.46646   -554057.91146                  23500638.3024
        13.2504         12.5004
  21628499.3414   -7685771.19148  -5988912.38047                  21628506.5524
        30.7504         28.7504
  21937290.3104  -13872359.53847 -10649947.60246                  21937299.0674
        27.0004         24.0004
  24750101.3644    -671731.74245   -442746.77945                  24750114.7514
         9.5004          9.5004
 00  5  8 16 20 30.0010000  0  7G 2G 4G 7G 5G 9G24G16
  23155148.1534    7997871.83346   3583609.98146                  23155159.0564
        17.0004         16.0004
  20607195.5754   -9832626.34048  -7661783.32547                  20607202.3604
        32.2504         29.5004
  22322279.2864    7693493.10947   5994921.70246                  22322287.5994
        27.0004         24.0004
  23492492.7634   -7458261.48646   -587373.47946                  23492502.8924
        13.5004         13.0004
  21628225.9354   -7687207.79648  -5990031.82847                  21628233.1224
        30.7504         28.5004
  21929458.2164  -13913517.13747 -10682018.43346                  21929467.1034
        27.0004         24.2504
  24746820.8644    -688967.93345   -456177.53745                  24746833.9704
         9.0004          9.5004
 00  5  8 16 20 45.0010000  0  7G 2G 4G 7G 5G 9G24G16
  23161661.0994    8032097.21146   3610279.01746                  23161671.8024
        17.2504         16.0004
  20605902.5284   -9839420.94648  -7667077.82447                  20605909.1964
        32.0004         29.2504
  22327716.0834    7722064.02047   6017184.72346                  22327724.4784
        27.0004         23.7504
  23484358.5284   -7501008.05746   -620682.46446                  23484368.7864
        13.0004         13.5004
  21627978.6224   -7688507.15748  -5991044.33247                  21627985.9034
        31.0004         28.5004
  21921642.8174  -13954587.55147 -10714021.31846                  21921651.8564
        27.0004         24.2504
  24743560.9034    -706104.04445   -469530.31645                  24743573.7984
         9.2504          9.0004
 00  5  8 16 21  0.0010000  0  7G 2G 4G 7G 5G 9G24G16
  23168187.2244    8066390.39046   3637000.89646                  23168197.3994
        17.7504         15.7504
  20604637.8174   -9846066.89448  -7672256.48847                  20604644.4624
        32.5004         29.2504
  22333157.3494    7750657.36447   6039465.22346                  22333165.6144
        27.0004         24.0004
  23476226.0284   -7543742.71146   -653982.14746                  23476236.3454
        13.2504         13.5004
  21627758.2474   -7689665.94948  -5991947.29747                  21627765.4934
        30.7504         28.5004
  21913844.6774  -13995567.17347 -10745953.45946                  21913853.7284
        26.7504         24.2504
  24740319.5604    -723136.51145   -482802.34645                  24740333.1344
         9.2504          9.0004
 00  5  8 16 21 15.0010000  0  7G 2G 4G 7G 5G 9G24G16
  23174725.4584    8100749.09746   3663773.85246                  23174735.8924
        17.5004         16.0004
  20603400.9664   -9852566.33048  -7677320.98547                  20603407.6694
        32.5004         29.2504
  22338602.2314    7779270.77947   6061761.36246                  22338610.6384
        27.0004         23.7504
  23468095.4894   -7586467.46446   -687274.13346                  23468105.3024
        13.5004         13.2504
  21627563.9424   -7690686.48048  -5992742.53147                  21627571.2244
        30.7504         28.2504
  21906063.2164  -14036457.94547 -10777816.36446                  21906072.1614
        26.7504         24.7504
  24737097.9194    -740067.21245   -495995.10645                  24737111.7164
         9.2504          9.2504
 00  5  8 16 21 30.0010000  0  7G 2G 4G 7G 5G 9G24G16
  23181277.0674    8135178.09546   3690601.55646                  23181287.3844
        17.5004         16.0004
  20602193.0674   -9858914.37348  -7682267.51547                  20602199.5834
        32.5004         29.0004
  22344051.9034    7807908.94747   6084076.78846                  22344060.4034
        27.0004         23.7504
  23459968.5054   -7629177.29546   -720554.47846                  23459978.0954
        14.0004         13.5004
  21627397.1224   -7691563.82348  -5993426.19247                  21627404.3684
        30.5004         28.5004
  21898299.7634  -14077254.80847 -10809606.09846                  21898308.6854
        27.0004         24.7504
  24733895.3884    -756891.24045   -509104.68245                  24733909.7244
         8.7504          8.5004
 00  5  8 16 21 45.0010000  0  7G 2G 4G 7G 5G 9G24G16
  23187841.3964    8169673.50446   3717481.03146                  23187852.0174
        17.2504         15.7504
  20601013.1614   -9865114.95648  -7687099.13747                  20601019.7594
        32.5004         29.0004
  22349505.6464    7836567.91247   6106408.41846                  22349514.2284
        27.2504         24.0004
  23451843.0754   -7671875.91746   -753826.09946                  23451852.5014
        14.0004         13.7504
  21627256.5674   -7692301.79648  -5994001.25047                  21627263.8024
        30.5004         28.2504
  21890553.5444  -14117961.31347 -10841325.41746                  21890562.3254
        27.2504         24.7504
  24730714.6694    -773611.93145   -522133.74845                  24730729.8964
         9.2504          9.0004
 00  5  8 16 22  0.0010000  0  7G 2G 4G 7G 5G 9G24G16
  23194418.9424    8204237.85346   3744414.22046                  23194430.1964
        17.2504         16.0004
  20599861.6924   -9871165.50848  -7691813.85347                  20599868.3024
        32.2504         29.2504
  22354963.8334    7865250.18647   6128758.20946                  22354972.2984
        27.0004         24.0004
  23443720.3494   -7714560.65846   -787086.89046                  23443729.9624
        13.5004         14.0004
  21627142.9894   -7692897.84248  -5994465.71447                  21627150.2594
        30.5004         28.5004
  21882825.2084  -14158574.56047 -10872972.06946                  21882834.1654
        27.2504         24.7504
  24727552.9814    -790226.62145   -535080.27445                  24727567.1184
         9.7504          8.7504
 00  5  8 16 22 15.0010000  0  7G 2G 4G 7G 5G 9G24G16
  23201010.1924    8238875.02546   3771404.16646                  23201021.5174
        16.5004         15.7504
  20598739.6304   -9877062.00548  -7696408.53047                  20598746.3214
        32.5004         29.2504
  22360426.8644    7893959.53647   6151129.09646                  22360435.3994
        27.0004         23.7504
  23435601.1774   -7757227.36246   -820333.63946                  23435610.8134
        14.0004         13.5004
  21627057.3564   -7693348.09248  -5994816.57847                  21627064.6854
        30.7504         28.5004
  21875115.2394  -14199090.30547 -10904542.74946                  21875124.2674
        27.5004         24.7504
  24724412.2554    -806731.06145   -547940.84945                  24724426.4744
        10.0004          9.2504
 00  5  8 16 22 30.0010000  0  7G 2G 4G 7G 5G 9G24G16
  23207614.2554    8273580.88546   3798447.61446                  23207624.9814
        17.0004         15.7504
  20597646.2394   -9882808.52448  -7700886.34247                  20597652.8964
        32.5004         29.0004
  22365894.4194    7922691.77947   6173517.82446                  22365903.1424
        27.0004         24.0004
  23427484.7714   -7799879.97046   -853569.39346                  23427494.0444
        14.0004         13.5004
  21626998.7554   -7693656.65548  -5995057.03347                  21627005.9784
        30.7504         28.7504
  21867423.2944  -14239512.52147 -10936040.54946                  21867432.1924
        27.7504         25.2504
  24721291.1384    -823129.10345   -560718.55345                  24721305.4974
        10.5004          9.7504
 00  5  8 16 22 45.0010000  0  7G 2G 4G 7G 5G 9G24G16
  23214231.8644    8308355.04846   3825544.29846                  23214243.0604
        17.0004         16.0004
  20596580.9974   -9888405.63848  -7705247.73347                  20596587.7004
        32.5004         29.2504
  22371366.3334    7951446.44247   6195924.02846                  22371374.9504
        27.2504         24.0004
  23419370.6924   -7842518.62846   -886794.29346                  23419380.4464
        14.2504         13.7504
  21626967.2864   -7693823.86948  -5995187.34247                  21626974.7314
        30.7504         28.7504
  21859748.7554  -14279841.28947 -10967465.53446                  21859757.6884
        27.7504         25.5004
  24718191.4194    -839420.79945   -573413.36045                  24718204.8414
        10.7504         10.0004
 00  5  8 16 23  0.0010000  0  7G 2G 4G 7G 5G 9G24G16
  23220861.9424    8343196.64446   3852693.53546                  23220872.9624
        16.2504         15.2504
  20595544.2474   -9893853.90448  -7709493.13647                  20595551.0674
        32.5004         29.2504
  22376842.3254    7980222.59147   6218346.96846                  22376850.8724
        27.2504         24.0004
  23411259.1924   -7885143.97046   -920008.81146                  23411268.3844
        14.0004         13.2504
  21626961.8564   -7693850.50248  -5995208.10747                  21626969.2204
        30.5004         28.7504
  21852092.2084  -14320077.10447 -10998818.08446                  21852101.0834
        27.7504         25.5004
  24715111.5364    -855606.65245   -586025.70545                  24715124.1734
        11.2504         10.2504
 00  5  8 16 23 15.0010000  0  7G 2G 4G 7G 5G 9G24G16
  23227504.1144    8378103.90446   3879893.92546                  23227515.0284
        16.7504         15.0004
  20594535.3644   -9899155.26048  -7713624.06547                  20594542.1264
        32.5004         29.2504
  22382321.9974    8009018.36347   6240785.19746                  22382330.6144
        27.2504         24.0004
  23403150.0914   -7927757.59646   -953214.20246                  23403159.1184
        14.0004         13.0004
  21626983.2784   -7693738.33548  -5995120.72247                  21626990.5954
        30.7504         28.7504
  21844452.8104  -14360221.56247 -11030099.44946                  21844461.5444
        27.7504         25.2504
  24712051.3564    -871688.20345   -598556.77745                  24712065.4234
        11.7504         10.2504
 00  5  8 16 23 30.0010000  0  7G 2G 4G 7G 5G 9G24G16
  23234160.5054    8413080.49846   3907148.34846                  23234171.5244
        16.5004         15.5004
  20593555.3964   -9904305.77048  -7717637.45347                  20593562.1694
        32.2504         29.0004
  22387806.0284    8037837.39147   6263241.55146                  22387814.7164
        27.0004         24.0004
  23395044.2474   -7970355.52346   -986407.35546                  23395053.1694
        14.0004         13.2504
  21627031.7714   -7693483.62948  -5994922.26347                  21627039.0054
        30.5004         28.7504
  21836831.8724  -14400270.38348 -11061306.30146                  21836840.6534
        28.2504         25.5004
  24709011.2004    -887661.37245   -611003.39145                  24709025.1034
        11.2504         10.5004
 00  5  8 16 23 45.0010000  0  7G 2G 4G 7G 5G 9G24G16
  23240830.5604    8448129.93046   3934459.50346                  23240841.6964
        16.5004         15.5004
  20592604.6924   -9909302.08048  -7721530.68447                  20592611.3964
        32.2504         29.2504
  22393295.2864    8066683.21147   6285718.77746                  22393303.9504
        27.0004         23.7504
  23386941.6064   -8012934.00346  -1019585.36846                  23386950.9504
        14.0004         12.7504
  21627108.0364   -7693082.90148  -5994610.02547                  21627115.4704
        30.5004         28.7504
  21829229.5444  -14440219.92348 -11092435.78446                  21829238.4074
        28.0004         25.5004
  24705993.3334    -903522.39745   -623362.64045                  24706006.4624
        10.7504         10.7504
 00  5  8 16 24  0.0010000  0  7G 2G 4G 7G 5G 9G24G16
  23247512.2784    8483243.37146   3961820.54546                  23247523.0284
        16.7504         15.7504
  20591681.5674   -9914152.80148  -7725310.46547                  20591688.2124
        32.5004         29.2504
  22398787.7474    8095546.78047   6308209.83446                  22398796.3884
        26.5004         23.7504
  23378841.0524   -8055501.75746  -1052755.00646                  23378850.3254
        13.5004         12.7504
  21627210.2164   -7692544.99748  -5994190.89347                  21627217.6854
        30.7504         28.5004
  21821644.8024  -14480078.73147 -11123494.57147                  21821653.7354
        27.7504         25.7504
  24702994.7944    -919279.89345   -635641.16445                  24703009.4584
        10.7504         10.5004
 00  5  8 16 24 15.0010000  0  7G 2G 4G 7G 5G 9G24G16
  23254207.4974    8518426.27946   3989235.74046                  23254218.1654
        16.7504         15.2504
  20590787.0834   -9918852.56848  -7728972.62147                  20590793.7044
        32.2504         29.0004
  22404284.9034    8124433.67947   6330719.06946                  22404293.2744
        26.2504         23.2504
  23370744.2244   -8098053.03146  -1085911.80946                  23370754.0134
        13.2504         12.7504
  21627339.9584   -7691864.40148  -5993660.57847                  21627347.3104
        30.5004         28.7504
  21814078.0994  -14519840.98747 -11154478.11847                  21814086.8684
        27.7504         25.7504
  24700016.6614    -934927.90345   -647834.40645                  24700031.0444
        10.5004         10.2504
 00  5  8 16 24 30.0010000  0  7G 2G 4G 7G 5G 9G24G16
  23260914.9744    8553676.44346   4016703.32046                  23260925.9934
        17.0004         15.7504
  20589921.2084   -9923403.45848  -7732518.77347                  20589927.7354
        32.2504         28.7504
  22409785.7554    8153341.54147   6353244.63346                  22409794.3494
        26.2504         23.2504
  23362649.6144   -8140589.85146  -1119057.34546                  23362658.8414
        13.2504         13.2504
  21627496.1924   -7691043.23048  -5993020.72447                  21627503.6494
        30.5004         28.7504
  21806529.7004  -14559508.53148 -11185387.86647                  21806538.5054
        28.0004         25.7504
  24697059.9814    -950468.34345   -659943.83645                  24697074.2354
        10.5004          9.7504
 00  5  8 16 24 45.0010000  0  7G 2G 4G 7G 5G 9G24G16
  23267636.0054    8588993.17646   4044222.77846                  23267647.4704
        16.2504         15.5004
  20589083.4894   -9927806.22548  -7735949.50447                  20589090.0874
        32.2504         29.0004
  22415290.5994    8182269.56447   6375785.91446                  22415299.2284
        26.2504         23.0004
  23354557.8884   -8183112.65046  -1152191.98346                  23354566.8454
        13.2504         13.0004
  21627679.0604   -7690082.13148  -5992271.83447                  21627686.4814
        30.7504         28.5004
  21798999.2394  -14599081.82647 -11216224.17746                  21799008.2674
        27.2504         25.5004
  24694122.4274    -965901.90145   -671969.96745                  24694137.6534
        10.5004         10.0004
 00  5  8 16 25  0.0010000  0  7G 2G 4G 7G 5G 9G24G16
  23274369.4744    8624378.26546   4071795.51746                  23274379.9664
        16.5004         15.5004
  20588273.9894   -9932058.96848  -7739263.33047                  20588280.7164
        32.2504         29.0004
  22420799.7474    8211219.60147   6398344.35446                  22420808.4704
        26.0004         23.0004
  23346468.9354   -8225619.38346  -1185314.05846                  23346477.6464
        14.0004         13.0004
  21627888.8494   -7688979.33448  -5991412.52647                  21627896.3414
        30.5004         28.7504
  21791486.7864  -14638558.65347 -11246985.31246                  21791495.8254
        27.0004         25.5004
  24691206.4664    -981226.04745   -683910.82245                  24691219.8414
        10.5004         10.2504
 00  5  8 16 25 15.0010000  0  7G 2G 4G 7G 5G 9G24G16
  23281116.1854    8659832.89946   4099422.43146                  23281127.4384
        16.5004         15.5004
  20587493.6464   -9936160.44048  -7742459.27947                  20587500.3724
        32.5004         29.0004
  22426313.0994    8240192.65147   6420920.71646                  22426321.7514
        25.5004         22.7504
  23338383.3964   -8268108.69546  -1218422.57846                  23338392.0714
        13.7504         13.2504
  21628126.1304   -7687733.72948  -5990441.94547                  21628133.6344
        30.7504         29.0004
  21783993.1924  -14677937.63547 -11277670.21046                  21784002.6184
        27.0004         25.5004
  24688311.1534    -996439.51545   -695765.45945                  24688324.6574
        10.5004         10.2504
 00  5  8 16 25 30.0010000  0  7G 2G 4G 7G 5G 9G24G16
  23287876.8884    8695359.93746   4127105.76446                  23287887.8024
        16.2504         15.2504
  20586742.4194   -9940107.74148  -7745535.09747                  20586749.0524
        32.2504         29.0004
  22431831.4274    8269191.64747   6443517.29446                  22431840.2904
        26.0004         22.7504
  23330302.0604   -8310577.45246  -1251515.09446                  23330311.5324
        14.0004         13.2504
  21628390.8174   -7686342.30048  -5989357.73347                  21628398.2984
        30.7504         28.5004
  21776518.8414  -14717215.49147 -11308276.30247                  21776527.9974
        27.5004         25.7504
  24685438.3254   -1011539.08945   -707531.33945                  24685452.1574
        11.2504         10.0004
 00  5  8 16 25 45.0010000  0  7G 2G 4G 7G 5G 9G24G16
  23294650.2714    8730953.56746   4154840.98946                  23294661.0214
        16.0004         15.0004
  20586019.5134   -9943906.78448  -7748495.39147                  20586026.3454
        32.2504         29.0004
  22437353.6854    8298210.67847   6466129.47946                  22437362.3134
        26.2504         22.7504
  23322222.8804   -8353031.30646  -1284595.98546                  23322231.7314
        13.5004         12.7504
  21628682.2394   -7684810.93548  -5988164.47647                  21628689.7204
        31.0004         28.7504
  21769062.6924  -14756397.92447 -11338808.04546                  21769071.6384
        27.7504         25.5004
  24682585.3964   -1026530.34945   -719212.84945                  24682598.6654
        11.5004         10.5004
 00  5  8 16 26  0.0010000  0  7G 2G 4G 7G 5G 9G24G16
  23301437.0214    8766618.54046   4182631.82146                  23301448.1344
        15.2504         15.0004
  20585325.6694   -9947552.62448  -7751336.30247                  20585332.4894
        32.5004         29.0004
  22442880.4584    8327254.41147   6488760.92146                  22442889.0524
        25.7504         22.7504
  23314147.9114   -8395465.21546  -1317661.32246                  23314156.9974
        13.5004         13.0004
  21629001.2164   -7683134.77848  -5986858.39847                  21629008.7674
        30.7504         29.0004
  21761625.6384  -14795479.61847 -11369261.28947                  21761634.5014
        27.7504         26.0004
  24679754.1774   -1041408.11245   -730805.92245                  24679766.7314
        11.7504         10.2504
 00  5  8 16 26 15.0010000  0  7G 2G 4G 7G 5G 9G24G16
  23308237.2944    8802353.88846   4210477.49646                  23308248.6184
        15.2504         15.0004
  20584660.7864   -9951046.19748  -7754058.56447                  20584667.5484
        32.5004         29.2504
  22448411.9814    8356321.83047   6511410.81746                  22448420.7634
        25.5004         22.7504
  23306076.9814   -8437879.91046  -1350711.69546                  23306086.1264
        13.5004         13.0004
  21629347.6224   -7681314.79248  -5985440.24347                  21629355.0674
        30.7504         28.7504
  21754207.6614  -14834461.35448 -11399636.63747                  21754216.5364
        28.2504         25.7504
  24676944.6854   -1056173.12045   -742311.11245                  24676957.3924
        11.7504         10.7504
 00  5  8 16 26 30.0010000  0  7G 2G 4G 7G 5G 9G24G16
  23315051.1464    8838161.46546   4238379.43746                  23315062.3414
        15.0004         14.7504
  20584025.3964   -9954385.74648  -7756660.81047                  20584032.1694
        32.5004         29.0004
  22453947.9814    8385414.87447   6534080.67646                  22453956.7864
        25.2504         22.7504
  23298009.9354   -8480273.33646  -1383745.51246                  23298019.2434
        13.5004         13.2504
  21629721.6464   -7679349.09348  -5983908.54547                  21629729.2674
        30.5004         28.7504
  21746809.2004  -14873340.99948 -11429932.44747                  21746817.7004
        28.7504         26.0004
  24674156.7944   -1070823.13445   -753726.69745                  24674170.7084
        11.2504         10.2504
 00  5  8 16 26 45.0010000  0  7G 2G 4G 7G 5G 9G24G16
  23321878.5214    8874036.62446   4266334.03446                  23321889.9744
        15.0004         14.2504
  20583418.3964   -9957575.72548  -7759146.50347                  20583425.1464
        32.5004         29.0004
  22459488.1224    8414528.70047   6556766.73646                  22459496.7164
        25.2504         22.2504
  23289945.4274   -8522649.87946  -1416766.15946                  23289954.6424
        13.7504         13.0004
  21630122.6064   -7677242.37248  -5982266.95747                  21630130.0054
        30.5004         28.2504
  21739429.5284  -14912122.85348 -11460152.04747                  21739438.1814
        28.5004         26.0004
  24671390.1614   -1085362.63745   -765056.19445                  24671402.5874
        11.2504         10.2504
 00  5  8 16 27  0.0010000  0  7G 2G 4G 7G 5G 9G24G16
  23328718.5054    8909983.26946   4294344.33546                  23328730.3104
        15.0004         14.0004
  20582840.6384   -9960612.28148  -7761512.65447                  20582847.3644
        32.5004         28.7504
  22465033.3024    8443667.27747   6579472.07746                  22465041.9074
        25.2504         22.2504
  23281885.2084   -8565005.36646  -1449770.39246                  23281894.4704
        13.5004         13.0004
  21630550.9664   -7674990.64048  -5980512.37747                  21630558.4584
        30.5004         28.7504
  21732068.8644  -14950802.74048 -11490292.20347                  21732077.5054
        28.5004         26.0004
  24668645.0134   -1099787.36445   -776296.22745                  24668658.5524
        10.5004         10.0004
 00  5  8 16 27 15.0010000  0  7G 2G 4G 7G 5G 9G24G16
  23335572.4664    8946000.64446   4322409.74646                  23335584.1774
        14.7504         14.5004
  20582291.7084   -9963496.06048  -7763759.75147                  20582298.2474
        32.2504         28.7504
  22470582.7164    8472829.77347   6602196.06246                  22470591.6964
        25.0004         22.0004
  23273829.5214   -8607340.31846  -1482758.63446                  23273838.6654
        14.2504         13.7504
  21631006.9354   -7672594.58348  -5978645.33747                  21631014.4384
        30.5004         28.7504
  21724727.4504  -14989380.94548 -11520353.12347                  21724736.1614
        28.7504         26.0004
  24665921.4194   -1114097.67045   -787447.12445                  24665936.1064
         9.0004          9.7504
 00  5  8 16 27 30.0010000  0  7G 2G 4G 7G 5G 9G24G16
  23342440.6304    8982091.45546   4350532.38046                  23342451.5214
        15.5004         14.5004
  20581772.6774   -9966224.41348  -7765885.73647                  20581779.2634
        32.2504         29.0004
  22476137.2474    8502018.92647   6624940.81246                  22476146.1574
        24.7504         22.0004
  23265777.9584   -8649651.75146  -1515728.55646                  23265787.1034
        14.5004         14.0004
  21631490.8724   -7670051.40548  -5976663.65647                  21631498.3534
        30.5004         28.7504
  21717406.2864  -15027854.45748 -11550332.46047                  21717414.8454
        28.7504         26.0004
  24663221.3104   -1128290.53145   -798506.47645                  24663235.4934
         9.2504          9.7504
 00  5  8 16 27 45.0010000  0  7G 2G 4G 7G 5G 9G24G16
  23349321.0134    9018249.33046   4378707.27146                  23349332.6884
        14.7504         14.5004
  20581281.9504   -9968803.69848  -7767895.57147                  20581288.5834
        32.2504         28.7504
  22481695.5284    8531228.13347   6647701.18646                  22481704.3924
        24.7504         22.0004
  23257729.4584   -8691945.88146  -1548684.97646                  23257739.1184
        14.7504         14.2504
  21632001.7244   -7667367.55848  -5974572.36347                  21632009.2164
        30.5004         28.7504
  21710103.8334  -15066229.58548 -11580235.13547                  21710112.6264
        28.7504         26.2504
  24660540.6924   -1142372.20045   -809479.17945                  24660556.5524
         9.0004         10.0004
 00  5  8 16 28  0.0010000  0  7G 2G 4G 7G 5G 9G24G16
  23356214.3414    9054473.64046   4406933.92646                  23356225.1854
        14.7504         14.5004
  20580819.2394   -9971234.50248  -7769789.69647                  20580825.8024
        32.5004         28.7504
  22487257.7784    8560456.77747   6670476.71046                  22487266.5364
        24.7504         22.2504
  23249684.8494   -8734223.16246  -1581628.27846                  23249694.6264
        14.7504         13.7504
  21632539.1464   -7664543.74548  -5972372.00747                  21632546.5914
        30.5004         28.7504
  21702819.7164  -15104506.46648 -11610061.25747                  21702828.6614
        28.5004         26.5004
  24657882.7474   -1156342.87845   -820365.43945                  24657897.2824
         9.0004          9.7504
 00  5  8 16 28 15.0010000  0  7G 2G 4G 7G 5G 9G24G16
  23363121.7474    9090771.46946   4435217.89246                  23363131.9704
        15.7504         14.5004
  20580386.2714   -9973509.68048  -7771562.56247                  20580392.9504
        32.2504         29.0004
  22492824.6534    8589712.03747   6693272.97946                  22492833.7164
        24.7504         22.0004
  23241643.8104   -8776476.11746  -1614552.62646                  23241653.3764
        15.2504         14.2504
  21633104.3334   -7661572.71448  -5970056.93447                  21633111.9784
        30.5004         28.7504
  21695556.0214  -15142677.67948 -11639805.03647                  21695564.8374
        28.7504         26.5004
  24655246.7634   -1170195.10245   -831159.33845                  24655260.5954
         9.7504         10.2504
 00  5  8 16 28 30.0010000  0  7G 2G 4G 7G 5G 9G24G16
  23370042.3964    9127140.29946   4463557.16346                  23370053.6734
        14.7504         14.2504
  20579982.4424   -9975631.78748  -7773216.14847                  20579989.1464
        32.5004         28.7504
  22498396.4034    8618991.16347   6716087.83046                  22498405.2784
        24.5004         22.0004
  23233607.7474   -8818707.02246  -1647459.78446                  23233616.7634
        15.2504         14.5004
  21633697.3174   -7658457.01848  -5967629.13547                  21633704.8924
        30.5004         28.7504
  21688312.0604  -15180745.49448 -11669468.25147                  21688320.9704
        28.7504         26.2504
  24652633.2084   -1183931.26145   -841862.82245                  24652646.8414
        10.2504         10.0004
 00  5  8 16 28 45.0010000  0  7G 2G 4G 7G 5G 9G24G16
  23376976.4664    9163577.24146   4491949.50846                  23376987.9074
        15.2504         14.5004
  20579607.1924   -9977603.63448  -7774752.64647                  20579613.8604
        32.2504         29.0004
  22503972.2164    8648291.40047   6738919.14646                  22503981.1264
        24.5004         21.5004
  23225575.0284   -8860918.50746  -1680351.82146                  23225584.1614
        15.0004         14.5004
  21634317.3644   -7655199.44948  -5965090.78847                  21634324.9034
        30.7504         29.0004
  21681087.0754  -15218712.43848 -11699052.86447                  21681095.9154
        28.7504         26.5004
  24650040.2394   -1197553.78645   -852477.80745                  24650054.4114
        10.0004          9.5004
 00  5  8 16 29  0.0010000  0  7G 2G 4G 7G 5G 9G24G16
  23383923.3494    9200085.74246   4520397.64646                  23383934.9784
        14.7504         14.2504
  20579261.2394   -9979421.70548  -7776169.32047                  20579267.8374
        32.2504         28.7504
  22509552.5054    8677616.08047   6761769.50446                  22509561.3334
        24.7504         22.0004
  23217546.5674   -8903106.97546  -1713225.91946                  23217556.2394
        15.2504         14.7504
  21634964.6614   -7651796.57548  -5962439.21347                  21634972.2124
        30.7504         28.7504
  21673882.1534  -15256574.74348 -11728555.93447                  21673891.0404
        28.7504         26.5004
  24647471.0754   -1211059.08345   -863001.39645                  24647485.9034
        10.5004         10.0004
 00  5  8 16 29 15.0010000  0  7G 2G 4G 7G 5G 9G24G16
  23390885.0214    9236666.36646   4548901.95246                  23390896.9314
        13.5004         14.0004
  20578944.6854   -9981085.40248  -7777465.70347                  20578951.3764
        32.0004         29.0004
  22515137.6774    8706965.78547   6784639.35646                  22515146.5524
        24.5004         21.7504
  23209523.0994   -8945271.53846  -1746081.38346                  23209532.8414
        15.5004         14.5004
  21635640.0054   -7648247.85048  -5959673.98747                  21635647.5794
        30.7504         29.0004
  21666697.2084  -15294331.64548 -11757976.87447                  21666706.1064
        29.0004         26.5004
  24644923.7554   -1224446.07545   -873432.79945                  24644937.5874
        10.0004          9.5004
 00  5  8 16 29 30.0010000  0  7G 2G 4G 7G 5G 9G24G16
  23397858.3564    9273311.36946   4577456.43046                  23397870.1144
        14.7504         14.0004
  20578655.9664   -9982602.61348  -7778647.93347                  20578662.6574
        32.5004         29.0004
  22520725.9424    8736332.67847   6807522.60246                  22520735.0404
        24.5004         22.0004
  23201502.6854   -8987419.79246  -1778924.13846                  23201511.8994
        15.7504         14.5004
  21636341.6464   -7644561.12048  -5956801.22747                  21636349.3604
        30.7504         28.7504
  21659530.9584  -15331990.48948 -11787321.40847                  21659539.7164
        29.2504         26.5004
  24642396.5444   -1237722.47445   -883778.03945                  24642410.5874
         9.7504          9.0004
 00  5  8 16 29 45.0010000  0  7G 2G 4G 7G 5G 9G24G16
  23404844.5444    9310025.62246   4606064.88446                  23404856.1264
        14.0004         14.0004
  20578395.9424   -9983968.40048  -7779712.17847                  20578402.5284
        32.2504         28.7504
  22526318.4424    8765721.57747   6830422.99946                  22526327.3764
        24.5004         21.7504
  23193486.1774   -9029546.57446  -1811750.17146                  23193495.8374
        15.7504         14.7504
  21637070.4274   -7640731.46048  -5953817.09447                  21637078.1184
        30.7504         28.7504
  21652384.4664  -15369546.21248 -11816585.59147                  21652393.0364
        29.5004         26.5004
  24639892.9114   -1250882.86445   -894032.87645                  24639906.7784
         9.2504          8.5004
 00  5  8 16 30  0.0010000  0  7G 2G 4G 7G 5G 9G24G16
  23411845.2004    9346812.82746   4634730.15746                  23411857.2744
        14.0004         14.0004
  20578165.5914   -9985178.94348  -7780655.45447                  20578172.0484
        32.0004         28.7504
  22531915.9664    8795136.21047   6853343.45246                  22531925.1224
        24.5004         21.7504
  23185474.8884   -9071647.86946  -1844556.33346                  23185484.2204
        15.7504         15.2504
  21637827.1534   -7636755.09748  -5950718.64447                  21637834.7164
        30.5004         28.7504
  21645258.0834  -15406994.67948 -11845766.18947                  21645266.7474
        29.0004         27.0004
  24637411.1614   -1263923.50645   -904194.38245                  24637424.1144
         9.0004          8.2504
 00  5  8 16 30 15.0010000  0  7G 2G 4G 7G 5G 9G24G16
  23418858.6854    9383667.63446   4663448.11846                  23418870.8174
        14.2504         14.2504
  20577963.8964   -9986239.56648  -7781481.90547                  20577970.3414
        32.2504         28.7504
  22537517.3964    8824571.22347   6876279.77946                  22537526.3174
        24.0004         21.7504
  23177466.9744   -9113728.72046  -1877346.56946                  23177476.4814
        15.5004         15.2504
  21638610.5914   -7632637.41948  -5947510.08147                  21638618.0714
        30.5004         28.7504
  21638151.3804  -15444340.93148 -11874867.14447                  21638160.0794
        29.5004         27.0004
  24634950.9504   -1276849.23445   -914266.38145                  24634964.8994
         8.5004          8.5004
 00  5  8 16 30 30.0010000  0  7G 2G 4G 7G 5G 9G24G16
  23425884.8644    9420591.82146   4692220.15446                  23425896.5174
        13.0004         13.0004
  20577790.6924   -9987148.54148  -7782190.19147                  20577797.0674
        31.7504         28.7504
  22543122.7554    8854028.25847   6899233.27046                  22543131.8994
        24.0004         21.5004
  23169463.2864   -9155787.14246  -1910119.33746                  23169472.5834
        15.7504         15.2504
  21639421.6614   -7628376.57548  -5944189.95947                  21639429.1884
        30.5004         28.7504
  21631064.2784  -15481582.83948 -11903886.78747                  21631072.8024
        29.7504         27.0004
  24632513.9274   -1289657.96845   -924247.21245                  24632528.8254
         7.7504          8.5004
 00  5  8 16 30 45.0010000  0  7G 2G 4G 7G 5G 9G24G16
  23432924.4114    9457584.77346   4721045.74046                  23432936.9544
        13.5004         13.7504
  20577646.5674   -9987906.46448  -7782780.77147                  20577653.0484
        32.0004         28.5004
  22548732.3724    8883506.82547   6922203.53746                  22548741.6694
        24.5004         21.5004
  23161463.8494   -9197823.52446  -1942874.91246                  23161473.0994
        15.7504         15.2504
  21640259.3964   -7623973.16348  -5940758.74747                  21640267.0994
        30.2504         28.7504
  21623997.4354  -15518720.74448 -11932825.39447                  21624006.0524
        29.7504         27.0004
  24630097.9504   -1302350.14145   -934137.19545                  24630111.3724
         7.5004          8.0004
 00  5  8 16 31  0.0010000  0  7G 2G 4G 7G 5G 9G24G16
  23439976.9664    9494645.27046   4749923.99046                  23439988.3494
        13.5004         13.5004
  20577530.9894   -9988514.52248  -7783254.57647                  20577537.4584
        32.0004         28.7504
  22554345.8174    8913005.57847   6945189.53146                  22554354.9034
        24.2504         21.2504
  23153468.6694   -9239838.83146  -1975614.07246                  23153478.2354
        15.2504         15.5004
  21641124.3644   -7619428.45848  -5937217.43447                  21641132.0324
        30.0004         28.7504
  21616949.9424  -15555755.67148 -11961683.75647                  21616958.5484
        29.7504         26.7504
  24627704.4814   -1314926.52945   -943936.93645                  24627717.5994
         7.5004          8.5004
